     2              OBSERVATION DATA    GPS                 RINEX VERSION / TYPE
ASRINEXO V2.4.4 UX USGS 06-DEC-95 16:02                     PGM / RUN BY / DATE
                                                            COMMENT
Original Marker Name: mulh mulholland_13.f.21_1940_LA_PublicCOMMENT
Campaign Name: usgs.northridge.pro                          COMMENT
4-Character Station Name: MULH                              COMMENT
6-Character Antenna Code: ASHL12                            COMMENT
Vertical Measurement Point: BBE                             COMMENT
Vertical Offset to Rinex Ref. Point: 0.0595                 COMMENT
Radial Measurement Point: EGP                               COMMENT
Radial Offset to Rinex Ref. Point: 0.1424                   COMMENT
Antenna Height from Field Measurement: 1.3465 m             COMMENT
Additional Antenna Identification Info.:                    COMMENT
Original Ashtech L1/L2                                      COMMENT
Original XYZ: -2526906.2300 -4642524.9900 3558664.6800      COMMENT
New XYZ position is based on association with SCEC monument COMMENT
E1C7Y9T2+0011. Position of that monument is believed to be  COMMENT
valid to within 1 m horizontally; vertical accuracy         COMMENT
should be no worse than 3-times this value.                 COMMENT
                                                            COMMENT
Revised Rinex header created by UCSD GPS archive for        COMMENT
GSAC on 11-Nov-1999 (1999:315) 02:10:16 GMT                 COMMENT
For assistance contact dagnew@ucsd.edu or hjohnson@ucsd.edu COMMENT
                                                            COMMENT
MULH MULHOLLAND_13.F.21_1940_LA_PUBLIC_WORKS                MARKER NAME
GDH US GEOLOGICAL SURVEY                                    OBSERVER / AGENCY
597 ASHTECH Z-XII3 1F00                                     REC # / TYPE / VERS
598 ASHTECH GEODETIC L                                      ANT # / TYPE
 -2526906.0000 -4642409.0000  3558672.0000                  APPROX POSITION XYZ
        1.2794        0.0000        0.0000                  ANTENNA: DELTA H/E/N
     1     1     0                                          WAVELENGTH FACT L1/2
     5    C1    L1    L2    P1    P2                        # / TYPES OF OBSERV
    30                                                      INTERVAL
  1995    12     4    16    59   30.000000                  TIME OF FIRST OBS
  1995    12     4    23    30   30.000000                  TIME OF LAST OBS
                                                            END OF HEADER
 95 12  4 16 59 30.0000000  0  7 25 23 21  1 31 28 15
  16625463.176     -133716.30519
  16245961.128        5983.66319
  13868178.414      -30340.67119
  13081377.934      -35952.76819    -21320.47959                  13081381.5574
  15559699.397      -22602.77519
  15579632.452       24639.09419     14131.20059
  15579633.9064   17120122.420     -103400.55219
 95 12  4 17  0  0.0000000  0  7 25 23 21  1 31 28 15
  16596670.935     -285021.872 9
  16247117.256       12026.148 9      7189.38659                  16247119.5474
  13861356.779      -66180.731 9
  13073623.073      -76695.89959    -53068.39149  13073621.7414   13073627.9954
  15554791.239      -48401.812 9    -33563.67959  15554791.1454
  15584625.542       50912.08559     34603.60749  15584627.7754   15584633.4754
  17089818.314     -262620.662 9   -183002.78959                  17089824.3804
 95 12  4 17  0 30.0000000  0  7 25 23 21  1 31 28 15
  23762746.984     -437119.468 9   -315914.03559                  23762753.4454
  23443107.501       17133.39859     11169.02349  23443103.8104   23443110.6084
  21049414.700     -102772.662 9
  20260798.841     -117926.75849    -85196.34149  20260795.2824   20260800.9824
  22744811.195      -74635.85959    -54005.81949  22744811.4294   22744818.0004
  22784515.225       76480.910 9     54527.304 9  22784511.690    22784518.771
  24254396.002     -422624.00559   -307680.67249  24254389.2074   24254397.5024
 95 12  4 17  1  0.0000000  0  7 25 23 21  1 31 28 15
  23733619.166     -590175.76059   -435178.50549  23733620.9964   23733627.7684
  23443912.009       21378.94959     14477.20959  23443911.1294   23443918.8764
  21042307.537     -140136.672 9    -17811.71459  21042308.3184
  20252853.477     -159656.19059   -117712.77959  20252853.8924   20252860.3174
  22739745.879     -101299.43349    -74782.66359  22739737.8824   22739744.6534
  22789261.758      101428.53419     73966.94319  22789259.307    22789266.102
  24223751.128     -583619.68159   -433131.79759  24223752.2424   24223761.0224
 95 12  4 17  1 30.0000000  0  7 25 23 21  1 31 28 15
  23704342.959     -744038.18849   -555071.14759  23704341.7524   23704348.6964
  23444565.414       24817.90849     17156.85749  23444566.2464   23444573.0014
  21035062.271     -178196.86959    -47469.00949  21035059.9434   21035065.7854
  20244831.790     -201827.43449   -150573.48949  20244829.1044   20244835.4964
  22734594.994     -128338.09459    -95851.77149  22734592.6644   22734598.5214
  22793889.746      125759.734 9     92926.272 9  22793889.293    22793896.138
  24192959.960     -745448.69049   -559232.29849  24192957.7094   24192966.3244
 95 12  4 17  2  0.0000000  0  7 25 23 21  1 31 28 15
  23674919.974     -898668.37859   -675562.03449  23674916.2924   23674923.1154
  23445081.375       27514.30149     19257.88649  23445080.0364   23445085.7824
  21027693.820     -216911.08149    -77635.92149  21027692.4674   21027698.5944
  20236733.364     -244382.61449   -183733.37149  20236730.9194   20236737.7394
  22729387.223     -155710.70749   -117181.11249  22729384.6074   22729390.1974
  22798411.464      149510.266 9    111433.132 9  22798409.344    22798415.942
  24162011.897     -908070.03749   -685950.20849  24162012.0904   24162018.8644
 95 12  4 17  2 30.0000000  0  7 25 23 21  1 31 28 15
  23645353.540    -1054030.40649   -796623.15749  23645351.6644   23645359.4484
  23445459.910       29501.59149     20806.37949  23445457.7264   23445463.9664
  21020209.088     -256238.67749   -108280.80349  21020208.3944   21020214.5614
  20228570.278     -287273.13349   -217154.55149  20228569.4914   20228575.6374
  22724113.869     -183409.28349   -138764.43949  22724113.4184   22724119.1444
  22802825.675      172710.497 9    129511.170 9  22802824.219    22802830.698
  24130921.541    -1071447.86849   -813257.56849  24130922.1704   24130928.5044
 95 12  4 17  3  0.0000000  0  7 25 23 21  1 31 28 15
  23615648.409    -1210122.87249   -918253.48549  23615647.5504   23615655.0444
  23445700.339       30781.24449     21803.46149  23445700.6064   23445708.1474
  21012612.040     -296174.46849   -139399.61149  21012609.2114   21012614.7294
  20220344.969     -330499.19249   -250837.20149  20220343.8634   20220349.7754
  22718784.210     -211420.96249   -160591.75049  22718783.2524   22718788.3394
  22807141.177      195372.631 9    147169.913 9  22807136.932    22807142.952
  24099694.129    -1235564.13149   -941140.33849  24099691.9364   24099699.0214
 95 12  4 17  3 30.0000000  0  7 25 23 21  1 31 28 15
  23585808.922    -1366944.73649  -1040452.17849  23585806.2664   23585813.1054
  23445814.383       31359.26949     22253.83849  23445811.5474   23445818.4084
  21004900.325     -336701.37949   -170979.02249  21004897.2094   21004903.1074
  20212057.531     -374055.98349   -284777.55249  20212055.6364   20212061.5014
  22713398.188     -239730.86149   -182651.43749  22713396.7924   22713402.4094
  22811351.936      217512.659 9    164421.825 9  22811350.363    22811356.247
  24068329.600    -1400397.60249  -1069581.97249  24068324.4564   24068331.3784
 95 12  4 17  4  0.0000000  0  7 25 23 21  1 31 28 15
  23555833.864    -1524443.87349  -1163178.61249  23555834.7544   23555841.3974
  23445796.868       31273.82149     22187.16849  23445795.2614   23445801.7244
  20997084.683     -377771.44149   -202981.67949  20997081.9124   20997087.9854
  20203713.620     -417897.78849   -318939.99949  20203712.8034   20203718.5594
  22707958.875     -268307.59849   -204919.06549  22707957.8414   22707963.4444
  22815471.161      239176.796 9    181302.924 9  22815471.924    22815479.232
  24036834.276    -1565896.59049  -1198542.19049  24036831.7514   24036839.9444
 95 12  4 17  4 30.0000000  0  7 25 23 21  1 31 28 15
  23525728.173    -1682672.12349  -1286473.20449  23525724.9284   23525731.8484
  23445643.494       30465.20349     21557.01649  23445640.5164   23445648.4284
  20989156.036     -419427.50949   -235440.96349  20989154.9174   20989161.2654
  20195304.194     -462093.75949   -353378.41749  20195302.4664   20195308.6074
  22702459.013     -297215.55249   -227444.76949  22702458.0304   22702462.6014
  22819494.285      260311.986 9    197771.842 9  22819493.788    22819501.387
  24005206.660    -1732108.88649  -1328058.23549  24005202.1124   24005210.5744
 95 12  4 17  5  0.0000000  0  7 25 23 21  1 31 28 15
  23495483.686    -1841593.71549  -1410308.07749  23495482.9004   23495489.2134
  23445361.938       28979.50449     20399.27349  23445358.7134   23445365.5284
  20981125.368     -461638.52049   -268332.66649  20981122.5734   20981128.2104
  20186829.627     -506627.41149   -388079.95949  20186827.9454   20186834.0964
  22696904.932     -326400.34949   -250186.21149  22696903.3274   22696907.5724
  22823421.896      280941.143 9    213846.449 9  22823419.460    22823426.668
  23973446.469    -1899006.28249  -1458108.10049  23973442.8974   23973451.3414
 95 12  4 17  5 30.0000000  0  7 25 23 21  1 31 28 15
  23465115.318    -2001174.35049  -1534656.49949  23465115.8864   23465122.9354
  23444951.898       26847.35549     18737.81449  23444950.5104   23444959.5954
  20972994.252     -504365.57949   -301626.48249  20972991.6564   20972998.3634
  20178293.952     -551475.02149   -423026.14049  20178293.5574   20178299.8864
  22691300.206     -355851.55749   -273135.24249  22691298.3764   22691305.0804
  22827251.336      301074.882 9    229535.021 9  22827251.332    22827257.948
  23941558.478    -2066572.22249  -1588678.95249  23941557.3574   23941563.5034
 95 12  4 17  6  0.0000000  0  7 25 23 21  1 31 28 15
  23434627.947    -2161395.72849  -1659504.22749  23434626.7664   23434634.2804
  23444428.796       24090.81949     16589.80749  23444428.1144   23444436.1114
  20964767.069     -547590.05549   -335307.89249  20964766.5194   20964772.8384
  20169705.738     -596616.82849   -458201.57249  20169703.8444   20169709.6954
  22685648.397     -385553.47449   -296279.61749  22685646.7364   22685652.6944
  22830993.856      320722.901 9    244845.108 9  22830990.605    22830997.335
  23909549.137    -2234791.41549  -1719758.80949  23909545.6394   23909551.6624
 95 12  4 17  6 30.0000000  0  7 25 23 21  1 31 28 15
  23404018.957    -2322245.95949  -1784841.95249  23404017.0354   23404024.2774
  23443786.364       20725.22649     13967.22349  23443787.0484   23443795.7854
  20956446.101     -591319.51749   -369382.80449  20956445.2654   20956451.2864
  20161061.960     -642041.64949   -493597.53449  20161059.8584   20161065.7704
  22679952.235     -415483.62149   -319601.85549  22679952.0634   22679956.9894
  22834639.195      339891.634 9    259781.731 9  22834638.720    22834645.176
  23877413.465    -2403652.03949  -1851338.48049  23877412.4264   23877419.1104
 95 12  4 17  7  0.0000000  0  7 25 23 21  1 31 28 15
  23373295.576    -2483708.64949  -1910656.93349  23373291.7174   23373299.6434
  23443034.119       16756.29849     10874.50049  23443032.6314   23443039.9404
  20948028.570     -635559.57449   -403855.58949  20948026.8504   20948032.4874
  20152364.830     -687741.64649   -529207.92249  20152363.1824   20152369.3844
  22674215.167     -445637.24849   -343098.20649  22674213.2304   22674218.9574
  22838198.588      358584.966 9    274347.907 9  22838195.549    22838202.260
  23845155.964    -2573144.33149  -1983410.35749  23845158.2094   23845164.7844
 95 12  4 17  7 30.0000000  0  7 25 23 21  1 31 28 15
  23342449.639    -2645780.97049  -2036946.94849  23342451.4854   23342456.9714
  23442160.519       12166.75449      7298.17249  23442159.5564   23442167.8904
  20939511.655     -680315.73549   -438730.52849  20939509.5074   20939515.3894
  20143616.079     -733719.50549   -565034.83149  20143614.4954   20143620.0864
  22668429.380     -476037.74049   -366786.93649  22668427.9854   22668434.4064
  22841664.447      376810.671 9    288549.697 9  22841664.302    22841670.740
  23812787.222    -2743255.38949  -2115964.43349  23812787.6584   23812794.1684
 95 12  4 17  8  0.0000000  0  7 25 23 21  1 31 28 15
  23311499.443    -2808442.87149  -2163696.41649  23311496.8054   23311503.7094
  23441168.272        6958.28349      3239.57749  23441167.9754   23441175.4774
  20930895.180     -725597.46749   -474015.01049  20930892.9834   20930898.6664
  20134816.484     -779960.35349   -601066.65949  20134814.7914   20134820.7104
  22662598.869     -506668.30249   -390654.93049  22662599.0314   22662605.2624
  22845047.474      394578.581 9    302394.762 9  22845045.162    22845052.056
  23780304.227    -2913969.64049  -2248988.49349  23780302.2144   23780307.9604
 95 12  4 17  8 29.9990000  0  7 25 23 21  1 31 28 15
  23280434.878    -2971669.47849  -2290885.88549  23280435.5134   23280442.1344
  23440061.453        1137.11849     -1296.47449  23440061.1784   23440067.5324
  20922180.029     -771387.33249   -509695.43449  20922179.3814   20922185.4184
  20125967.796     -826452.97349   -637294.67949  20125967.1474   20125973.4714
  22656728.145     -537522.77449   -414697.41249  22656727.0034   22656733.5714
  22848342.608      411895.833 9    315888.655 9  22848340.817    22848347.457
  23747703.961    -3085267.82049  -2382467.56249  23747704.2334   23747711.1024
 95 12  4 17  8 59.9990000  0  7 25 23 21  1 31 28 15
  23249267.578    -3135468.48349  -2418521.41649  23249266.3624   23249273.0584
  23438838.061       -5293.39249     -6307.30449  23438836.9714   23438844.3444
  20913375.677     -817662.55049   -545754.06149  20913373.2094   20913379.6374
  20117074.851     -873194.56249   -673716.70549  20117072.8214   20117079.0804
  22650815.889     -568595.98449   -438910.35249  22650815.4604   22650820.0794
  22851550.787      428768.633 9    329036.245 9  22851551.179    22851558.615
  23714998.781    -3257150.98549  -2516402.46549  23714995.8384   23715003.9844
 95 12  4 17  9 29.9990000  0  7 25 23 21  1 31 28 15
  23217988.740    -3299831.85349  -2546596.68649  23217988.6074   23217994.8544
  23437503.982      -12317.14249    -11780.39549  23437500.0994   23437508.4204
  20904479.630     -864409.01449   -582179.89749  20904477.7214   20904484.0534
  20108134.142     -920169.32549   -710320.41949  20108133.6894   20108140.0444
  22644866.638     -599867.32949   -463277.67249  22644864.4644   22644869.8254
  22854681.013      445201.147 9    341840.746 9  22854678.710    22854685.905
  23682180.777    -3429603.02449  -2650780.64149  23682179.7144   23682187.4564
 95 12  4 17  9 59.9990000  0  7 25 23 21  1 31 28 15
  23186603.836    -3464770.61349  -2675120.31649  23186602.1564   23186608.3624
  23436056.001      -19919.13349    -17704.06949  23436053.2784   23436062.0184
  20895492.931     -911631.48149   -618976.64049  20895491.6574   20895497.9104
  20099150.467     -967377.39049   -747105.93149  20099150.4674   20099156.9664
  22638879.599     -631327.87349   -487792.42549  22638877.1344   22638883.6614
  22857720.180      461179.893 9    354291.654 9  22857719.727    22857726.921
  23649257.003    -3602631.70049  -2785608.13349  23649253.8324   23649259.5254
 95 12  4 17 10 29.9990000  0  7 25 23 21  1 31 28 15
  23155095.645    -3630357.04549  -2804148.65149  23155091.9924   23155098.2544
  23434488.592      -28154.22449    -24121.07049  23434486.6684   23434494.7094
  20886405.369     -959382.39949   -656185.16249  20886405.3344   20886411.5474
  20090110.277    -1014892.41949   -784130.63649  20090108.5924   20090114.9874
  22632842.653     -663040.23649   -512503.40149  22632842.6474   22632849.6794
  22860663.962      476644.751 9    366342.126 9  22860662.337    22860669.495
  23616210.514    -3776291.39449  -2920927.36949  23616206.6834   23616212.8014
 95 12  4 17 10 59.9990000  0  7 25 23 21  1 31 28 15
  23123459.044    -3796590.04749  -2933680.80849  23123458.9544   23123465.5694
  23432797.175      -37044.40049    -31048.52649  23432795.4804   23432803.8064
  20877213.009    -1007692.04749   -693829.05749  20877211.9104   20877218.3284
  20081003.156    -1062740.21749   -821414.64349  20081003.3774   20081009.7484
  22626756.346     -695024.44349   -537426.18449  22626756.0074   22626763.4334
  22863505.376      491575.225 9    377976.194 9  22863503.413    22863510.549
  23583041.084    -3950596.92849  -3056749.83949  23583038.1914   23583045.5974
 95 12  4 17 11 29.9990000  0  7 25 23 21  1 31 28 15
  23091717.151    -3963395.02049  -3063658.67949  23091716.5024   23091722.7924
  23430991.193      -46544.84149    -38451.51649  23430986.6114   23430995.3324
  20867921.317    -1056511.54249   -731870.23249  20867921.8734   20867928.4154
  20071847.173    -1110861.84349   -858912.02449  20071846.3744   20071852.6434
  22620625.897     -727232.02249   -562523.04449  22620627.4404   22620633.8744
  22866253.630      506022.279 9    389233.565 9  22866252.633    22866259.337
  23549757.475    -4125491.75649  -3193031.54249  23549756.6414   23549763.4734
 95 12  4 17 11 59.9990000  0  7 25 23 21  1 31 28 15
  23059872.967    -4130731.96449  -3194051.06749  23059872.4194   23059879.8884
  23429063.320      -56647.00349    -46323.38349  23429065.2114   23429072.0914
  20858543.389    -1105802.48249   -770278.77249  20858541.9664   20858548.5804
  20062641.844    -1159235.36449   -896605.68149  20062641.1544   20062647.1464
  22614461.499     -759652.34049   -587785.66749  22614459.1844   22614464.5404
  22868915.032      520005.320 9    400129.369 9  22868913.153    22868920.247
  23516370.418    -4300950.45249  -3329752.55549  23516367.9954   23516375.4234
 95 12  4 17 12 29.9990000  0  7 25 23 21  1 31 28 15
  23027937.907    -4298561.85749  -3324827.59049  23027935.6494   23027944.2414
  23427032.931      -67338.44749    -54654.43549  23427030.2994   23427038.3384
  20849080.549    -1155533.00949   -809029.86049  20849078.9204   20849085.4584
  20053392.735    -1207838.00249   -934477.86849  20053392.3054   20053398.8254
  22608253.813     -792275.92149   -613206.69549  22608251.0264   22608256.5024
  22871489.569      533547.502 9    410681.634 9  22871490.563    22871496.567
  23482879.525    -4476944.66649  -3466890.89049  23482877.8724   23482884.5424
 95 12  4 17 12 59.9990000  0  7 25 23 21  1 31 28 15
  22995917.936    -4466839.65149  -3455953.11549  22995913.8024   22995921.2944
  23424893.523      -78578.32549    -63412.82749  23424890.8124   23424898.6164
  20839541.590    -1205659.43749   -848089.42249  20839540.1574   20839546.6344
  20044109.685    -1256619.30549   -972489.27449  20044109.5474   20044115.8554
  22602012.809     -825066.11649   -638757.51449  22602011.4274   22602017.5844
  22873992.703      546683.284 9    420917.236 9  22873990.391    22873996.394
  23449291.202    -4653434.29849  -3604415.27149  23449292.1984   23449299.6024
 95 12  4 17 13 29.9990000  0  7 25 23 21  1 31 28 15
  22963804.322    -4635559.81849  -3587423.32249  22963807.0214   22963814.3984
  23422657.685      -90326.57549    -72567.34049  23422655.5674   23422663.1554
  20829933.040    -1256141.41749   -887426.04949  20829933.7754   20829940.5454
  20034798.373    -1305545.80849  -1010613.81949  20034799.0664   20034805.2464
  22595743.693     -857998.57949   -664419.21549  22595744.1984   22595750.1804
  22876419.064      559436.071 9    430854.398 9  22876416.996    22876423.410
  23415621.715    -4830390.03649  -3742302.85549  23415619.1144   23415625.6594
 95 12  4 17 13 59.9990000  0  7 25 23 21  1 31 28 15
  22931602.376    -4804809.08849  -3719305.83749  22931600.0564   22931606.6124
  23420311.505     -102642.48149    -82164.19749  23420311.7544   23420321.3454
  20820246.754    -1307054.90849   -927098.91749  20820245.4254   20820251.7244
  20025445.358    -1354701.71549  -1048917.12049  20025445.0784   20025451.1114
  22589436.041     -891148.53949   -690250.39349  22589435.5524   22589441.6874
  22878757.419      571730.505 9    440434.378 9  22878756.481    22878763.077
  23381845.722    -5007881.24649  -3880607.65849  23381844.7394   23381849.3044
 95 12  4 17 14 29.9990000  0  7 25 23 21  1 31 28 15
  22899294.473    -4974569.91149  -3851586.96849  22899295.7034   22899301.7834
  23417865.669     -115494.35149    -92178.68949  23417865.6304   23417876.2444
  20810478.277    -1358389.13449   -967099.63549  20810476.8464   20810483.5074
  20016051.177    -1404069.01949  -1087385.15249  20016050.8314   20016057.1344
  22583093.769     -924486.08149   -716227.74849  22583091.4034   22583098.2874
  22881013.245      583588.251 9    449674.119 9  22881012.973    22881019.544
  23347971.161    -5185880.87249  -4019308.66949  23347969.7944   23347978.4064
 95 12  4 17 14 59.9990000  0  7 25 23 21  1 31 28 15
  22866902.557    -5144798.84949  -3984232.83349  22866901.8174   22866910.1104
  23415327.757     -128840.30249   -102578.17749  23415327.1234   23415336.4824
  20800634.533    -1410106.52749  -1007398.91249  20800635.6264   20800642.0014
  20006627.651    -1453598.59749  -1125979.63049  20006626.2924   20006631.8934
  22576723.344     -957952.40749   -742305.43149  22576722.6624   22576729.5984
  22883195.083      595051.302 9    458606.281 9  22883194.842    22883201.513
  23314011.252    -5364341.18949  -4158368.65849  23314012.9094   23314018.0654
 95 12  4 17 15 29.9990000  0  7 25 23 21  1 31 28 15
  22834424.359    -5315471.51349  -4117224.46349  22834425.0364   22834430.8384
  23412697.688     -142667.30149   -113352.50149  23412694.6004   23412705.0944
  20790724.474    -1462190.88349  -1047984.13949  20790724.0684   20790730.7074
  19997172.586    -1503279.59849  -1164692.08649  19997171.9284   19997178.1354
  22570334.141     -991535.06249   -768473.76049  22570332.7804   22570337.8194
  22885303.463      606135.431 9    467243.178 9  22885303.884    22885311.370
  23279967.661    -5543240.49949  -4297770.70249  23279968.7594   23279975.5744
 95 12  4 17 15 59.9990000  0  7 25 23 21  1 31 28 15
  22801867.129    -5486553.45749  -4250534.97049  22801867.6514   22801875.1334
  23409974.642     -156961.32049   -124490.74049  23409974.8714   23409983.3564
  20780748.279    -1514618.34049  -1088836.71249  20780747.2924   20780754.2244
  19987694.178    -1553093.61049  -1203508.20449  19987692.7874   19987698.6974
  22563929.182    -1025201.33549   -794707.24549  22563927.4334   22563933.3794
  22887345.563      616865.823 9    475604.405 9  22887346.254    22887353.060
  23245850.110    -5722548.10549  -4437490.89749  23245846.7704   23245853.3094
 95 12  4 17 16 29.9990000  0  7 25 23 21  1 31 28 15
  22769240.839    -5658010.92349  -4384138.12049  22769241.0684   22769247.1634
  23407169.722     -171694.68049   -135971.32149  23407171.9934   23407180.6214
  20770710.922    -1567366.91949  -1129939.51249  20770709.7754   20770715.9644
  19978194.598    -1603011.67349  -1242405.39249  19978193.1254   19978199.8444
  22557509.619    -1058924.95149   -820985.43249  22557508.8904   22557514.9204
  22889325.220      627262.343 9    483705.485 9  22889324.591    22889331.546
  23211651.504    -5902238.08149  -4577509.02749  23211652.8924   23211660.1804
 95 12  4 17 16 59.9990000  0  7 25 23 21  1 31 28 15
  22736547.814    -5829827.00549  -4518020.71349  22736545.4074   22736551.5044
  23404292.885     -186846.81549   -147778.23649  23404289.3874   23404296.3414
  20760618.102    -1620416.15849  -1171276.59949  20760615.6904   20760621.4504
  19968675.470    -1653029.17149  -1281380.06749  19968675.2634   19968681.6914
  22551082.261    -1092702.58649   -847305.67949  22551081.2014   22551087.3964
  22891241.308      637334.823 9    491554.077 9  22891241.665    22891248.201
  23177389.694    -6082294.95549  -4717813.06949  23177390.8784   23177396.5694
 95 12  4 17 17 29.9990000  0  7 25 23 21  1 31 28 15
  22703787.204    -6001982.12349  -4652167.50649  22703786.2484   22703792.4904
  23401335.541     -202391.78849   -159891.23849  23401330.4194   23401339.9724
  20750469.123    -1673739.57949  -1212827.32349  20750467.8264   20750474.6724
  19959139.123    -1703144.56949  -1320431.02949  19959138.8244   19959145.1784
  22544645.304    -1126535.41949   -873668.95649  22544643.3874   22544650.0824
  22893099.915      647097.363 9    499161.175 9  22893099.513    22893105.551
  23143059.448    -6262699.28449  -4858387.84449  23143059.2034   23143067.0184
 95 12  4 17 17 59.9990000  0  7 25 23 21  1 31 28 15
  22670967.465    -6174466.20749  -4786570.59549  22670963.6654   22670969.6934
  23398300.299     -218312.06249   -172296.70449  23398302.5654   23398309.1194
  20740270.203    -1727325.75549  -1254582.78949  20740270.7234   20740277.6374
  19949585.047    -1753347.13949  -1359549.91349  19949585.4374   19949591.8664
  22538198.603    -1160410.06849   -900064.82949  22538197.0534   22538204.4604
  22894899.816      656554.068 9    506529.970 9  22894899.209    22894904.969
  23108666.039    -6443440.87349  -4999225.41949  23108665.6204   23108672.5314
 95 12  4 17 18 29.9990000  0  7 25 23 21  1 31 28 15
  22638085.235    -6347244.09549  -4921202.63049  22638085.0444   22638091.3584
  23395211.556     -234567.40949   -184963.25049  23395208.9904   23395215.3144
  20730029.815    -1781144.05349  -1296519.12749  20730029.3354   20730035.4824
  19940022.638    -1803607.05849  -1398713.49549  19940021.3944   19940027.8014
  22531744.962    -1194313.77949   -926483.31649  22531745.4124   22531752.1654
  22896645.138      665724.653 9    513675.824 9  22896644.032    22896650.548
  23074208.742    -6624494.07849  -5140305.82349  23074212.0724   23074219.3454
 95 12  4 17 18 59.9980000  0  7 25 23 21  1 31 28 15
  22605156.346    -6520286.12249  -5056040.49349  22605156.3464   22605162.5504
  23392056.152     -251140.76049   -197877.57949  23392053.0864   23392061.6544
  20719751.297    -1835154.73849  -1338605.38049  20719751.9474   20719757.9964
  19930449.294    -1853909.83549  -1437910.46849  19930449.5484   19930455.4294
  22525294.026    -1228233.32249   -952914.17649  22525292.2114   22525298.1254
  22898337.482      674630.993 9    520615.771 9  22898338.296    22898346.398
  23039706.753    -6805824.84949  -5281602.50949  23039705.4524   23039712.7354
 95 12  4 17 19 29.9980000  0  7 25 23 21  1 31 28 15
  22572178.363    -6693588.92149  -5191081.56849  22572177.8004   22572183.7514
  23388842.276     -268026.91149   -211035.67249  23388840.1844   23388849.2804
  20709438.337    -1889354.70149  -1380839.11749  20709437.7574   20709444.0564
  19920873.274    -1904230.68449  -1477121.52549  19920873.2384   19920879.6304
  22518835.136    -1262161.25749   -979351.55949  22518834.3744   22518840.5574
  22899983.476      683279.950 9    527355.132 9  22899984.283    22899992.234
  23005147.708    -6987433.46849  -5423115.67749  23005146.8694   23005153.4524
 95 12  4 17 19 59.9980000  0  7 25 23 21  1 31 28 15
  22539159.249    -6867112.53549  -5326294.72649  22539157.3024   22539163.5784
  23385572.716     -285209.22449   -224424.55549  23385570.6074   23385579.5604
  20699090.169    -1943730.41849  -1423209.79849  20699090.7404   20699096.7724
  19911301.386    -1954537.53549  -1516321.67749  19911300.6914   19911306.2864
  22512380.921    -1296072.92949  -1005776.27249  22512380.5284   22512389.0174
  22901586.174      691688.129 9    533906.889 9  22901584.440    22901592.329
  22970540.046    -7169291.12549  -5564822.91049  22970539.3194   22970547.0134
 95 12  4 17 20 29.9980000  0  7 25 23 21  1 31 28 15
  22506101.650    -7040829.71249  -5461658.68749  22506100.0904   22506105.4774
  23382246.748     -302681.21749   -238039.17149  23382245.7864   23382255.0794
  20688713.162    -1998268.12149  -1465706.69749  20688712.1964   20688718.5504
  19901731.438    -2004822.28749  -1555504.60349  19901731.5244   19901737.5964
  22505933.844    -1329961.55149  -1032183.03149  22505933.2454   22505939.1324
  22903143.483      699870.019 9    540282.319 9  22903141.737    22903149.710
  22935890.277    -7351377.43549  -5706708.31149  22935891.0864   22935897.6554
 95 12  4 17 20 59.9980000  0  7 25 23 21  1 31 28 15
  22473008.932    -7214720.67649  -5597158.06549  22473008.7714   22473015.0874
  23378867.059     -320444.10849   -251880.40849  23378866.3894   23378875.9604
  20678305.092    -2052956.85649  -1508321.29249  20678305.1724   20678311.3744
  19892169.542    -2055074.63749  -1594662.28649  19892168.8914   19892174.9424
  22499493.653    -1363808.20149  -1058557.07649  22499492.8484   22499499.4604
  22904659.634      707842.414 9    546494.507 9  22904658.657    22904666.354
  22901203.441    -7533669.92449  -5848754.38749  22901200.9894   22901208.5734
 95 12  4 17 21 29.9980000  0  7 25 23 21  1 31 28 15
  22439888.237    -7388761.82949  -5732774.48649  22439890.4074   22439895.9914
  23375434.924     -338479.52449   -265934.04749  23375436.3844   23375442.6594
  20667871.804    -2107790.89749  -1551049.11849  20667870.7674   20667877.1804
  19882616.855    -2105274.89649  -1633779.37849  19882616.3394   19882622.0424
  22493065.685    -1397597.39749  -1084886.36549  22493062.8054   22493069.1014
  22906137.744      715615.196 9    552551.167 9  22906137.999    22906145.597
  22866475.542    -7716153.14449  -5990949.07749  22866475.0084   22866483.2594
 95 12  4 17 21 59.9980000  0  7 25 23 21  1 31 28 15
  22406746.120    -7562933.91049  -5868492.95649  22406745.7354   22406752.6184
  23371959.242     -356761.14249   -280179.50849  23371956.2714   23371965.0744
  20657414.991    -2162744.65449  -1593870.22549  20657413.7134   20657419.6994
  19873071.453    -2155431.95149  -1672862.79349  19873071.3944   19873077.9914
  22486650.901    -1431295.55949  -1111144.72549  22486649.9024   22486656.2104
  22907585.212      723208.032 9    558467.601 9  22907583.125    22907590.034
  22831718.386    -7898801.21749  -6133272.23549  22831718.8604   22831726.0414
 95 12  4 17 22 29.9980000  0  7 25 23 21  1 31 28 15
  22373578.399    -7737231.20849  -6004308.98049  22373578.8504   22373584.7794
  23368434.492     -375264.90549   -294598.10149  23368434.5494   23368443.5204
  20646938.243    -2217793.06749  -1636765.09449  20646938.0254   20646944.4394
  19863537.411    -2205537.03649  -1711905.72249  19863536.6014   19863542.9994
  22480258.448    -1464880.62549  -1137314.94049  22480259.5264   22480264.9794
  22908994.419      730637.012 9    564256.368 9  22908996.416    22909003.978
  22796932.841    -8081592.21649  -6275706.76449  22796934.3874   22796941.8154
 95 12  4 17 22 59.9980000  0  7 25 23 21  1 31 28 15
  22340384.415    -7911649.41749  -6140219.21949  22340387.7754   22340394.4094
  23364879.497     -393962.18249   -309167.46249  23364877.4724   23364886.0194
  20636446.819    -2272921.53549  -1679722.34349  20636447.5544   20636453.3454
  19854016.312    -2255570.09449  -1750892.51649  19854015.9424   19854022.3154
  22473893.504    -1498334.85049  -1163383.22149  22473892.3974   22473899.2054
  22910378.813      737913.732 9    569926.492 9  22910381.178    22910389.488
  22762124.877    -8264508.84349  -6418239.17249  22762126.2884   22762133.5954
 95 12  4 17 23 29.9980000  0  7 25 23 21  1 31 28 15
  22307178.101    -8086168.09049  -6276207.74049  22307176.7324   22307184.3074
  23361287.143     -412832.20449   -323871.42749  23361285.8094   23361295.4464
  20625945.105    -2328111.18049  -1722727.26149  20625945.0164   20625951.1764
  19844512.019    -2305515.59349  -1789811.08349  19844511.7404   19844518.1694
  22467552.963    -1531641.99649  -1189336.88649  22467553.1074   22467560.7994
  22911739.442      745048.761 9    575486.184 9  22911739.212    22911747.415
  22727299.058    -8447534.43349  -6560856.50949  22727298.5314   22727305.5924
 95 12  4 17 23 59.9980000  0  7 25 23 21  1 31 28 15
  22273953.493    -8260770.39349  -6412261.43149  22273950.9284   22273958.6174
  23357666.200     -431864.60449   -338701.89449  23357663.1384   23357673.2324
  20615435.158    -2383344.22749  -1765766.00949  20615434.7154   20615440.3904
  19835028.844    -2355353.93249  -1828646.15049  19835028.0214   19835034.2494
  22461249.550    -1564781.74749  -1215160.11049  22461247.9824   22461255.7654
  22913072.343      752057.546 9    580947.495 9  22913073.181    22913081.064
  22692452.069    -8630647.93549  -6703542.33149  22692453.4524   22692460.5714
 95 12  4 17 24 29.9980000  0  7 25 23 21  1 31 28 15
  22240717.534    -8435424.52049  -6548355.50349  22240716.3274   22240722.8334
  23354017.735     -451040.76149   -353644.39449  23354013.5674   23354023.8794
  20604919.611    -2438606.86849  -1808827.81649  20604918.6124   20604924.6774
  19825571.449    -2405040.17849  -1867362.69849  19825572.6594   19825578.7114
  22454973.223    -1597757.59449  -1240855.64349  22454974.4294   22454979.3884
  22914386.913      758956.971 9    586323.597 9  22914386.093    22914393.835
  22657597.375    -8813826.12749  -6846278.55949  22657595.1834   22657603.0864
 95 12  4 17 24 59.9980000  0  7 25 23 21  1 31 28 15
  22207471.088    -8610105.32849  -6684470.37949  22207475.5204   22207481.1064
  23350334.610     -470356.47249   -368695.63849  23350339.0804   23350346.9844
  20594396.905    -2493894.07949  -1851908.77049  20594397.4194   20594404.3184
  19816150.555    -2454561.76849  -1905950.95049  19816148.9364   19816155.1174
  22448729.407    -1630572.20449  -1266425.50849  22448729.0454   22448734.5464
  22915681.127      765754.387 9    591620.204 9  22915680.513    22915688.148
  22622726.096    -8997056.28849  -6989055.29849  22622728.9144   22622735.7274
 95 12  4 17 25 29.9980000  0  7 25 23 21  1 31 28 15
  22174230.955    -8784796.93549  -6820593.65149  22174233.5734   22174239.2474
  23346639.449     -489807.10649   -383852.03849  23346637.9224   23346644.8574
  20583873.378    -2549201.10049  -1895005.15749  20583873.2064   20583879.9424
  19806758.585    -2503907.90649  -1944402.47749  19806758.4494   19806765.1764
  22442515.470    -1663222.32449  -1291867.20449  22442516.3654   22442522.9834
  22916954.001      772453.137 9    596839.922 9  22916955.632    22916962.730
  22587854.962    -9180329.32749  -7131865.44249  22587853.3854   22587858.7604
 95 12  4 17 25 59.9980000  0  7 25 23 21  1 31 28 15
  22140990.953    -8959486.12649  -6956715.04149  22140991.2424   22140996.8634
  23342914.425     -509359.74049   -399087.89449  23342917.7294   23342926.3494
  20573347.678    -2604518.34049  -1938109.50849  20573346.9324   20573353.5594
  19797405.519    -2553051.10649  -1982695.87449  19797407.0574   19797413.4374
  22436335.059    -1695700.84249  -1317175.18049  22436334.9664   22436342.0684
  22918211.762      779070.058 9    601995.890 9  22918214.172    22918221.945
  22552972.955    -9363622.44549  -7274691.22749  22552974.4424   22552979.2214
 95 12  4 17 26 29.9980000  0  7 25 23 21  1 31 28 15
  22107748.945    -9134168.13849  -7092830.82849  22107750.0564   22107756.1634
  23339182.552     -528999.48349   -414391.63349  23339180.0824   23339187.8564
  20562819.019    -2659836.70649  -1981214.73549  20562819.8334   20562826.7754
  19788095.936    -2601985.48449  -2020826.56349  19788095.6214   19788101.9464
  22430186.348    -1728012.73849  -1342353.31249  22430186.0944   22430193.3424
  22919459.235      785610.279 9    607092.078 9  22919458.821    22919466.739
  22518091.820    -9546924.60449  -7417524.05149  22518091.8824   22518098.0934
 95 12  4 17 26 59.9980000  0  7 25 23 21  1 31 28 15
  22074511.269    -9308832.20149  -7228932.66249  22074512.3804   22074519.1454
  23335427.425     -548714.84649   -429754.32049  23335427.5924   23335436.2834
  20552297.494    -2715131.18349  -2024301.35649  20552297.7444   20552304.7094
  19778823.031    -2650713.49949  -2058796.44449  19778823.0334   19778829.2524
  22424073.823    -1760134.77549  -1367383.51949  22424074.2594   22424082.2844
  22920691.708      792080.212 9    612133.464 9  22920689.616    22920698.028
  22483208.649    -9730223.59549  -7560354.41849  22483211.6414   22483218.0434
 95 12  4 17 27 29.9980000  0  7 25 23 21  1 31 28 15
  22041280.146    -9483465.22549  -7365010.30849  22041280.4484   22041287.3024
  23331665.797     -568491.12649   -445164.48249  23331665.3164   23331673.3464
  20541786.790    -2770372.34549  -2067346.43149  20541785.8324   20541792.0684
  19769591.956    -2699226.83649  -2096599.05249  19769591.0004   19769597.3314
  22418003.048    -1792043.37049  -1392247.40749  22418002.3524   22418009.0454
  22921910.756      798487.181 9    617125.811 9  22921909.406    22921917.174
  22448337.150    -9913506.25549  -7703172.06649  22448334.2404   22448340.8084
 95 12  4 17 27 59.9980000  0  7 25 23 21  1 31 28 15
  22008055.591    -9658055.39549  -7501054.57549  22008057.7424   22008063.2744
  23327892.952     -588328.54749   -460622.29049  23327889.7174   23327898.5724
  20531290.032    -2825532.66149  -2110328.50849  20531289.3034   20531295.4604
  19760398.279    -2747537.59249  -2134243.80349  19760398.0014   19760404.0844
  22411973.409    -1823734.01249  -1416941.46149  22411972.1784   22411977.4724
  22923121.761      804835.847 9    622072.721 9  22923117.077    22923125.026
  22413460.557   -10096762.00049  -7845968.72049  22413461.6024   22413467.4964
 95 12  4 17 28 29.9970000  0  7 25 23 21  1 31 28 15
  21974850.053    -9832567.81449  -7637038.26449  21974848.5924   21974856.6904
  23324106.844     -608215.20349   -476118.46549  23324105.2964   23324114.9084
  20520813.083    -2880581.02849  -2153223.35149  20520813.5544   20520820.3774
  19751244.021    -2795642.67649  -2171728.29149  19751243.5724   19751250.1214
  22405986.191    -1855180.91749  -1441445.58249  22405986.7364   22405993.2434
  22924317.853      811139.958 9    626984.931 9  22924316.572    22924324.198
  22378598.096   -10279964.87749  -7988724.19849  22378599.4214   22378605.1904
 95 12  4 17 28 59.9970000  0  7 25 23 21  1 31 28 15
  21941655.254   -10007000.39749  -7772959.74649  21941655.9604   21941661.5164
  23320308.139     -628155.66749   -491656.54349  23320310.8294   23320320.6344
  20510361.729    -2935515.09649  -2196029.13349  20510360.3374   20510366.8774
  19742127.835    -2843544.72349  -2209054.56749  19742127.8664   19742134.3254
  22400051.083    -1886375.49449  -1465753.06549  22400050.7404   22400057.5594
  22925505.196      817398.005 9    631861.270 9  22925507.159    22925515.516
  22343744.266   -10463123.04749  -8131444.83249  22343744.4574   22343751.6494
 95 12  4 17 29 29.9970000  0  7 25 23 21  1 31 28 15
  21908478.690   -10181337.50749  -7908806.84049  21908480.8864   21908486.6894
  23316510.417     -648138.75549   -507227.86649  23316508.1384   23316516.8534
  20499929.609    -2990337.10649  -2238747.59549  20499928.3004   20499934.7484
  19733052.215    -2891236.88949  -2246217.30049  19733052.4154   19733059.1334
  22394163.275    -1917312.71149  -1489860.02249  22394164.1904   22394171.5834
  22926692.419      823620.457 9    636709.865 9  22926691.833    22926700.554
  22308905.413   -10646214.14749  -8274113.21449  22308905.2204   22308910.1114
 95 12  4 17 29 59.9970000  0  7 25 23 21  1 31 28 15
  21875323.749   -10355583.07049  -8044582.57349  21875322.5714   21875329.7204
  23312698.490     -668154.97949   -522824.98149  23312700.1144   23312709.9014
  20489510.880    -3045074.95749  -2281400.47849  20489511.6164   20489518.3184
  19724014.828    -2938724.11249  -2283220.33849  19724015.8834   19724022.4224
  22388325.407    -1948004.39849  -1513775.64649  22388324.1944   22388330.9534
  22927868.874      829807.888 9    641531.147 9  22927868.701    22927878.235
  22274076.985   -10829231.68149  -8416724.25949  22274078.1344   22274083.3244
 95 12  4 17 30 29.9970000  0  7 25 23 21  1 31 28 15
  21842184.062   -10529730.90849  -8180282.17749  21842182.9084   21842191.0174
  23308887.768     -688203.86749   -538447.57349  23308885.1554   23308893.0684
  20479107.419    -3099752.83449  -2324006.62549  20479106.9854   20479113.4404
  19715020.319    -2986000.61649  -2320059.17849  19715019.7204   19715026.5044
  22382528.723    -1978449.95449  -1537499.48249  22382530.7414   22382537.0214
  22929038.242      835957.931 9    646323.299 9  22929038.951    22929048.262
  22239266.363   -11012172.01949  -8559275.17049  22239265.6274   22239271.2764
 95 12  4 17 30 59.9970000  0  7 25 23 21  1 31 28 15
  21809065.850   -10703768.82749  -8315896.13949  21809065.2884   21809071.6664
  23305065.570     -708275.17149   -554087.62549  23305065.9404   23305075.0334
  20468716.958    -3154348.10549  -2366548.40449  20468718.0464   20468724.6054
  19706067.500    -3033043.33249  -2356715.84249  19706067.8244   19706074.2724
  22376787.616    -2008629.92749  -1561016.38749  22376787.8264   22376793.6774
  22930205.302      842085.550 9    651097.974 9  22930205.937    22930214.215
  22204470.172   -11195014.11649  -8701749.50649  22204471.3914   22204477.1644
 95 12  4 17 31 29.9970000  0  7 25 23 21  1 31 28 15
  21775964.399   -10877704.97349  -8451430.78149  21775964.7734   21775973.1454
  23301245.066     -728367.74749   -569744.28749  23301242.1624   23301251.0954
  20458342.890    -3208872.78549  -2409035.17849  20458342.4984   20458348.9654
  19697157.665    -3079863.93049  -2393199.43149  19697158.6204   19697164.5144
  22371091.355    -2038561.48349  -1584339.71149  22371092.1324   22371098.5924
  22931366.020      848186.424 9    655851.820 9  22931367.586    22931376.000
  22169694.241   -11377756.53249  -8844146.17949  22169696.0484   22169702.2974
 95 12  4 17 31 59.9970000  0  7 25 23 21  1 31 28 15
  21742888.592   -11051524.29249  -8586874.40649  21742888.8284   21742896.7164
  23297414.211     -748493.20649   -585426.55149  23297411.9634   23297419.9134
  20447983.467    -3263305.54249  -2451450.30849  20447983.9514   20447990.7294
  19688295.463    -3126441.11149  -2429493.33749  19688294.9604   19688301.3264
  22365443.735    -2068240.86449  -1607466.55449  22365443.8064   22365450.9574
  22932523.990      854261.807 9    660585.811 9  22932523.412    22932532.540
  22134942.787   -11560392.05649  -8986459.56249  22134941.4874   22134949.2414
 95 12  4 17 32 29.9970000  0  7 25 23 21  1 31 28 15
  21709839.030   -11225204.65849  -8722209.74349  21709838.9824   21709846.0994
  23293574.074     -768651.13649   -601134.13749  23293576.4634   23293583.8744
  20437651.981    -3317597.42849  -2493755.66749  20437652.4254   20437659.1944
  19679483.437    -3172750.90849  -2465578.89349  19679482.4194   19679488.6384
  22359846.668    -2097655.03649  -1630386.72649  22359846.6324   22359853.0754
  22933676.591      860319.290 9    665305.854 9  22933675.538    22933685.325
  22100210.441   -11742907.54649  -9128679.40149  22100210.4944   22100216.4504
 95 12  4 17 32 59.9970000  0  7 25 23 21  1 31 28 15
  21676809.974   -11398754.79349  -8857443.61749  21676813.2644   21676819.8104
  23289739.002     -788836.33049   -616862.94349  23289735.0024   23289743.2144
  20427348.114    -3371749.68049  -2535952.22049  20427348.0824   20427354.4484
  19670718.835    -3218798.05649  -2501459.77849  19670719.7924   19670726.2394
  22354295.655    -2126829.91649  -1653120.43349  22354295.9544   22354301.9714
  22934822.784      866345.449 9    670001.492 9  22934823.036    22934831.719
  22065499.905   -11925310.24749  -9270811.34349  22065499.1874   22065507.6514
 95 12  4 17 33 29.9970000  0  7 25 23 21  1 31 28 15
  21643821.026   -11572132.41249  -8992543.07049  21643821.4204   21643827.8334
  23285892.374     -809014.07849   -632585.97549  23285895.6514   23285904.4414
  20417072.833    -3425747.75749  -2578028.62949  20417072.0944   20417079.3394
  19662012.935    -3264556.13049  -2537115.41049  19662012.1874   19662018.7594
  22348792.775    -2155746.09449  -1675652.54649  22348791.8624   22348799.6164
  22935966.994      872361.640 9    674689.343 9  22935968.164    22935976.965
  22030817.646   -12107572.91549  -9412834.17949  22030817.8114   22030824.1674
 95 12  4 17 33 59.9970000  0  7 25 23 21  1 31 28 15
  21610865.322   -11745307.99249  -9127485.07649  21610866.5444   21610873.1404
  23282064.690     -829159.14849   -648283.56149  23282064.0534   23282070.7534
  20406830.671    -3479566.99949  -2619965.68949  20406830.5094   20406837.4534
  19653363.867    -3310007.62649  -2572532.14649  19653363.3174   19653369.6624
  22343345.615    -2184381.08949  -1697965.57749  22343344.3064   22343350.1924
  22937112.012      878379.731 9    679378.676 9  22937113.203    22937121.826
  21996161.966   -12289678.03249  -9554734.24149  21996162.8534   21996169.8784
 95 12  4 17 34 29.9970000  0  7 25 23 21  1 31 28 15
  21577946.552   -11918306.59349  -9262289.18449  21577946.1194   21577952.5584
  23278238.537     -849263.89549   -663949.69249  23278238.9904   23278244.5854
  20396613.658    -3533251.29049  -2661797.59249  20396614.7224   20396621.9604
  19644764.507    -3355193.81949  -2607742.15849  19644764.4964   19644770.9044
  22337941.561    -2212763.53449  -1720081.80049  22337942.5354   22337948.1594
  22938253.449      884374.300 9    684049.681 9  22938253.827    22938262.619
  21961533.771   -12471644.95549  -9696526.61349  21961536.3464   21961543.3564
 95 12  4 17 34 59.9970000  0  7 25 23 21  1 31 28 15
  21545060.556   -12091111.08449  -9396942.04349  21545062.4594   21545069.0594
  23274421.784     -869305.89949   -679566.96849  23274424.5034   23274431.1544
  20386423.119    -3586803.43249  -2703526.52549  20386424.4444   20386431.1774
  19636219.442    -3400101.21149  -2642734.93049  19636219.1804   19636225.2564
  22332595.069    -2240865.52249  -1741979.49149  22332595.1794   22332602.2174
  22939395.308      890363.242 9    688716.309 9  22939394.673    22939399.963
  21926939.077   -12653449.83149  -9838192.70349  21926940.2384   21926945.1144
 95 12  4 17 35 29.9970000  0  7 25 23 21  1 31 28 15
  21512215.028   -12263725.54649  -9531446.82049  21512215.3334   21512221.1124
  23270615.752     -889308.47249   -695153.48549  23270617.8184   23270627.2204
  20376261.924    -3640202.94149  -2745136.54149  20376263.3354   20376269.8454
  19627723.375    -3444747.42849  -2677524.18949  19627723.5174   19627729.2464
  22327304.576    -2268679.90549  -1763653.11749  22327301.7834   22327307.8124
  22940531.795      896343.929 9    693376.532 9  22940532.522    22940537.702
  21892374.955   -12835089.42349  -9979730.01049  21892375.5994   21892382.5044
 95 12  4 17 35 59.9970000  0  7 25 23 21  1 31 28 15
  21479404.660   -12436140.66949  -9665796.25949  21479405.6774   21479411.7374
  23266825.430     -909250.92749   -710693.19749  23266822.8174   23266830.8674
  20366137.888    -3693409.22949  -2786595.98749  20366138.2864   20366144.9274
  19619280.855    -3489117.90449  -2712098.58949  19619280.1534   19619286.2454
  22322064.244    -2296193.67749  -1785092.45349  22322066.5694   22322073.8304
  22941672.104      902340.218 9    698048.916 9  22941672.403    22941680.310
  21857846.359   -13016534.56749 -10121115.79449  21857847.0574   21857854.3234
 95 12  4 17 36 29.9970000  0  7 25 23 21  1 31 28 15
  21446627.313   -12608390.25049  -9800016.69649  21446627.3724   21446634.4814
  23263033.295     -929175.22849   -726218.74849  23263031.1584   23263039.4634
  20356045.157    -3746444.72649  -2827922.35149  20356045.5534   20356052.3564
  19610882.232    -3533235.08749  -2746475.60949  19610884.4304   19610891.2264
  22316881.894    -2323439.84149  -1806323.30849  22316882.4144   22316888.4924
  22942811.886      908323.772 9    702711.370 9  22942810.893    22942819.115
  21823350.880   -13197807.00149 -10262367.01149  21823351.4284   21823358.6324
 95 12  4 17 36 59.9970000  0  7 25 23 21  1 31 28 15
  21413886.957   -12780430.96649  -9934074.36449  21413888.8264   21413895.4914
  23259245.482     -949074.13849   -741724.49549  23259244.8064   23259252.8954
  20345993.180    -3799267.89149  -2869083.26849  20345993.3174   20346000.7164
  19602541.332    -3577072.41949  -2780634.57049  19602542.4894   19602548.9424
  22311752.951    -2350400.78249  -1827331.87149  22311751.7014   22311758.3574
  22943953.462      914315.668 9    707380.287 9  22943951.601    22943960.674
  21788894.309   -13378880.00249 -10403462.81749  21788894.5964   21788901.4074
 95 12  4 17 37 29.9970000  0  7 25 23 21  1 31 28 15
  21381194.794   -12952244.96949 -10067955.39749  21381193.8844   21381200.5824
  23255465.733     -968935.71149   -757201.15749  23255466.2604   23255473.8984
  20335981.194    -3851878.13249  -2910078.28249  20335982.4254   20335989.4934
  19594253.135    -3620634.79449  -2814579.28149  19594253.3904   19594259.2764
  22306671.388    -2377095.15249  -1848132.73849  22306672.2474   22306678.9394
  22945094.045      920311.495 9    712052.253 9  22945091.695    22945101.975
  21754476.552   -13559752.04049 -10544402.03649  21754475.8214   21754482.5454
 95 12  4 17 37 59.9960000  0  7 25 23 21  1 31 28 15
  21348538.880   -13123839.29649 -10201665.23749  21348540.9584   21348546.8344
  23251697.043     -988758.79449   -772647.84549  23251694.1974   23251701.3494
  20326001.157    -3904330.85449  -2950950.56449  20326000.8394   20326008.1154
  19586012.596    -3663931.08649  -2848316.65249  19586014.0944   19586020.3154
  22301639.026    -2403542.45949  -1868741.10149  22301639.0224   22301645.2784
  22946231.633      926282.884 9    716705.190 9  22946229.092    22946237.418
  21720092.189   -13740439.31649 -10685197.28249  21720092.8284   21720099.2794
 95 12  4 17 38 29.9960000  0  7 25 23 21  1 31 28 15
  21315939.341   -13295163.75549 -10335164.79749  21315938.8404   21315944.6654
  23247938.076    -1008487.80249   -788021.26249  23247940.6904   23247948.0154
  20316056.421    -3956592.04449  -2991673.59349  20316056.5484   20316062.6624
  19577835.274    -3706907.19549  -2881804.54149  19577835.9404   19577842.2134
  22296660.327    -2429693.05949  -1889118.23849  22296663.4574   22296668.8694
  22947365.980      932274.051 9    721373.529 9  22947369.184    22947377.131
  21685751.088   -13920904.39649 -10825819.40949  21685751.4744   21685757.8694
 95 12  4 17 38 59.9960000  0  7 25 23 21  1 31 28 15
  21283379.871   -13466251.61649 -10468479.99549  21283381.3244   21283388.8724
  23244193.848    -1028150.22549   -803342.74849  23244197.2614   23244206.2394
  20306137.884    -4008708.41349  -3032283.78349  20306138.9644   20306145.2974
  19569707.468    -3749621.89349  -2915088.72849  19569707.8004   19569713.8094
  22291737.050    -2455588.51249  -1909296.59449  22291735.9114   22291742.4134
  22948502.009      938239.750 9    726022.035 9  22948504.462    22948512.444
  21651444.514   -14101180.21949 -10966294.05549  21651445.7864   21651452.5854
 95 12  4 17 39 29.9960000  0  7 25 23 21  1 31 28 15
  21250874.790   -13637082.47249 -10601594.90749  21250874.0544   21250880.6154
  23240479.406    -1047701.58349   -818577.70449  23240476.9344   23240486.7424
  20296254.676    -4060642.75749  -3072752.14549  20296255.8964   20296262.4564
  19561637.325    -3792029.36549  -2948133.51849  19561637.7644   19561643.8824
  22286865.893    -2481181.07549  -1929238.91549  22286865.1274   22286871.8444
  22949641.219      944222.466 9    730683.789 9  22949642.906    22949650.721
  21617185.552   -14281218.52249 -11106583.60349  21617186.1794   21617192.1054
 95 12  4 17 39 59.9960000  0  7 25 23 21  1 31 28 15
  21218410.650   -13807678.10749 -10734526.54849  21218410.4344   21218417.3964
  23236771.963    -1067151.11149   -833733.32149  23236777.1344   23236784.1224
  20286408.019    -4112391.67849  -3113076.01549  20286408.4844   20286415.0854
  19553625.422    -3834127.24649  -2980937.06849  19553626.7014   19553633.0764
  22282051.562    -2506466.18649  -1948941.65349  22282053.0244   22282061.3394
  22950785.390      950224.062 9    735360.260 9  22950785.193    22950793.288
  21582971.716   -14461011.74649 -11246682.20249  21582971.8824   21582978.6934
 95 12  4 17 40 29.9960000  0  7 25 23 21  1 31 28 15
  21185990.817   -13978047.55449 -10867281.91749  21185990.6444   21185996.9624
  23233092.966    -1086515.68349   -848822.70249  23233090.3194   23233099.4194
  20276596.507    -4163945.37349  -3153247.76349  20276598.0554   20276604.9044
  19545670.260    -3875941.54549  -3013519.65449  19545669.9294   19545675.8904
  22277294.541    -2531469.03549  -1968424.44849  22277295.9134   22277301.7774
  22951927.901      956232.213 9    740041.841 9  22951928.392    22951936.784
  21548804.770   -14640566.01149 -11386594.58949  21548804.0074   21548811.4254
 95 12  4 17 40 59.9960000  0  7 25 23 21  1 31 28 15
  21153612.566   -14148190.97449 -10999861.15249  21153613.2214   21153618.9674
  23229420.956    -1105812.15049   -863859.03749  23229420.1584   23229427.2854
  20266823.258    -4215306.79149  -3193269.69149  20266824.7164   20266831.2584
  19537762.206    -3917492.40649  -3045896.95849  19537762.9244   19537769.1264
  22272589.165    -2556196.52549  -1987692.66049  22272590.2604   22272596.2034
  22953070.507      962236.238 9    744720.202 9  22953071.037    22953079.926
  21514679.488   -14819886.49049 -11526324.81749  21514681.3914   21514687.7854
 95 12  4 17 41 29.9960000  0  7 25 23 21  1 31 28 15
  21121285.389   -14318070.55749 -11132234.80749  21121285.9714   21121291.9934
  23225767.017    -1125022.82249   -878828.51549  23225763.8214   23225772.5284
  20257095.520    -4266437.78849  -3233112.06949  20257094.8364   20257101.1114
  19529916.482    -3958724.35349  -3078025.77149  19529916.5484   19529923.2364
  22267941.494    -2580618.59249  -2006722.90449  22267943.3974   22267948.6824
  22954217.259      968259.325 9    749413.441 9  22954217.161    22954226.494
  21480607.336   -14998944.15749 -11665850.26949  21480607.1314   21480614.8524
 95 12  4 17 41 59.9960000  0  7 25 23 21  1 31 28 15
  21089014.276   -14487660.26049 -11264382.57149  21089013.8024   21089020.2774
  23222119.585    -1144146.69049   -893730.31049  23222125.0214   23222134.1664
  20247411.559    -4317321.73349  -3272761.92749  20247411.8644   20247418.6114
  19522130.415    -3999637.96349  -3109906.52849  19522131.5404   19522137.5774
  22263356.842    -2604732.43549  -2025512.96449  22263354.5214   22263360.9084
  22955365.016      974294.913 9    754116.395 9  22955365.816    22955375.348
  21446584.796   -15177739.47549 -11805171.27849  21446583.9944   21446590.3934
 95 12  4 17 42 29.9960000  0  7 25 23 21  1 31 28 15
  21056798.522   -14656947.95849 -11396294.99849  21056799.5964   21056806.3604
  23218498.108    -1163201.71249   -908578.46549  23218499.1494   23218507.0164
  20237774.998    -4367967.28749  -3312226.03549  20237774.2604   20237781.1854
  19514400.478    -4040256.72849  -3141557.53349  19514401.8644   19514408.4054
  22258821.770    -2628556.31849  -2044077.06849  22258821.5404   22258827.6784
  22956511.409      980315.861 9    758807.937 9  22956511.528    22956520.787
  21412606.404   -15356293.79549 -11944304.51049  21412605.6634   21412613.2464
 95 12  4 17 42 59.9960000  0  7 25 23 21  1 31 28 15
  21024646.511   -14825912.34349 -11527955.49349  21024646.9864   21024653.9114
  23214884.292    -1182182.91549   -923369.10949  23214885.4704   23214896.7154
  20228185.011    -4418352.87749  -3351487.56249  20228186.4564   20228193.3574
  19506736.225    -4080541.04249  -3172947.92749  19506736.4144   19506742.3704
  22254349.627    -2652059.47349  -2062391.27249  22254347.8534   22254355.1834
  22957654.421      986339.340 9    763501.458 9  22957657.101    22957666.906
  21378678.335   -15534584.11749 -12083232.01649  21378678.3024   21378684.6294
 95 12  4 17 43 29.9960000  0  7 25 23 21  1 31 28 15
  20992555.948   -14994551.26349 -11659362.37649  20992555.5754   20992561.7334
  23211288.480    -1201080.17749   -938094.33049  23211290.7954   23211299.7794
  20218646.348    -4468479.52949  -3390547.33749  20218647.5494   20218654.2654
  19499135.522    -4120478.28149  -3204067.87149  19499136.2324   19499142.5464
  22249935.118    -2675249.70249  -2080461.62649  22249935.6914   22249941.9514
  22958802.821      992370.539 9    768201.007 9  22958805.721    22958814.621
  21344802.265   -15712599.50149 -12221945.29249  21344803.9084   21344809.2144
 95 12  4 17 43 59.9960000  0  7 25 23 21  1 31 28 15
  20960525.847   -15162873.41649 -11790522.43649  20960525.1824   20960531.3614
  23207708.642    -1219887.56049   -952749.46349  23207710.6854   23207719.9794
  20209155.539    -4518362.92949  -3429417.55949  20209154.8774   20209161.8744
  19491595.105    -4160106.28949  -3234946.86749  19491595.0884   19491601.5054
  22245577.162    -2698145.37849  -2098302.45349  22245578.0804   22245586.1684
  22959956.975      998402.534 9    772901.188 9  22959954.057    22959962.515
  21310979.662   -15890340.93249 -12360445.08649  21310979.4884   21310987.3034
 95 12  4 17 44 29.9960000  0  7 25 23 21  1 31 28 15
  20928550.611   -15330912.25149 -11921461.72649  20928548.7244   20928555.4274
  23204156.434    -1238609.93849   -967338.41749  23204151.4714   23204160.7044
  20199701.180    -4568036.63149  -3468124.37749  20199702.3844   20199709.2364
  19484108.140    -4199445.26049  -3265600.63849  19484109.2754   19484115.4914
  22241275.094    -2720771.44349  -2115933.24349  22241273.6824   22241280.0874
  22961096.867     1004421.223 9    777591.001 9  22961099.673    22961108.114
  21277207.548   -16067816.62149 -12498737.81449  21277207.1654   21277213.3054
 95 12  4 17 44 59.9960000  0  7 25 23 21  1 31 28 15
  20896619.047   -15498698.10649 -12052203.89749  20896619.4644   20896626.3344
  23200598.415    -1257247.71049   -981861.35849  23200600.4564   23200612.1374
  20190285.301    -4617524.33149  -3506686.24849  20190285.0884   20190292.0464
  19476675.907    -4238502.22049  -3296034.66149  19476677.0764   19476683.2754
  22237014.348    -2743152.54649  -2133373.10049  22237014.8454   22237021.4624
  22962244.008     1010419.840 9    782265.167 9  22962241.933    22962249.824
  21243485.655   -16245027.74649 -12636824.40149  21243485.2254   21243491.4724
 95 12  4 17 45 29.9960000  0  7 25 23 21  1 31 28 15
  20864736.978   -15666234.12949 -12182751.39949  20864738.5644   20864745.1864
  23197071.849    -1275777.86249   -996300.46149  23197074.8464   23197085.5394
  20180901.706    -4666832.58749  -3545108.29649  20180902.0004   20180908.4454
  19469294.247    -4277300.57549  -3326267.16949  19469294.4284   19469299.7234
  22232800.064    -2765305.03249  -2150634.86349  22232798.1314   22232805.8964
  22963380.416     1016395.134 9    786921.104 9  22963378.753    22963386.486
  21209812.865   -16421971.62649 -12774702.74749  21209813.8704   21209820.3414
 95 12  4 17 45 59.9960000  0  7 25 23 21  1 31 28 15
  20832904.143   -15833514.08649 -12313099.34549  20832906.6664   20832913.1394
  23193571.328    -1294201.04849  -1010656.17949  23193569.4284   23193580.6074
  20171552.293    -4715953.90549  -3583384.67449  20171554.4344   20171561.5724
  19461959.251    -4315845.42549  -3356302.12749  19461959.1424   19461965.4564
  22228627.044    -2787225.42049  -2167715.71549  22228627.8774   22228634.5754
  22964509.674     1022341.221 9    791554.286 9  22964509.407    22964518.194
  21176193.461   -16598648.29249 -12912372.86649  21176193.8284   21176200.1904
 95 12  4 17 46 29.9960000  0  7 25 23 21  1 31 28 15
  20801124.754   -16000532.80149 -12443243.75549  20801123.2624   20801130.1514
  23190083.000    -1312524.40049  -1024934.14249  23190082.3904   23190094.0274
  20162242.734    -4764882.64649  -3621510.99949  20162243.6634   20162251.1124
  19454673.942    -4354125.84349  -3386131.03549  19454674.5634   19454680.6844
  22224498.499    -2808917.94649  -2184619.01649  22224498.5534   22224507.8124
  22965634.837     1028256.100 9    796163.158 9  22965634.684    22965644.290
  21142622.465   -16775053.98949 -13049831.85549  21142624.0564   21142631.4374
 95 12  4 17 46 59.9950000  0  7 25 23 21  1 31 28 15
  20769393.281   -16167281.63949 -12573177.87149  20769392.6004   20769399.7504
  23186600.344    -1330793.78249  -1039170.07449  23186607.2934   23186615.0184
  20152966.868    -4813638.32549  -3659502.45749  20152966.8334   20152972.8174
  19447434.073    -4392170.08749  -3415775.90749  19447435.3004   19447441.5254
  22220410.910    -2830408.79449  -2201365.20049  22220411.6024   22220417.2124
  22966748.776     1034107.674 9    800722.703 9  22966749.295    22966757.415
  21109103.038   -16951208.72249 -13187095.27549  21109103.3484   21109109.6054
 95 12  4 17 47 29.9950000  0  7 25 23 21  1 31 28 15
  20737730.754   -16333664.88749 -12702827.09049  20737730.5954   20737737.1504
  23183153.036    -1348935.52949  -1053306.52949  23183154.3104   23183165.1444
  20143736.866    -4862134.08049  -3697291.38649  20143738.3824   20143744.1954
  19440253.969    -4429909.51049  -3445183.24349  19440253.7254   19440259.9184
  22216374.972    -2851604.28449  -2217881.19249  22216375.2284   22216383.4104
  22967862.170     1039971.629 9    805291.929 9  22967866.059    22967873.379
  21075642.238   -17127043.19049 -13324109.13149  21075644.0744   21075650.0624
 95 12  4 17 47 59.9950000  0  7 25 23 21  1 31 28 15
  20706128.959   -16499726.98749 -12832226.08249  20706129.8894   20706137.0814
  23179713.343    -1367017.26549  -1067396.21549  23179714.1544   23179724.2944
  20134548.197    -4910419.62249  -3734916.51349  20134549.9164   20134555.7974
  19433119.734    -4467391.16549  -3474389.71349  19433121.1354   19433127.2714
  22212393.812    -2872547.01649  -2234200.28649  22212392.0774   22212398.7504
  22968969.014     1045790.478 9    809825.978 9  22968972.905    22968980.931
  21042236.560   -17302602.87549 -13460908.87749  21042235.5424   21042241.9064
 95 12  4 17 48 29.9950000  0  7 25 23 21  1 31 28 15
  20674588.184   -16665460.28549 -12961368.84449  20674591.5244   20674599.2794
  23176284.654    -1385012.89049  -1081418.80449  23176290.6004   23176300.3424
  20125405.009    -4958478.04349  -3772364.65949  20125404.6654   20125410.8284
  19426040.491    -4504604.91449  -3503387.43149  19426039.9164   19426045.9044
  22208458.183    -2893209.29849  -2250300.81649  22208459.2084   22208467.1454
  22970074.637     1051581.964 9    814338.718 9  22970074.988    22970083.040
  21008884.561   -17477864.78349 -13597476.57349  21008885.1194   21008890.8634
 95 12  4 17 48 59.9950000  0  7 25 23 21  1 31 28 15
  20643114.769   -16830870.14149 -13090259.59649  20643115.1594   20643122.1824
  23172886.957    -1402922.00649  -1095373.95749  23172881.4604   23172892.3154
  20116299.208    -5006321.28749  -3809645.14149  20116299.8294   20116307.0944
  19419004.847    -4541563.99649  -3532186.69549  19419006.2234   19419012.5404
  22204579.902    -2913597.16949  -2266187.55049  22204580.0624   22204585.6234
  22971169.264     1057329.217 9    818816.983 9  22971168.788    22971177.812
  20975587.964   -17652839.70949 -13733820.64749  20975587.4624   20975593.3324
 95 12  4 17 49 29.9950000  0  7 25 23 21  1 31 28 15
  20611692.262   -16995984.05449 -13218919.72449  20611695.0224   20611702.5664
  23169483.104    -1420735.58249  -1109254.67549  23169490.8804   23169502.1864
  20107234.849    -5053952.05249  -3846760.06549  20107235.8054   20107243.3674
  19412019.523    -4578278.00349  -3560795.00149  19412019.5964   19412026.0504
  22200750.387    -2933731.10049  -2281876.39149  22200748.4764   22200754.7754
  22972252.274     1063021.797 9    823252.644 9  22972251.446    22972260.768
  20942343.276   -17827532.05249 -13869944.53149  20942344.9094   20942350.8174
 95 12  4 17 49 59.9950000  0  7 25 23 21  1 31 28 15
  20580317.733   -17160858.65749 -13347393.39449  20580320.5684   20580327.6134
  23166115.045    -1438495.62049  -1123093.66449  23166112.3184   23166122.6214
  20098205.656    -5101399.66649  -3883732.26049  20098206.8904   20098213.5684
  19405072.557    -4614772.59449  -3589232.33349  19405074.8374   19405081.5274
  22196950.228    -2953664.31649  -2297408.84849  22196954.6374   22196962.0644
  22973313.759     1068619.140 9    827614.090 9  22973316.616    22973326.604
  20909147.766   -18001976.97349 -14005875.60649  20909148.3894   20909156.0314
 95 12  4 17 50 29.9950000  0  7 25 23 21  1 31 28 15
  20548997.349   -17325469.04649 -13475661.17149  20548996.2134   20549003.1724
  23162744.462    -1456190.79849  -1136882.09349  23162744.5464   23162757.2324
  20089214.226    -5148651.54349  -3920551.93349  20089215.6494   20089221.9004
  19398175.236    -4651040.76649  -3617493.25149  19398174.1904   19398179.7494
  22193198.127    -2973399.59249  -2312787.06149  22193200.3504   22193206.2294
  22974364.583     1074130.490 9    831908.519 9  22974365.678    22974376.032
  20876003.606   -18176159.24749 -14141602.02249  20876002.8184   20876010.5044
 95 12  4 17 50 59.9950000  0  7 25 23 21  1 31 28 15
  20517735.204   -17489739.39449 -13603663.99149  20517736.1664   20517743.3834
  23159391.272    -1473787.44949  -1150593.79549  23159396.9804   23159408.7674
  20080270.166    -5195646.91749  -3957171.72949  20080271.9144   20080278.8054
  19391325.683    -4687022.36649  -3645530.86349  19391326.5524   19391332.6074
  22189487.810    -2992901.96049  -2327983.76549  22189489.4944   22189496.2314
  22975409.746     1079605.464 9    836174.603 9  22975407.581    22975417.787
  20842917.951   -18350023.70349 -14277080.79049  20842918.1604   20842924.5124
 95 12  4 17 51 29.9950000  0  7 25 23 21  1 31 28 15
  20486539.441   -17653689.17449 -13731417.01049  20486538.0424   20486544.2794
  23156058.885    -1491315.65749  -1164252.17449  23156060.6954   23156072.6744
  20071377.580    -5242398.30249  -3993601.41049  20071375.9554   20071382.9464
  19384528.810    -4722739.38749  -3673362.31949  19384529.7354   19384536.0924
  22185820.616    -3012185.87549  -2343010.28249  22185819.8794   22185825.8584
  22976437.798     1085025.267 9    840397.686 9  22976439.095    22976448.479
  20809889.482   -18523583.38149 -14412322.07349  20809890.6964   20809897.3834
 95 12  4 17 51 59.9950000  0  7 25 23 21  1 31 28 15
  20455403.247   -17817285.99549 -13858895.00449  20455406.1154   20455413.0894
  23152735.364    -1508757.93049  -1177843.59049  23152741.8524   23152751.8014
  20062529.104    -5288889.16849  -4029828.08849  20062529.1644   20062536.2394
  19377786.677    -4758174.20149  -3700973.88149  19377786.8344   19377792.9234
  22182193.552    -3031224.76849  -2357845.87049  22182196.4604   22182203.1634
  22977463.210     1090407.835 9    844591.740 9  22977463.359    22977472.678
  20776923.626   -18696814.60649 -14547307.41049  20776926.0854   20776931.9524
 95 12  4 17 52 29.9950000  0  7 25 23 21  1 31 28 15
  20424338.690   -17980545.61149 -13986110.22549  20424339.2494   20424345.2814
  23149437.329    -1526138.98149  -1191387.27549  23149434.0414   23149444.4664
  20053722.713    -5335159.65849  -4065883.03849  20053724.0214   20053731.1814
  19371087.819    -4793378.14549  -3728405.55349  19371088.0114   19371093.9854
  22178616.623    -3050048.20649  -2372513.54649  22178616.0424   22178621.4834
  22978472.741     1095718.069 9    848729.448 9  22978473.672    22978483.705
  20744016.174   -18869746.60049 -14682059.59349  20744017.9594   20744023.7014
 95 12  4 17 52 59.9950000  0  7 25 23 21  1 31 28 15
  20393336.825   -18143462.51649 -14113058.41949  20393337.3504   20393343.3514
  23146141.812    -1543451.61549  -1204877.68449  23146139.5064   23146150.0924
  20044959.639    -5381204.84349  -4101762.42849  20044961.8084   20044968.6494
  19364433.423    -4828346.91149  -3755653.96249  19364433.8994   19364439.6674
  22175076.208    -3068653.79449  -2387011.46749  22175074.8184   22175081.1774
  22979469.867     1100958.557 9    852812.804 9  22979471.271    22979481.020
  20711167.472   -19042371.23749 -14816572.27249  20711168.4804   20711174.7204
 95 12  4 17 53 29.9950000  0  6 25 21  1 31 28 15
  20362394.969   -18306048.21249 -14239748.50749  20362398.5464   20362404.0674
  20036243.080    -5427029.40849  -4137469.89649  20036241.9934   20036249.2104
  19357823.780    -4863071.99349  -3782712.48349  19357825.7314   19357831.8164
  22171574.253    -3087046.25749  -2401343.33949  22171574.0914   22171582.2494
  22980455.751     1106130.941 9    856843.096 9  22980455.230    22980465.108
  20678378.533   -19214681.14849 -14950839.70849  20678379.2404   20678384.9444
 95 12  4 17 53 59.9950000  0  6 25 21  1 31 28 15
  20331521.728   -18468300.50149 -14366178.80749  20331523.1374   20331528.3294
  20027562.139    -5472637.53249  -4173008.71249  20027562.8884   20027570.1274
  19351264.231    -4897548.03449  -3809576.94749  19351264.8664   19351271.3324
  22168112.841    -3105240.23949  -2415520.52749  22168113.0044   22168118.6964
  22981427.610     1111231.577 9    860817.466 9  22981427.060    22981436.204
  20645648.762   -19386673.98349 -15084860.08049  20645649.5404   20645655.9144
 95 12  4 17 54 29.9950000  0  6 25 21  1 31 28 15
  20300707.975   -18630228.26649 -14492356.23049  20300709.8304   20300714.1044
  20018923.126    -5518038.24549  -4208385.91449  20018923.5154   20018930.6924
  19344748.992    -4931785.08849  -3836255.19449  19344750.0094   19344756.0964
  22164686.312    -3123239.04149  -2429545.62349  22164687.2264   22164693.4674
  22982380.068     1116246.580 9    864725.103 9  22982381.708    22982391.025
  20612978.155   -19558358.03749 -15218639.83749  20612978.7824   20612986.2114
 95 12  4 17 54 59.9950000  0  6 25 21  1 31 28 15
  20269946.202   -18791888.99849 -14618325.56849  20269946.2384   20269950.0884
  20010316.266    -5563269.90749  -4243631.37849  20010316.0474   20010322.6134
  19338277.459    -4965801.41749  -3862761.43549  19338277.1794   19338283.5234
  22161288.563    -3141094.43849  -2443459.00049  22161290.1094   22161297.1954
  22983312.571     1121129.912 9    868530.130 9  22983310.946    22983320.104
  20580359.983   -19729773.86549 -15352210.59449  20580359.7374   20580366.4674
 95 12  4 17 55 29.9950000  0  6 25 21  1 31 28 15
  20239237.864   -18953257.33849 -14744067.06149  20239238.9044   20239243.9144
  20001745.292    -5608304.97649  -4278723.65549  20001746.2904   20001753.2074
  19331851.945    -4999570.38649  -3889074.93949  19331851.4384   19331857.3224
  22157924.753    -3158766.69249  -2457229.66249  22157928.3074   22157933.5074
  22984218.561     1125908.780 9    872253.752 9  22984219.493    22984229.722
  20547796.862   -19900888.45749 -15485546.62249  20547797.4044   20547804.8904
 95 12  4 17 55 59.9940000  0  6 25 21  1 31 28 15
  20208594.017   -19114300.65049 -14869555.29149  20208593.2144   20208597.7794
  19993216.111    -5653127.48249  -4313650.31449  19993216.4674   19993223.8254
  19325471.687    -5033097.66049  -3915200.09549  19325471.0704   19325477.0584
  22154602.282    -3176221.83649  -2470831.10149  22154605.6624   22154611.3494
  22985112.312     1130596.628 9    875906.455 9  22985112.361    22985120.013
  20515297.437   -20071676.97349 -15618628.56949  20515298.0344   20515304.4194
 95 12  4 17 56 29.9940000  0  6 25 21  1 31 28 15
  20178001.636   -19275050.29049 -14994814.68949  20178003.6894   20178008.4204
  19984719.884    -5697770.41949  -4348437.02749  19984721.6314   19984728.7504
  19319128.961    -5066423.93149  -3941168.62649  19319129.4064   19319135.2454
  22151319.823    -3193491.84549  -2484288.31749  22151319.4824   22151326.0074
  22985980.666     1135163.191 9    879464.673 9  22985981.597    22985990.083
  20482852.793   -20242175.52649 -15751484.56749  20482852.9284   20482859.1174
 95 12  4 17 56 59.9940000  0  6 25 21  1 31 28 15
  20147478.726   -19435454.72549 -15119805.09149  20147479.4704   20147484.7904
  19976266.332    -5742205.16649  -4383061.52449  19976266.0374   19976272.7884
  19312830.986    -5099517.21549  -3966955.62049  19312831.9004   19312837.7864
  22148071.831    -3210557.46249  -2497586.28649  22148071.7464   22148078.2814
  22986834.403     1139644.769 9    882956.684 9  22986834.264    22986842.275
  20450471.657   -20412336.27049 -15884077.34949  20450472.7664   20450479.1284
 95 12  4 17 57 29.9940000  0  6 25 21  1 31 28 15
  20117013.682   -19595546.02349 -15244551.49849  20117014.8524   20117019.7924
  19967836.776    -5786494.84849  -4417572.98949  19967838.1214   19967845.0804
  19306560.570    -5132463.52149  -3992628.08549  19306562.5694   19306568.2594
  22144856.155    -3227465.61549  -2510761.51249  22144854.1114   22144860.6284
  22987658.578     1143984.379 9    886338.087 9  22987659.724    22987668.982
  20418145.793   -20582210.78149 -16016447.07849  20418146.5074   20418153.5174
 95 12  4 17 57 59.9940000  0  6 25 21  1 31 28 15
  20086614.849   -19755293.40149 -15369029.91049  20086616.0824   20086621.2184
  19959444.655    -5830598.44049  -4451939.44249  19959445.1584   19959452.9784
  19300325.448    -5165229.84549  -4018160.29249  19300327.2974   19300332.8434
  22141665.632    -3244200.71449  -2523801.91949  22141670.2834   22141677.0424
  22988464.407     1148208.294 9    889629.326 9  22988463.157    22988472.977
  20385880.367   -20751767.10349 -16148568.86749  20385880.7914   20385887.7264
 95 12  4 17 58 29.9940000  0  6 25 21  1 31 28 15
  20056282.048   -19914692.93649 -15493237.28349  20056283.1294   20056288.2134
  19951090.973    -5874496.71149  -4486145.89349  19951091.6724   19951098.9864
  19294131.309    -5197792.93349  -4043534.13849  19294130.4534   19294136.6074
  22138521.307    -3260775.22549  -2536717.18649  22138516.2224   22138522.4684
  22989248.299     1152322.798 9    892835.323 9  22989246.863    22989256.532
  20353676.192   -20920993.61749 -16280433.65949  20353678.1834   20353684.5864
 95 12  4 17 58 59.9940000  0  5 25 21  1 31 15
  20026010.891   -20073771.56149 -15617194.60849  20026011.9464   20026017.0674
  19942771.497    -5918204.91449  -4520204.25849  19942774.4094   19942781.3044
  19287968.087    -5230174.99549  -4068766.93149  19287968.3634   19287974.6044
  22135382.435    -3277208.66949  -2549522.47549  22135388.2714   22135394.0054
  20321533.509   -21089914.24549 -16412060.10249  20321533.7364   20321540.0654
 95 12  4 17 59 29.9940000  0  5 25 21  1 31 15
  19995809.026   -20232481.80649 -15740864.89349  19995809.8124   19995815.5714
  19934505.494    -5961652.87449  -4554059.82949  19934506.7814   19934513.7504
  19281849.864    -5262328.18549  -4093821.37949  19281850.1424   19281855.5974
  22132302.519    -3293453.83349  -2562181.12149  22132298.7444   22132305.5374
  20289456.090   -21258481.15749 -16543410.93149  20289456.7554   20289463.4394
 95 12  4 17 59 59.9940000  0  5 25 21  1 31 15
  19965663.604   -20390900.93649 -15864308.34349  19965663.4814   19965669.1304
  19926273.635    -6004914.18649  -4587769.96949  19926274.1034   19926281.5164
  19275762.487    -5294309.32449  -4118741.75849  19275764.0344   19275770.1004
  22129226.929    -3309598.54049  -2574761.51249  22129225.8404   22129232.5114
  20257431.501   -21426765.49549 -16674541.57049  20257432.9644   20257440.0244
 95 12  4 18  0 29.9940000  0  5 25 21  1 31 15
  19935580.565   -20548983.43349 -15987489.47349  19935581.2864   19935587.0174
  19918082.314    -6047963.64349  -4621315.01449  19918082.4534   19918089.2704
  19269716.408    -5326083.71149  -4143501.02249  19269717.5954   19269723.4314
  22126175.403    -3325609.19949  -2587237.41549  22126179.1244   22126184.9694
  20225469.946   -21594730.54949 -16805423.41349  20225470.2444   20225477.4224
 95 12  4 18  0 59.9940000  0  5 25 21  1 31 15
  19905568.911   -20706691.38149 -16110378.76349  19905570.5494   19905576.1954
  19909932.853    -6090792.13749  -4654687.88249  19909932.3144   19909939.0514
  19263713.182    -5357636.81049  -4168087.86849  19263713.3404   19263719.3234
  22123164.967    -3341462.29449  -2599590.50749  22123162.7314   22123169.2134
  20193571.046   -21762354.24549 -16936039.26049  20193572.3904   20193579.1834
 95 12  4 18  1 29.9940000  0  5 25 21  1 31 15
  19875634.922   -20863986.10049 -16232946.07849  19875637.6504   19875644.3604
  19901831.048    -6133359.68349  -4687857.43149  19901832.2014   19901839.2984
  19257757.793    -5388930.84049  -4192472.83949  19257758.4444   19257764.4684
  22120177.497    -3357126.90949  -2611796.77849  22120181.1244   22120188.6284
  20161749.350   -21929588.38349 -17066351.55849  20161748.6834   20161755.9124
 95 12  4 18  1 59.9940000  0  5 25 21  1 31 15
  19845764.655   -21020962.06649 -16355264.99249  19845766.0484   19845773.1414
  19893761.187    -6175764.50849  -4720900.18149  19893762.4694   19893769.5134
  19251835.522    -5420053.98249  -4216724.65049  19251835.7594   19251841.8354
  22117219.191    -3372690.16349  -2623924.05949  22117220.1514   22117226.2994
  20129982.321   -22096517.34449 -17196426.05849  20129983.8204   20129989.9974
 95 12  4 18  2 29.9940000  0  5 25 21  1 31 15
  19815956.098   -21177608.02149 -16477326.76349  19815957.6284   19815964.3504
  19885729.150    -6217980.91249  -4753796.11149  19885728.8144   19885735.1954
  19245944.474    -5451001.95049  -4240839.95649  19245946.2644   19245952.7064
  22114279.057    -3388132.04249  -2635956.74449  22114280.8784   22114288.0014
  20098279.808   -22263120.15349 -17326246.41749  20098280.1164   20098286.2954
 95 12  4 18  2 59.9940000  0  5 25 21  1 31 15
  19786222.313   -21333864.34849 -16599084.93649  19786223.1424   19786229.5974
  19877739.425    -6259951.17549  -4786500.23949  19877742.0614   19877749.2194
  19240097.739    -5481722.80249  -4264778.29449  19240100.3224   19240106.6764
  22111377.262    -3403385.45149  -2647842.57549  22111377.9804   22111386.2114
  20066650.971   -22429328.00749 -17455759.01749  20066651.4544   20066658.1994
 95 12  4 18  3 29.9940000  0  5 25 21  1 31 15
  19756546.429   -21489816.44649 -16720606.04649  19756546.6374   19756553.0344
  19869789.873    -6301741.29949  -4819064.00349  19869789.5914   19869796.6804
  19234285.080    -5512290.91849  -4288597.62949  19234283.6044   19234289.4344
  22108494.592    -3418521.44049  -2659636.90549  22108497.9924   22108505.0664
  20035083.617   -22595214.14849 -17585020.94549  20035084.4144   20035091.0884
 95 12  4 18  3 59.9940000  0  5 25 21  1 31 15
  19726931.230   -21645442.79549 -16841873.32449  19726932.3944   19726938.2224
  19861871.863    -6343352.18349  -4851488.10549  19861872.4294   19861879.0434
  19228497.843    -5542691.73349  -4312286.58749  19228498.8694   19228504.7194
  22105640.266    -3433531.66949  -2671333.21849  22105641.1584   22105648.0374
  20003579.238   -22760768.03449 -17714023.97549  20003580.8404   20003587.1124
 95 12  4 18  4 29.9940000  0  5 25 21  1 31 15
  19697386.409   -21800704.40749 -16962856.38949  19697386.7454   19697392.9474
  19853991.761    -6384755.14149  -4883750.18449  19853993.2634   19854000.2554
  19222751.984    -5572895.94349  -4335822.35049  19222751.3384   19222756.4964
  22102810.210    -3448396.65149  -2682916.40149  22102812.6484   22102820.4324
  19972144.300   -22925960.40449 -17842745.30249  19972146.5234   19972151.9674
 95 12  4 18  4 59.9930000  0  5 25 21  1 31 15
  19667914.206   -21955577.78549 -17083536.92749  19667915.9134   19667921.9294
  19846154.142    -6425939.52749  -4915841.94949  19846156.1914   19846163.1954
  19217042.848    -5602888.91649  -4359193.51249  19217043.6294   19217049.3794
  22100012.931    -3463118.64549  -2694388.15849  22100012.5414   22100018.9444
  19940783.044   -23090778.32849 -17971174.85049  19940781.7314   19940788.6324
 95 12  4 18  5 29.9930000  0  5 25 21  1 31 15
  19638509.444   -22110099.86149 -17203943.72249  19638510.4694   19638517.4574
  19838354.793    -6466922.39449  -4947776.67049  19838357.0034   19838364.2714
  19211370.578    -5632699.16949  -4382422.29849  19211370.9264   19211376.9474
  22097225.555    -3477750.45849  -2705789.63449  22097227.5424   22097234.2684
  19909481.172   -23255262.79549 -18099344.56549  19909481.7714   19909487.6384
 95 12  4 18  5 59.9930000  0  5 25 21  1 31 15
  19609187.455   -22264193.47949 -17324016.65549  19609187.9564   19609194.6364
  19830610.842    -6507634.05649  -4979500.08349  19830610.3294   19830617.0904
  19205743.269    -5662267.35849  -4405462.46949  19205744.7084   19205749.8814
  22094470.457    -3492235.36749  -2717076.65449  22094470.5184   22094479.0814
  19878259.233   -23419334.51249 -18227192.65949  19878260.2504   19878266.4294
 95 12  4 18  6 29.9930000  0  5 25 21  1 31 15
  19579940.878   -22417888.27749 -17443778.82249  19579940.8544   19579947.1024
  19822909.462    -6548100.90049  -5011032.74949  19822910.0674   19822916.8394
  19200157.087    -5691627.56949  -4428340.57149  19200157.7344   19200163.2884
  22091738.287    -3506596.42449  -2728267.13949  22091739.5964   22091747.1354
  19847111.982   -23583020.03049 -18354739.82549  19847112.0554   19847117.5734
 95 12  4 18  6 59.9930000  0  5 25 21  1 31 15
  19550752.148   -22571270.62749 -17563297.51149  19550753.3504   19550759.2574
  19815238.478    -6588415.45449  -5042446.70149  19815238.4424   19815245.2734
  19194590.505    -5720882.60649  -4451136.72449  19194590.6754   19194596.7334
  22089012.869    -3520919.66649  -2739428.20949  22089013.3974   22089020.3744
  19816020.521   -23746403.70049 -18482051.76449  19816020.8474   19816026.7404
 95 12  4 18  7 29.9930000  0  5 25 21  1 31 15
  19521636.639   -22724275.46149 -17682522.01649  19521637.3894   19521643.0214
  19807608.610    -6628511.87849  -5073690.71049  19807607.9674   19807615.0604
  19189054.873    -5749970.05249  -4473802.28249  19189055.6124   19189061.2094
  22086310.094    -3535123.60449  -2750496.29649  22086310.7064   22086316.0754
  19784999.940   -23909409.49149 -18609069.25849  19785001.4734   19785007.8094
 95 12  4 18  7 59.9930000  0  5 25 21  1 31 15
  19492597.657   -22876868.24249 -17801425.45349  19492599.7584   19492605.4334
  19800022.894    -6668365.76649  -5104745.73849  19800023.6514   19800030.8254
  19183557.686    -5778858.30349  -4496312.62349  19183558.1744   19183563.8974
  22083637.342    -3549161.95349  -2761435.29149  22083638.7754   22083644.5484
  19754060.457   -24072001.85749 -18735764.60749  19754061.4984   19754068.0994
 95 12  4 18  8 29.9930000  0  5 25 21  1 31 15
  19463634.741   -23029071.44549 -17920025.30649  19463636.4314   19463641.5704
  19792478.686    -6708012.97749  -5135639.70049  19792479.1574   19792486.4004
  19178090.117    -5807577.89149  -4518691.53049  19178092.7804   19178098.8554
  22080990.238    -3563067.31349  -2772270.65249  22080993.1904   22080998.4684
  19723192.976   -24234214.80149 -18862164.29049  19723193.4724   19723199.9224
 95 12  4 18  8 59.9930000  0  5 25 21  1 31 15
  19434743.300   -23180902.41149 -18038335.09549  19434744.2034   19434749.4524
  19784972.649    -6747454.30249  -5166373.24549  19784973.6134   19784980.8054
  19172655.338    -5836146.83549  -4540953.05849  19172656.3674   19172662.5064
  22078363.819    -3576872.37649  -2783027.94749  22078365.3354   22078373.3564
  19692396.073   -24396054.07349 -18988272.80149  19692396.4954   19692402.8664
 95 12  4 18  9 29.9930000  0  5 25 21  1 31 15
  19405918.705   -23332372.52249 -18156363.69249  19405920.3184   19405925.4804
  19777506.597    -6786685.05749  -5196942.69749  19777507.9904   19777515.4894
  19167250.159    -5864552.61049  -4563087.42249  19167250.8684   19167257.0904
  22075755.854    -3590587.76249  -2793715.31249  22075756.2104   22075762.2464
  19661670.310   -24557519.26649 -19114089.82049  19661670.1434   19661677.2244
 95 12  4 18  9 59.9930000  0  5 25 21  1 31 15
  19377158.570   -23483507.93849 -18274131.52349  19377160.5564   19377165.9604
  19770076.494    -6825748.37649  -5227381.68149  19770075.1784   19770082.3664
  19161869.324    -5892830.09949  -4585121.84049  19161869.9834   19161876.3904
  22073151.553    -3604269.30449  -2804376.32249  22073151.2244   22073160.1144
  19631006.154   -24718648.48749 -19239645.04949  19631008.4714   19631015.5304
 95 12  4 18 10 29.9930000  0  5 25 21  1 31 15
  19348475.326   -23634248.65049 -18391591.76549  19348475.2734   19348480.6064
  19762682.392    -6864589.03549  -5257647.15649  19762684.1624   19762691.3794
  19156521.960    -5920925.25149  -4607014.16349  19156523.2374   19156529.7704
  22070561.870    -3617868.94849  -2814973.51449  22070564.0034   22070572.3764
  19600419.429   -24879383.11249 -19364892.78849  19600421.3774   19600428.5844
 95 12  4 18 10 59.9930000  0  5 25 21  1 31 15
  19319859.503   -23784625.89149 -18508768.79749  19319859.2494   19319864.5024
  19755332.230    -6903229.05249  -5287756.29649  19755330.9544   19755338.1764
  19151206.568    -5948864.32449  -4628784.88049  19151206.6374   19151213.2764
  22067983.862    -3631415.63249  -2825529.45049  22067987.0264   22067992.5634
  19569906.834   -25039745.37049 -19489850.37449  19569906.1614   19569911.9804
 95 12  4 18 11 29.9930000  0  5 25 21  1 31 15
  19291316.622   -23934604.84749 -18625635.49349  19291318.9294   19291324.7924
  19748012.886    -6941670.11649  -5317710.40449  19748015.9284   19748023.2644
  19145920.796    -5976633.73149  -4650423.39049  19145922.6254   19145928.8594
  22065427.408    -3644883.51549  -2836023.95449  22065424.6294   22065432.2454
  19539460.936   -25199725.54049 -19614510.22549  19539462.6524   19539468.7724
 95 12  4 18 11 59.9930000  0  5 25 21  1 31 15
  19262854.919   -24084171.30249 -18742180.74549  19262857.3064   19262863.2144
  19740736.516    -6979910.69549  -5347508.27749  19740738.3404   19740745.6144
  19140667.308    -6004244.20649  -4671938.05849  19140668.6044   19140674.7144
  22062873.303    -3658268.38049  -2846453.79049  22062876.1904   22062882.5924
  19509092.259   -25359315.94249 -19738866.36549  19509093.4804   19509099.8984
 95 12  4 18 12 29.9930000  0  5 25 21  1 31 15
  19234481.716   -24233273.76049 -18858364.45349  19234483.9614   19234489.7134
  19733515.118    -7017878.51949  -5377093.62649  19733513.8354   19733521.2364
  19135456.064    -6031640.07349  -4693285.51049  19135455.3604   19135461.9544
  22060363.096    -3671503.08049  -2856766.65249  22060361.0884   22060364.9674
  19478812.132   -25518445.52349 -19862863.44749  19478812.4844   19478818.7044
 95 12  4 18 12 59.9930000  0  5 25 21  1 31 15
  19206186.547   -24381979.69349 -18974239.18349  19206185.8234   19206192.4264
  19726329.260    -7055626.05949  -5406507.31549  19726331.0494   19726338.9624
  19130269.562    -6058882.88349  -4714513.69749  19130271.1014   19130277.7314
  22057854.717    -3684648.66349  -2867010.04449  22057857.6454   22057863.8054
  19448608.965   -25677168.02049 -19986543.29349  19448608.5544   19448614.5924
 95 12  4 18 13 29.9930000  0  5 25 21  1 31 15
  19177956.301   -24530324.71949 -19089832.70249  19177957.3124   19177962.8474
  19719182.566    -7093175.21949  -5435766.41949  19719186.0474   19719193.5514
  19125112.768    -6086000.62449  -4735644.43549  19125110.9584   19125117.5354
  22055365.281    -3697737.65559  -2877209.32959  22055367.0504   22055374.2304
  19418476.171   -25835507.77549 -20109924.90749  19418476.8774   19418483.8074
 95 12  4 18 13 59.9920000  0  5 25 21  1 31 15
  19149796.484   -24678300.50149 -19205138.48649  19149797.9314   19149804.1534
  19712087.082    -7130484.47749  -5464838.60449  19712086.4814   19712093.6404
  19119975.554    -6112974.89449  -4756663.37849  19119978.0344   19119984.3264
  22052899.698    -3710752.92859  -2887351.26959  22052895.7554   22052896.1534
  19388423.528   -25993430.87349 -20232981.86549  19388425.3614   19388432.0764
 95 12  4 18 14 29.9920000  0  5 25 21  1 31 15
  19121704.278   -24825928.80849 -19320173.51049  19121705.0944   19121710.6694
  19705024.982    -7167580.41049  -5493744.55649  19705027.0054   19705034.7094
  19114867.950    -6139829.66149  -4777589.20049  19114867.6314   19114874.2084
  22050426.643    -3723718.81249  -2897454.66349  22050425.5184   22050429.0684
  19358446.202   -26150970.12249 -20355739.71449  19358447.2064   19358453.2274
 95 12  4 18 14 59.9920000  0  5 25 21  1 31 15
  19093688.410   -24973153.99549 -19434894.41249  19093689.2204   19093694.8924
  19698012.577    -7204440.64649  -5522466.85449  19698013.1704   19698019.7184
  19109781.658    -6166549.00649  -4798409.50949  19109783.0624   19109789.5084
  22047964.545    -3736619.47549  -2907507.21949  22047967.4974   22047973.2914
  19328545.054   -26308101.33149 -20478179.61549  19328545.5774   19328551.5604
 95 12  4 18 15 29.9920000  0  5 25 21  1 31 15
  19065755.681   -25119936.76449 -19549270.57149  19065757.2274   19065762.8174
  19691041.909    -7241064.81749  -5551005.19649  19691043.6314   19691050.7674
  19104724.081    -6193129.97049  -4819121.97949  19104724.8254   19104731.3604
  22045527.649    -3749447.72049  -2917503.36549  22045527.9354   22045534.9184
  19298723.337   -26464810.98149 -20600291.03049  19298724.2924   19298730.6124
 95 12  4 18 15 59.9920000  0  5 25 21  1 31 15
  19037916.808   -25266238.48649 -19663271.88849  19037916.9434   19037922.3134
  19684118.417    -7277453.91449  -5579360.36649  19684118.4864   19684126.5194
  19099694.536    -6219557.21349  -4839714.67349  19099695.9304   19099702.5284
  22043104.190    -3762183.41749  -2927427.35949  22043102.4004   22043110.9624
  19268986.779   -26621077.65549 -20722057.26049  19268988.0124   19268994.1404
 95 12  4 18 16 29.9920000  0  5 25 21  1 31 15
  19010163.494   -25412074.82749 -19776910.56949  19010165.2914   19010170.6884
  19677228.475    -7313659.46249  -5607572.50749  19677228.8814   19677236.3794
  19094690.052    -6245855.65649  -4860206.99649  19094691.3704   19094698.2174
  22040686.936    -3774860.89849  -2937305.99649  22040689.0844   22040698.9574
  19239329.453   -26776934.43449 -20843504.09349  19239330.0484   19239336.6304
 95 12  4 18 16 59.9920000  0  5 25 21  1 31 15
  18982493.175   -25557489.65149 -19890220.78249  18982493.7194   18982499.0984
  19670369.072    -7349712.03549  -5635665.44149  19670368.2064   19670375.5124
  19089708.161    -6272051.34949  -4880619.25249  19089706.7264   19089713.4054
  22038282.034    -3787523.56749  -2947173.10449  22038281.3204   22038290.2334
  19209742.220   -26932414.75549 -20964657.58849  19209742.9654   19209749.6064
 95 12  4 18 17 29.9920000  0  5 25 21  1 31 15
  18954902.350   -25702471.60249 -20003193.69449  18954903.8964   18954909.8214
  19663541.233    -7385574.71649  -5663610.40449  19663543.6814   19663551.5384
  19084751.916    -6298081.40649  -4900902.43149  19084753.4524   19084759.8414
  22035884.130    -3800127.55549  -2956994.46149  22035883.8914   22035891.1824
  19180236.513   -27087468.83549 -21085478.94649  19180236.8214   19180243.8794
 95 12  4 18 17 59.9920000  0  5 25 21  1 31 15
  18927404.331   -25846987.26849 -20115803.26949  18927403.8914   18927409.5224
  19656766.609    -7421184.29749  -5691358.16649  19656767.9354   19656775.2644
  19079842.568    -6323886.33949  -4921010.19249  19079842.6484   19079849.2944
  22033503.119    -3812622.48349  -2966730.82849  22033504.6454   22033513.7354
  19150821.605   -27242043.28549 -21205926.56749  19150822.0084   19150829.0034
 95 12  4 18 18 29.9920000  0  5 25 21  1 31 15
  18899967.449   -25991160.69649 -20228146.15549  18899968.5194   18899974.0394
  19650022.721    -7456630.22049  -5718978.38949  19650022.9594   19650029.9524
  19074953.696    -6349584.64949  -4941034.87649  19074952.6964   19074958.8084
  22031127.125    -3825131.94449  -2976478.56649  22031125.5304   22031132.8864
  19121477.967   -27396250.09549 -21326087.71449  19121478.3674   19121484.3684
 95 12  4 18 18 59.9920000  0  5 25 21  1 31 15
  18872618.144   -26134888.76549 -20340142.01049  18872618.1404   18872623.5144
  19643332.907    -7491784.08949  -5746371.02349  19643333.3574   19643340.1394
  19070100.613    -6375064.18049  -4960889.06949  19070104.5214   19070110.4684
  22028758.934    -3837551.35949  -2986156.09849  22028762.3554   22028768.4264
  19092226.348   -27549964.81349 -21445865.41349  19092227.6104   19092233.3034
 95 12  4 18 19 29.9920000  0  5 25 21  1 31 15
  18845324.936   -26278309.27749 -20451898.20349  18845325.7964   18845331.4354
  19636672.239    -7526779.08249  -5773639.87049  19636674.1194   19636682.2034
  19065268.792    -6400476.25849  -4980690.70149  19065268.8464   19065274.8254
  22026385.162    -3850004.86049  -2995860.16349  22026389.6664   22026399.6324
  19063044.327   -27703316.57049 -21565360.27349  19063045.2944   19063051.4444
 95 12  4 18 19 59.9920000  0  5 25 21  1 31 15
  18818109.086   -26421336.14449 -20563347.66449  18818109.3054   18818114.2884
  19630059.397    -7561533.54149  -5800721.29949  19630060.3184   19630067.5324
  19060453.461    -6425771.96249  -5000401.65349  19060454.9124   19060461.0434
  22024026.300    -3862423.78849  -3005537.32049  22024028.6974   22024036.2934
  19033944.397   -27856235.51749 -21684517.88849  19033945.7544   19033952.2144
 95 12  4 18 20 29.9920000  0  5 25 21  1 31 15
  18790964.879   -26563971.30549 -20674491.91149  18790966.4054   18790971.7804
  19623492.244    -7596054.78149  -5827621.00749  19623491.5924   19623499.1554
  19055658.163    -6450970.39349  -5020036.80149  19055660.2384   19055665.6724
  22021672.485    -3874819.79249  -3015196.64649  22021670.3014   22021678.6064
  19004926.003   -28008727.51149 -21803342.81249  19004927.3034   19004934.0534
 95 12  4 18 20 59.9920000  0  6 25 21  1 31 15 14
  18763906.376   -26706170.98349 -20785296.80949  18763906.4154   18763911.9014
  19616973.207    -7630319.60049  -5854320.88449  19616970.6634   19616979.7124
  19050890.463    -6476042.53149  -5039573.55149  19050889.0324   19050895.0364
  22019320.506    -3887159.88049  -3024812.39649  22019321.5744   22019329.5864
  18975995.536   -28160754.74749 -21921805.57449  18975997.3334   18976004.3364
  22371470.536   -12582832.63659  -9768676.55659  22371469.3354   22371479.3184
 95 12  4 18 21 29.9920000  0  6 25 21  1 31 15 14
  18736924.509   -26847956.94449 -20895779.34849  18736925.3764   18736931.2384
  19610491.009    -7664371.37049  -5880854.76749  19610490.5724   19610499.9424
  19046131.867    -6501038.79149  -5059051.16649  19046132.0344   19046138.6434
  22016974.674    -3899483.50649  -3034415.33549  22016976.8314   22016984.2904
  18947147.571   -28312362.01349 -22039941.10049  18947148.1154   18947154.7034
  22338644.870   -12755328.00049  -9903088.47849  22338643.4184   22338655.3954
 95 12  4 18 21 59.9920000  0  6 25 21  1 31 15 14
  18710028.752   -26989293.89349 -21005912.00349  18710030.0984   18710035.6374
  19604051.487    -7698205.91649  -5907219.38149  19604052.0714   19604059.8764
  19041393.596    -6525933.25849  -5078449.46849  19041394.8014   19041401.2974
  22014633.876    -3911795.64849  -3044009.28149  22014634.5934   22014641.3194
  18918380.534   -28463532.74649 -22157736.45949  18918380.7494   18918387.0154
  22305799.473   -12927930.69249 -10037584.05149  22305800.7474   22305808.4194
 95 12  4 18 22 29.9910000  0  6 25 21  1 31 15 14
  18683226.975   -27130142.58049 -21115664.20349  18683227.3904   18683232.7364
  19597657.306    -7731799.46249  -5933396.20149  19597659.6084   19597667.4324
  19036681.901    -6550689.77649  -5097740.28649  19036683.3894   19036690.1624
  22012296.377    -3924074.88849  -3053577.62949  22012296.4704   22012305.9304
  18889704.150   -28614227.07849 -22275160.61349  18889704.6464   18889711.1934
  22272942.012   -13100590.92249 -10172124.48349  22272942.2774   22272952.5074
 95 12  4 18 22 59.9910000  0  6 25 21  1 31 15 14
  18656512.630   -27270522.40549 -21225051.05449  18656514.7164   18656519.6934
  19591309.258    -7765177.79649  -5959405.33749  19591308.2994   19591315.7554
  19031998.325    -6575313.21949  -5116927.40449  19031997.9544   19032004.4644
  22009962.151    -3936338.10549  -3063133.45249  22009961.9184   22009972.9084
  18861114.286   -28764467.55249 -22392231.10649  18861114.8474   18861121.1014
  22240073.956   -13273331.86249 -10306727.78549  22240072.1984   22240081.4724
 95 12  4 18 23 29.9910000  0  6 25 21  1 31 15 14
  18629887.777   -27410434.82549 -21334073.68249  18629889.8204   18629894.8194
  19584999.101    -7798340.97549  -5985246.80749  19584998.0324   19585005.1544
  19027336.938    -6599808.66649  -5136014.77649  19027336.3574   19027343.5104
  22007629.653    -3948590.57649  -3072680.92949  22007630.7634   22007640.1774
  18832611.309   -28914251.37549 -22508945.76249  18832612.0014   18832618.6124
  22207186.928   -13446141.78049 -10441384.86549  22207186.8694   22207195.1244
 95 12  4 18 23 59.9910000  0  6 25 21  1 31 15 14
  18603346.999   -27549928.71849 -21442770.19749  18603345.1334   18603350.6014
  19578721.992    -7831317.41049  -6010942.75949  19578722.5564   19578729.3184
  19022691.911    -6624208.60049  -5155027.74249  19022693.5824   19022700.1984
  22005294.442    -3960876.60949  -3082254.56249  22005292.7484   22005301.9594
  18804190.110   -29063606.23149 -22625326.16649  18804190.7874   18804196.9674
  22174284.728   -13619039.57749 -10576110.40849  22174286.1294   22174295.9564
 95 12  4 18 24 29.9910000  0  6 25 21  1 31 15 14
  18576885.271   -27688960.21449 -21551106.40449  18576888.3994   18576893.7784
  19572493.981    -7864053.97149  -6036451.81549  19572493.4574   19572500.5084
  19018075.186    -6648482.15249  -5173942.21949  19018074.6084   19018081.5794
  22002956.439    -3973143.06149  -3091812.95849  22002958.8834   22002966.5584
  18775859.166   -29212480.83049 -22741332.33949  18775860.9824   18775866.7124
  22141377.033   -13791986.28549 -10710874.08049  22141375.6324   22141384.0084
 95 12  4 18 24 59.9910000  0  6 25 21  1 31 15 14
  18550513.126   -27827560.15949 -21659106.33059  18550513.5574   18550519.0084
  19566303.988    -7896578.68949  -6061795.79059  19566303.8604   19566311.8834
  19013472.090    -6672658.88449  -5192781.26059  19013473.8314   19013480.5264
  22000624.082    -3985421.82049  -3101380.92749  22000622.0304   22000627.1594
  18747616.724   -29360903.32249 -22856986.22759  18747616.4904   18747623.2594
  22108447.412   -13965018.96449 -10845704.75349  22108447.1154   22108456.0874
 95 12  4 18 25 29.9910000  0  6 25 21  1 31 15 14
  18524222.723   -27965710.62849 -21766756.01649  18524219.3774   18524232.6644
  19560158.609    -7928875.05349  -6086961.85149  19560171.4434   19560171.9014
  19008891.774    -6696720.18549  -5211530.33749  19008898.4874   19008895.1624
  21998285.338    -3997701.92949  -3110949.91949  21998283.8874   21998297.2394
  18719461.284   -29508853.76049 -22972272.28449  18719460.0524   18719478.8514
  22075507.204   -14138115.51749 -10980585.14549  22075508.3514   22075518.5124
 95 12  4 18 25 59.9910000  0  6 25 21  1 31 15 14
  18498016.899   -28103426.61549 -21874067.14659  18498017.7894   18498023.7744
  19554045.613    -7960975.48049  -6111975.19159  19554049.3644   19554057.5984
  19004339.070    -6720673.91749  -5230195.61559  19004337.4864   19004343.3774
  21995941.551    -4009996.68449  -3120530.30849  21995943.4804   21995952.0494
  18691395.592   -29656346.82649 -23087201.94459  18691396.2924   18691402.7954
  22042549.941   -14311302.70849 -11115536.17549  22042552.8714   22042560.8604
 95 12  4 18 26 29.9910000  0  6 25 21  1 31 15 14
  18471905.199   -28240646.73849 -21980991.89659  18471906.1984   18471911.0284
  19547985.496    -7992821.82349  -6136790.56759  19547990.0614   19547995.9334
  18999812.223    -6744451.45849  -5248723.59959  18999813.5034   18999818.3694
  21993615.399    -4022231.11158                                  21993612.8094
  18663427.431   -29803317.52449 -23201724.56359  18663428.2124   18663435.0594
  22009589.041   -14484517.33949 -11250508.58449  22009591.2124   22009598.4154
 95 12  4 18 26 59.9910000  0  6 25 21  1 31 15 14
  18445863.735   -28377488.92249 -22087622.13159  18445865.7254   18445871.4234
  19541957.993    -8024513.16349  -6161485.13759  19541959.6224   19541969.0034
  18995303.929    -6768140.35549  -5267182.50859  18995305.1424   18995311.2944
  21991279.794    -4034516.72319
  18635538.302   -29949872.42149 -23315923.19059  18635539.5314   18635546.3964
  21976603.091   -14657854.34349 -11385576.37249  21976605.2204   21976613.8934
 95 12  4 18 27 29.9910000  0  6 25 21  1 31 15 14
  18419912.446   -28513873.37749 -22193895.71059  18419911.2084   18419918.2424
  19535970.919    -8055975.08949  -6186000.97759  19535966.8314   19535976.3744
  18990828.056    -6791667.08949  -5285515.05459  18990824.1114   18990831.1224
  21988951.652    -4046771.80319
  18607745.178   -30095932.28349 -23429736.07459  18607746.5354   18607751.8824
  21943609.364   -14831245.77249 -11520686.54749  21943608.6024   21943618.9784
 95 12  4 18 27 59.9910000  0  6 25 21  1 31 15 14
  18394040.035   -28649829.12049 -22299835.23659  18394040.9054   18394046.6374
  19530026.020    -8087226.59749  -6210352.81759  19530024.7194   19530032.0274
  18986370.488    -6815082.76549  -5303761.06059  18986371.9094   18986377.6964
  21986635.442    -4059021.63719
  18580039.174   -30241525.73149 -23543185.51059  18580039.9824   18580046.9144
  21910597.068   -15004736.43249 -11655874.04149  21910594.4144   21910605.6824
 95 12  4 18 28 29.9910000  0  6 25 21  1 31 15 14
  18368256.173   -28785323.96949 -22405415.60959  18368261.9464   18368269.9544
  19524123.578    -8118222.39449  -6234505.39659  19524118.0904   19524138.5404
  18981938.522    -6838376.48049  -5321912.02659  18981937.9844   18981956.7514
  21984291.064    -4071262.58919
  18552428.098   -30386624.90149 -23656249.78459  18552434.9614   18552435.1854
  21877568.511   -15178304.53249 -11791121.94849  21877568.3454   21877575.6704
 95 12  4 18 28 59.9910000  0  6 25 21  1 31 15 14
  18342558.032   -28920358.56049 -22510637.35959  18342560.7724   18342566.4884
  19518272.092    -8148980.99849  -6258473.15959  19518273.2754   19518279.8864
  18977523.052    -6861588.35449  -5339999.21759  18977522.3174   18977528.4684
  21981954.104    -4083526.85119
  18524905.389   -30531254.03049 -23768947.80959  18524906.6314   18524912.7894
  21844515.471   -15351988.17449 -11926459.83249  21844515.1924   21844525.1114
 95 12  4 18 29 29.9910000  0  6 25 21  1 31 15 14
  18316949.902   -29054939.42749 -22615505.55449  18316950.6954   18316956.9204
  19512458.610    -8179517.99849  -6282268.27049  19512461.6204   19512469.1114
  18973114.244    -6884744.32149  -5358042.83749  18973115.7324   18973121.6644
  21979613.322    -4095827.62619
  18497472.332   -30675420.83249 -23881285.56949  18497472.4934   18497479.2894
  21811434.661   -15525802.55649 -12061899.60749  21811439.9274   21811448.6464
 95 12  4 18 29 59.9910000  0  6 25 21  1 31 15 14
  18291431.483   -29189037.98249 -22719997.89849  18291432.6104   18291438.3164
  19506696.824    -8209794.12649  -6305860.07549  19506699.8214   19506707.6524
  18968722.675    -6907818.43749  -5376022.68549  18968724.7114   18968731.0584
  21977273.573    -4108141.498 9
  18470133.050   -30819088.38749 -23993234.31249  18470133.1214   18470140.0304
  21778349.318   -15699698.67349 -12197403.10149  21778349.1124   21778358.4594
 95 12  4 18 30 29.9910000  0  6 25 21  1 31 15 14
  18266003.797   -29322658.13349 -22824117.47649  18266005.4534   18266011.6324
  19500985.424    -8239816.30749  -6329254.00949  19500987.4354   19500994.6384
  18964350.655    -6930797.46949  -5393928.43949  18964351.5674   18964358.2114
  21974916.388    -4120483.789 9    -21544.69459                  21974931.8444
  18442887.724   -30962256.90249 -24104794.18849  18442888.9304   18442896.1844
  21745243.718   -15873664.00649 -12332960.48549  21745244.5834   21745254.6834
 95 12  4 18 30 59.9910000  0  6 25 21  1 31 15 14
  18240661.603   -29455840.25349 -22927895.73649  18240662.0914   18240667.6924
  19495315.026    -8269632.19449  -6352487.18649  19495313.8214   19495320.0104
  18959990.522    -6953699.22449  -5411773.98149  18959993.5554   18960000.1734
  21972557.835    -4132888.17159    -31210.59159  21972560.9694   21972569.7134
  18415732.683   -31104959.76949 -24215991.22549  18415733.9874   18415740.5324
  21712126.526   -16047730.67049 -12468596.89849  21712123.0654   21712131.2504
 95 12  4 18 31 29.9900000  0  6 25 21  1 31 15 14
  18215398.325   -29588595.38749 -23031341.27149  18215399.2104   18215405.2114
  19489676.218    -8299251.00549  -6375566.80449  19489678.6094   19489685.6764
  18955652.274    -6976515.72949  -5429553.09449  18955652.2574   18955658.3134
  21970190.102    -4145346.78149    -40918.68049  21970189.5644   21970199.2894
  18388669.595   -31247186.20549 -24326817.01049  18388669.6094   18388675.8864
  21678979.566   -16221884.93249 -12604301.49049  21678979.6554   21678989.3794
 95 12  4 18 31 59.9900000  0  6 25 21  1 31 15 14
  18190217.826   -29720920.08849 -23134451.41549  18190218.7864   18190224.4204
  19484080.530    -8328668.26049  -6398489.37349  19484080.3474   19484087.1134
  18951326.606    -6999254.00849  -5447271.26349  18951325.5074   18951331.0944
  21967810.506    -4157863.44559    -50671.97449  21967808.0764   21967815.6894
  18361691.861   -31388942.75249 -24437276.65349  18361693.7684   18361700.5394
  21645824.774   -16396131.27649 -12740077.87449  21645822.6614   21645832.6944
 95 12  4 18 32 29.9900000  0  6 25 21  1 31 15 14
  18165127.554   -29852765.50849 -23237188.10249  18165129.3274   18165134.8374
  19478526.061    -8357849.28949  -6421227.86749  19478526.4434   19478534.5914
  18947020.281    -7021867.60949  -5464892.29049  18947022.1154   18947028.1384
  21965420.592    -4170391.34949    -60434.03949  21965424.4964   21965432.7004
  18334814.878   -31530188.07249 -24547337.93849  18334815.7424   18334822.6854
  21612646.042   -16570448.70349 -12875909.62649  21612651.2004   21612659.5484
 95 12  4 18 32 59.9900000  0  6 25 21  1 31 15 14
  18140136.081   -29984098.09049 -23339525.16949  18140136.8814   18140142.8314
  19473024.591    -8386766.65149  -6443760.92049  19473024.1324   19473031.5204
  18942745.496    -7044342.22949  -5482405.02049  18942745.1954   18942751.9534
  21963043.124    -4182889.11849    -70172.64449  21963045.9564   21963055.2024
  18308040.141   -31670889.89449 -24656975.71949  18308041.0164   18308047.6034
  21579472.166   -16744806.01549 -13011772.41349  21579472.9654   21579480.7474
 95 12  4 18 33 29.9900000  0  6 25 21  1 31 15 14
  18115242.657   -30114912.13249 -23441458.19049  18115244.3314   18115249.8824
  19467574.978    -8415407.73749  -6466078.69249  19467574.3234   19467581.9834
  18938493.036    -7066692.75249  -5499821.06749  18938492.4144   18938498.3384
  21960669.981    -4195368.74849    -79897.12249  21960671.1544   21960679.9784
  18281369.299   -31811042.56549 -24766185.58949  18281370.7864   18281377.5274
  21546290.414   -16919193.07449 -13147658.41649  21546289.0624   21546296.4684
 95 12  4 18 33 59.9900000  0  6 25 21  1 31 15 14
  18090430.131   -30245300.58049 -23543059.56549  18090432.0204   18090437.3834
  19462153.320    -8443874.37349  -6488260.50949  19462156.5464   19462163.6764
  18934243.900    -7089015.71349  -5517215.62349  18934245.0804   18934250.0204
  21958276.551    -4207946.55749    -89698.09149  21958277.7154   21958287.1644
  18254784.300   -31950748.62849 -24875047.45249  18254785.3634   18254792.3124
  21513074.556   -17093719.92049 -13283653.28749  21513074.8444   21513083.8494
 95 12  4 18 34 29.9900000  0  6 25 21  1 31 15 14
  18065703.405   -30375250.13749 -23644318.95149  18065703.7994   18065708.9584
  19456771.486    -8472165.62049  -6510305.66849  19456773.2874   19456779.6904
  18930005.423    -7111287.62149  -5534570.40149  18930005.7164   18930011.8634
  21955868.339    -4220611.38249    -99566.86349  21955867.8254   21955877.0854
  18228287.829   -32089990.03249 -24983547.25349  18228289.2164   18228296.0034
  21479840.104   -17268376.16149 -13419749.01449  21479841.5304   21479847.6004
 95 12  4 18 34 59.9900000  0  6 25 21  1 31 15 14
  18041075.957   -30504664.57849 -23745161.37649  18041076.8084   18041082.3594
  19451440.120    -8500185.14149  -6532139.08649  19451441.3764   19451449.2804
  18925793.151    -7133429.31249  -5551823.71749  18925792.5574   18925798.7324
  21953454.664    -4233284.93549   -109442.44249  21953456.7584   21953465.6394
  18201897.927   -32228670.82349 -25091610.19949  18201898.7444   18201905.6644
  21446603.132   -17443044.69149 -13555854.29349  21446601.8484   21446609.3194
 95 12  4 18 35 29.9900000  0  6 25 21  1 31 15 14
  18016541.291   -30633598.65749 -23845629.48649  18016541.6334   18016546.9084
  19446148.837    -8527990.78649  -6553805.87049  19446150.1814   19446156.7624
  18921595.044    -7155485.19849  -5569010.16949  18921595.5094   18921601.7984
  21951031.623    -4246026.33949   -119370.89549  21951032.1884   21951041.3694
  18175604.338   -32366843.82849 -25199277.48249  18175605.2884   18175611.7824
  21413349.100   -17617793.03349 -13692021.75749  21413348.5614   21413356.3024
 95 12  4 18 35 59.9900000  0  5 25 21  1 15 14
  17992106.895   -30761989.21449 -23945674.06949  17992109.4314   17992114.8224
  19440908.944    -8555535.26849  -6575269.14349  19440908.6544   19440916.3924
  18917421.587    -7177414.04149  -5586097.62549  18917422.5244   18917428.7964
  18149416.819   -32504459.99249 -25306510.85649  18149417.7904   18149424.7444
  21380085.412   -17792566.00249 -13828208.42949  21380090.0484   21380097.3864
 95 12  4 18 36 29.9900000  0  5 25 21  1 15 14
  17967760.032   -30889956.26249 -24045388.65149  17967758.5164   17967763.3774
  19435695.387    -8582930.36749  -6596616.00549  19435695.0654   19435703.5184
  18913248.861    -7199347.00249  -5603188.28149  18913249.0734   18913255.5594
  18123312.862   -32641636.36149 -25413401.52849  18123314.1114   18123320.7834
  21346806.615   -17967471.96149 -13964498.74149  21346806.5644   21346813.9004
 95 12  4 18 36 59.9900000  0  5 25 21  1 15 14
  17943511.255   -31017367.15949 -24144669.86149  17943513.2024   17943517.6974
  19430536.858    -8610032.31849  -6617734.45349  19430537.9824   19430545.8874
  18909099.396    -7221146.01949  -5620174.56149  18909100.5544   18909107.1694
  18097318.747   -32778235.70249 -25519842.56949  18097319.9744   18097326.3954
  21313521.815   -18142375.02249 -14100786.78049  21313524.6124   21313532.0214
 95 12  4 18 37 29.9900000  0  5 25 21  1 15 14
  17919359.844   -31144284.40449 -24243566.40849  17919361.6964   17919366.4064
  19425423.160    -8636906.11949  -6638675.11049  19425423.9104   19425431.7244
  18904968.461    -7242862.32149  -5637096.38449  18904968.2884   18904974.6864
  18071424.521   -32914316.55449 -25625879.59749  18071424.8434   18071431.2984
  21280226.972   -18317338.76249 -14237122.12749  21280228.7774   21280237.9634
 95 12  4 18 37 59.9900000  0  5 25 21  1 15 14
  17895290.337   -31270779.48849 -24342133.98849  17895290.3414   17895295.0394
  19420341.828    -8663603.70849  -6659478.47049  19420344.2154   19420351.5724
  18900839.692    -7264557.44049  -5654001.68949  18900840.0264   18900846.2864
  18045617.139   -33049934.09949 -25731555.60649  18045617.9114   18045624.0114
  21246915.531   -18492404.66049 -14373537.06849  21246915.1744   21246923.5544
 95 12  4 18 38 29.9900000  0  5 25 21  1 15 14
  17871313.321   -31396768.73149 -24440307.41149  17871315.2434   17871320.2784
  19415319.298    -8690020.50949  -6680063.02849  19415317.6864   19415325.2024
  18896739.179    -7286100.60149  -5670788.58249  18896740.5384   18896747.0554
  18019919.074   -33184974.88549 -25836782.19249  18019920.3894   18019927.0934
  21213601.740   -18667474.81049 -14509955.33949  21213599.6034   21213609.3294
 95 12  4 18 38 59.9900000  0  5 25 21  1 15 14
  17847426.900   -31522295.13749 -24538120.16749  17847428.3014   17847433.5674
  19410336.470    -8716209.24649  -6700469.86749  19410334.5044   19410341.1464
  18892662.453    -7307532.55649  -5687488.82549  18892662.5684   18892668.6764
  17994324.069   -33319480.56349 -25941591.80949  17994324.9974   17994331.3244
  21180273.261   -18842593.28249 -14646411.26449  21180276.2514   21180284.5684
 95 12  4 18 39 29.9900000  0  5 25 21  1 15 14
  17823633.813   -31647327.85249 -24635548.23149  17823635.0884   17823640.5654
  19405396.867    -8742151.20149  -6720684.42849  19405396.8404   19405404.4414
  18888605.036    -7328845.93949  -5704096.66949  18888606.4374   18888612.8674
  17968834.613   -33453425.26049 -26045964.30349  17968835.7244   17968842.4824
  21146948.380   -19017738.00749 -14782887.66849  21146947.6064   21146956.4354
 95 12  4 18 39 59.9890000  0  5 25 21  1 15 14
  17799926.844   -31771908.84049 -24732624.30849  17799928.6724   17799933.4684
  19400498.975    -8767892.70949  -6740742.77249  19400500.1354   19400507.1684
  18884563.109    -7350099.56349  -5720657.94749  18884562.7794   18884568.4694
  17943443.285   -33586858.21849 -26149938.03849  17943444.5764   17943451.3064
  21113598.315   -19192980.25549 -14919440.03049  21113599.9974   21113608.5884
 95 12  4 18 40 29.9890000  0  5 25 21  1 15 14
  17776318.591   -31895980.69849 -24829303.66149  17776318.8534   17776323.2204
  19395639.134    -8793419.41049  -6760633.74949  19395640.1284   19395650.1634
  18880535.451    -7371268.35949  -5737153.12849  18880533.9634   18880540.3224
  17918153.380   -33719756.22649 -26253494.93149  17918154.4044   17918161.6734
  21080236.977   -19368316.44749 -15056065.59049  21080235.7494   21080243.6434
 95 12  4 18 40 59.9890000  0  5 25 21  1 15 14
  17752803.135   -32019547.52449 -24925589.47749  17752804.4944   17752809.3894
  19390819.114    -8818747.28249  -6780369.79449  19390820.8414   19390829.9404
  18876511.237    -7392406.08849  -5753624.09949  18876511.8314   18876518.0924
  17892960.825   -33852144.42149 -26356654.57049  17892961.6414   17892968.7104
  21046845.264   -19543770.66149 -15192783.11649  21046846.3814   21046855.5984
 95 12  4 18 41 29.9890000  0  5 25 21  1 15 14
  17729390.485   -32142587.76649 -25021464.97049  17729390.6984   17729395.9564
  19386047.835    -8843828.03949  -6799913.27249  19386049.1764   19386056.5344
  18872499.531    -7413487.15249  -5770050.90849  18872500.3104   18872506.8824
  17867870.898   -33983993.44349 -26459394.05749  17867871.9234   17867879.3054
  21013441.080   -19719314.30649 -15329570.33749  21013442.0924   21013450.2774
 95 12  4 18 41 59.9890000  0  5 25 21  1 15 14
  17706074.227   -32265109.75549 -25116936.62849  17706075.3474   17706080.9774
  19381323.209    -8868660.96349  -6819263.64849  19381323.5184   19381330.7444
  18868502.133    -7434497.63149  -5786422.71949  18868502.1864   18868508.5394
  17842882.997   -34115303.47749 -26561713.57049  17842884.2604   17842891.5834
  20980021.266   -19894933.19449 -15466416.19749  20980023.2334   20980031.1584
 95 12  4 18 42 29.9890000  0  5 25 21  1 15 14
  17682846.021   -32387173.59849 -25212051.28949  17682847.3804   17682852.6144
  19376631.183    -8893299.28049  -6838462.36049  19376635.7764   19376642.7114
  18864507.559    -7455490.41649  -5802780.75349  18864507.3174   18864514.0234
  17817990.855   -34246117.59249 -26663646.64449  17817991.4394   17817998.5044
  20946585.698   -20070644.62749 -15603334.15549  20946584.6114   20946593.7664
 95 12  4 18 42 59.9890000  0  5 25 21  1 15 14
  17659712.250   -32508742.09549 -25306779.96849  17659713.7554   17659719.2814
  19371999.943    -8917652.26049  -6857438.74549  19372001.3244   19372009.7824
  18860527.533    -7476393.38449  -5819068.79149  18860529.1844   18860536.0704
  17793205.713   -34376363.66749 -26765137.10449  17793206.3544   17793213.5914
  20913146.237   -20246362.67449 -15740257.28549  20913147.5144   20913156.1584
 95 12  4 18 43 29.9890000  0  5 25 21  1 15 14
  17636655.546   -32629908.69549 -25401195.49149  17636656.5864   17636661.8654
  19367399.085    -8941834.58949  -6876282.14449  19367399.0614   19367407.1614
  18856554.479    -7497280.65149  -5835344.61049  18856555.2274   18856561.8334
  17768509.940   -34506134.34849 -26866257.12249  17768511.6034   17768518.4264
  20879694.852   -20422171.25249 -15877250.94449  20879693.1794   20879700.3774
 95 12  4 18 43 59.9890000  0  5 25 21  1 15 14
  17613695.979   -32750565.60449 -25495213.84649  17613696.1844   17613701.9084
  19362841.741    -8965773.44349  -6894935.82249  19362843.9134   19362852.1564
  18852602.147    -7518067.34049  -5851542.05749  18852599.5484   18852605.8214
  17743925.761   -34635333.74249 -26966931.98449  17743926.4734   17743933.1544
  20846240.403   -20597977.51049 -16014242.78749  20846237.5324   20846245.9404
 95 12  4 18 44 29.9890000  0  5 25 21  1 15 14
  17590826.996   -32870738.45749 -25588855.01049  17590828.1564   17590833.6844
  19358329.375    -8989492.42249  -6913418.17949  19358329.6694   19358338.6874
  18848650.922    -7538803.48449  -5867700.11249  18848653.7754   18848660.1684
  17719442.660   -34763990.86249 -27067184.29749  17719443.4614   17719450.4274
  20812775.862   -20773819.78049 -16151262.71449  20812776.1464   20812784.1094
 95 12  4 18 44 59.9890000  0  5 25 21  1 15 14
  17568050.633   -32990431.98849 -25682122.67749  17568050.9614   17568056.6254
  19353851.975    -9013018.94049  -6931750.58249  19353853.1144   19353861.3004
  18844712.003    -7559516.98149  -5883840.52449  18844711.7314   18844718.4714
  17695057.280   -34892132.65849 -27167035.05549  17695058.8134   17695065.7354
  20779298.608   -20949731.40149 -16288336.69049  20779301.7304   20779309.0644
 95 12  4 18 45 29.9890000  0  5 25 21  1 15 14
  17545388.083   -33109523.31249 -25774921.08749  17545388.6734   17545394.8734
  19349429.983    -9036258.16249  -6949859.10449  19349431.1484   19349440.1574
  18840790.872    -7580115.13249  -5899891.06049  18840791.7934   18840798.6574
  17670790.430   -35019656.65949 -27266404.41149  17670791.6744   17670798.9664
  20745833.727   -21125616.79249 -16425390.17549  20745831.8174   20745838.3954
 95 12  4 18 45 59.9890000  0  5 25 21  1 15 14
  17522831.731   -33228050.67049 -25867280.04749  17522833.5144   17522839.4114
  19345060.324    -9059229.02349  -6967758.51749  19345060.5764   19345066.4514
  18836882.119    -7600647.70949  -5915890.50449  18836885.2884   18836891.1184
  17646635.652   -35146592.61949 -27365315.55649  17646636.7614   17646643.6444
  20712360.931   -21301510.88449 -16562450.48949  20712359.7844   20712367.7954
 95 12  4 18 46 29.9890000  0  5 25 21  1 15 14
  17500368.777   -33346098.45149 -25959265.31549  17500369.6514   17500375.8824
  19340725.572    -9082003.86649  -6985505.17749  19340724.9234   19340733.5054
  18832974.851    -7621178.84049  -5931888.81649  18832977.6494   18832984.1864
  17622577.924   -35273016.19049 -27463827.43649  17622579.2134   17622586.2684
  20678871.052   -21477490.00849 -16699577.01949  20678872.9364   20678879.5444
 95 12  4 18 46 59.9890000  0  5 25 21  1 15 14
  17478009.284   -33463600.03149 -26050824.96549  17478009.8644   17478015.8124
  19336437.875    -9104517.17649  -7003048.05649  19336440.6414   19336450.2094
  18829086.390    -7641625.34549  -5947821.16649  18829086.8234   18829093.8234
  17598630.783   -35398858.63949 -27561886.49749  17598632.3514   17598639.1214
  20645379.608   -21653495.89749 -16836724.43949  20645380.1304   20645387.2124
 95 12  4 18 47 29.9890000  0  5 25 21  1 15 14
  17455738.858   -33580630.75249 -26142017.72949  17455739.8324   17455745.9014
  19332196.760    -9126822.58149  -7020428.94849  19332196.4094   19332204.7254
  18825203.263    -7662028.55349  -5963719.79349  18825203.4174   18825210.6784
  17574786.047   -35524169.36149 -27659531.21449  17574786.4644   17574793.2654
  20611869.187   -21829587.63049 -16973938.72949  20611869.6854   20611878.2944
 95 12  4 18 47 59.9890000  0  5 25 21  1 15 14
  17433565.669   -33697155.86049 -26232816.51149  17433565.6494   17433571.8714
  19327994.769    -9148887.71749  -7037622.62449  19327998.4324   19328005.6614
  18821338.567    -7682341.26649  -5979547.92449  18821337.4184   18821345.2994
  17551050.520   -35648902.06249 -27756725.53449  17551050.7504   17551057.2954
  20578352.339   -22005728.32149 -17111191.17649  20578352.1184   20578359.5534
 95 12  4 18 48 29.9880000  0  5 25 21  1 15 14
  17411468.495   -33813261.18649 -26323288.19449  17411471.3434   17411477.7414
  19323828.419    -9170796.27449  -7054694.29149  19323828.5044   19323836.5194
  18817474.931    -7702648.33949  -5995371.64349  18817474.3804   18817480.7374
  17527407.036   -35773140.18949 -27853534.47249  17527409.2384   17527415.6954
  20544805.444   -22182003.08249 -17248548.10249  20544807.3374   20544815.1114
 95 12  4 18 48 59.9880000  0  5 25 21  1 15 14
  17389465.875   -33928907.12649 -26413401.91149  17389464.8634   17389471.0014
  19319695.448    -9192500.46349  -7071606.71449  19319699.2744   19319707.3734
  18813614.406    -7722921.76749  -6011169.15149  18813616.6384   18813622.8474
  17503866.908   -35896850.65049 -27949932.23149  17503867.4774   17503874.3244
  20511241.344   -22358388.24749 -17385991.04849  20511242.7664   20511251.0764
 95 12  4 18 49 29.9880000  0  5 25 21  1 15 14
  17367561.445   -34044011.05949 -26503093.28949  17367561.3644   17367567.5444
  19315622.085    -9213925.17749  -7088301.36549  19315622.3794   19315630.4134
  18809776.336    -7743098.50749  -6026891.32049  18809776.9614   18809783.6344
  17480439.454   -36019953.34349 -28045856.40149  17480441.0684   17480449.0884
  20477668.941   -22534804.35949 -17523458.12449  20477671.3384   20477679.1544
 95 12  4 18 49 59.9880000  0  5 25 21  1 15 14
  17345765.476   -34158551.01949 -26592345.20449  17345765.5374   17345771.1244
  19311602.056    -9235053.62349  -7104765.14849  19311603.0374   19311610.5904
  18805955.471    -7763178.62249  -6042538.20849  18805955.9944   18805961.7744
  17457133.561   -36142435.66049 -28141297.15349  17457133.9834   17457141.2724
  20444097.649   -22711234.81549 -17660936.36349  20444098.0484   20444106.5344
 95 12  4 18 50 29.9880000  0  5 25 21  1 15 14
  17324054.260   -34272634.70849 -26681241.58449  17324055.7504   17324061.8504
  19307616.733    -9255982.03249  -7121073.04349  19307620.0994   19307627.1894
  18802131.697    -7783271.55649  -6058195.07049  18802132.3084   18802139.3144
  17433923.364   -36264403.69749 -28236337.17049  17433924.2074   17433931.3674
  20410501.472   -22887781.25949 -17798504.99749  20410502.0644   20410510.1494
 95 12  4 18 50 59.9880000  0  5 25 21  1 15 14
  17302444.844   -34386203.03049 -26769736.38749  17302444.7004   17302450.0494
  19303682.876    -9276657.75749  -7137184.08049  19303684.3024   19303691.8184
  18798318.150    -7803311.89349  -6073810.96149  18798319.0034   18798325.7834
  17410823.701   -36385795.37749 -28330928.07849  17410824.6254   17410831.5934
  20376897.715   -23064381.89049 -17936115.82349  20376896.2834   20376903.7854
 95 12  4 18 51 29.9880000  0  5 25 21  1 15 14
  17280930.228   -34499255.14249 -26857828.94349  17280931.2924   17280937.1944
  19299799.299    -9297090.05749  -7153105.39749  19299796.9164   19299803.4964
  18794516.200    -7823277.72749  -6089368.79849  18794519.1274   18794526.2734
  17387835.093   -36506597.13549 -28425059.30649  17387836.3574   17387843.3864
  20343283.427   -23241010.54049 -18073748.51349  20343285.2084   20343293.6504
 95 12  4 18 51 59.9880000  0  5 25 21  1 15 14
  17259513.731   -34611798.37449 -26945524.97349  17259514.5254   17259520.7194
  19295950.190    -9317286.86849  -7168843.24749  19295954.2234   19295960.5864
  18790738.121    -7843164.21549  -6104864.80449  18790735.1594   18790741.5564
  17364960.477   -36626806.98249 -28518729.31049  17364961.6714   17364968.2524
  20309671.179   -23417647.42449 -18211387.62449  20309672.6004   20309680.4924
 95 12  4 18 52 29.9880000  0  5 25 21  1 15 14
  17238187.423   -34723880.91949 -27032862.03549  17238186.4594   17238192.2124
  19292147.268    -9337300.13349  -7184438.06249  19292144.9844   19292153.7544
  18786953.291    -7863020.87849  -6120337.57649  18786956.6764   18786963.3994
  17342188.872   -36746473.62849 -28611976.03449  17342189.4984   17342196.4774
  20276048.471   -23594343.99749 -18349073.24049  20276047.6274   20276056.4344
 95 12  4 18 52 59.9880000  0  5 25 21  1 15 14
  17216951.251   -34835456.35049 -27119803.93449  17216954.3064   17216960.3054
  19288375.243    -9357109.05249  -7199873.65449  19288375.4444   19288383.4854
  18783190.633    -7882815.05749  -6135761.63449  18783190.1434   18783197.3304
  17319528.156   -36865556.18949 -28704767.63149  17319529.0644   17319535.9314
  20242419.317   -23771056.38149 -18486771.13949  20242420.0574   20242427.9764
 95 12  4 18 53 29.9880000  0  5 25 21  1 15 14
  17195819.657   -34946521.33049 -27206348.08749  17195819.3014   17195825.3904
  19284643.866    -9376714.45149  -7215150.63249  19284643.9144   19284651.8854
  18779429.169    -7902559.43449  -6151146.90249  18779432.4204   18779440.1544
  17296977.712   -36984055.03249 -28797104.39149  17296979.1964   17296986.1964
  20208791.102   -23947787.17249 -18624483.41149  20208789.7994   20208797.8954
 95 12  4 18 53 59.9880000  0  5 25 21  1 15 14
  17174769.863   -35057126.11349 -27292533.64649  17174772.0304   17174777.4634
  19280940.072    -9396163.89449  -7230306.09459  19280942.4424   19280953.7514
  18775666.619    -7922348.01849  -6166566.61149  18775666.6164   18775674.1464
  17274527.361   -37102037.14949 -28889038.49749  17274527.9154   17274535.2194
  20175134.307   -24124618.91049 -18762274.35349  20175139.6804   20175146.3334
 95 12  4 18 54 29.9880000  0  5 25 21  1 15 14
  17153813.621   -35167250.24449 -27378344.66649  17153816.0244   17153822.2254
  19277271.181    -9415443.66449  -7245329.36149  19277275.2394   19277283.4924
  18771892.388    -7942179.78849  -6182019.97649  18771892.6874   18771900.7704
  17252175.722   -37219494.66949 -28980563.83949  17252176.3734   17252183.7284
  20141469.433   -24301559.75849 -18900150.31149  20141468.9004   20141476.1214
 95 12  4 18 54 59.9880000  0  5 25 21  1 15 14
  17132970.442   -35276785.21949 -27463696.60949  17132972.1694   17132978.1044
  19273662.223    -9434432.67649  -7260126.05049  19273661.3054   19273669.2224
  18768131.999    -7961936.92649  -6197415.17349  18768133.7694   18768140.6634
  17229944.966   -37336319.64449 -29071596.29149  17229946.0054   17229952.4394
  20107797.856   -24478498.70149 -19038024.79249  20107799.5994   20107805.9794
 95 12  4 18 55 29.9880000  0  5 25 21  1 15 14
  17112216.318   -35385837.68649 -27548672.56449  17112220.6284   17112225.7434
  19270084.690    -9453219.93349  -7274765.54149  19270085.8504   19270093.9934
  18764362.369    -7981730.91749  -6212839.08349  18764367.3264   18764373.8884
  17207811.760   -37452627.64849 -29162225.90749  17207812.9764   17207819.4214
  20074105.570   -24655545.54049 -19175983.31049  20074108.0964   20074114.3574
 95 12  4 18 55 59.9880000  0  5 25 21  1 15 14
  17091588.777   -35494252.92449 -27633151.97949  17091590.0964   17091594.9014
  19266572.773    -9471666.35049  -7289139.43149  19266576.2094   19266584.4524
  18760623.915    -8001412.86649  -6228175.70449  18760622.2224   18760629.3754
  17185805.605   -37568273.54349 -29252339.59849  17185806.7984   17185813.0044
  20040426.304   -24832537.29449 -19313898.93449  20040427.1764   20040434.5074
 95 12  4 18 56 29.9880000  0  5 25 21  1 15 14
  17071081.449   -35602021.01749 -27717127.12949  17071082.3854   17071087.0674
  19263130.727    -9489766.26149  -7303243.32149  19263131.5904   19263139.9344
  18756907.467    -8020943.54649  -6243394.45149  18756905.0894   18756912.8174
  17163928.746   -37683236.03449 -29341920.75849  17163929.3994   17163936.3644
  20006764.560   -25009434.61049 -19451740.94849  20006763.9344   20006772.5574
 95 12  4 18 56 59.9870000  0  5 25 21  1 15 14
  17050650.820   -35709374.61449 -27800779.27849  17050653.4224   17050658.4754
  19259706.022    -9507752.45849  -7317258.60749  19259708.2064   19259717.9064
  18753172.723    -8040547.62049  -6258670.38949  18753175.2874   18753181.6894
  17142140.858   -37797732.23349 -29431138.57849  17142141.3734   17142148.2084
  19973080.585   -25186439.83249 -19589667.04149  19973081.8424   19973089.2074
 95 12  4 18 57 29.9870000  0  5 25 21  1 15 14
  17030324.354   -35816197.21749 -27884017.67249  17030325.5844   17030331.0224
  19256323.603    -9525524.43249  -7331106.96249  19256325.9194   19256336.3214
  18749449.740    -8060120.28349  -6273921.85949  18749449.9754   18749456.6534
  17120463.446   -37911645.83049 -29519902.42049  17120464.2614   17120471.3194
  19939399.085   -25363439.19249 -19727588.54849  19939399.2384   19939407.1434
 95 12  4 18 57 59.9870000  0  5 25 21  1 15 14
  17010090.958   -35922516.44549 -27966863.83249  17010093.8624   17010099.1314
  19252980.802    -9543110.37649  -7344810.36149  19252980.7164   19252991.5394
  18745730.253    -8079666.81849  -6289152.97349  18745730.6344   18745738.2764
  17098897.491   -38024980.08949 -29608214.83049  17098898.3454   17098904.4774
  19905715.530   -25540443.49549 -19865513.90049  19905716.3864   19905725.6374
 95 12  4 18 58 29.9870000  0  6 25 21  1 29 15 14
  16989948.192   -36028374.09549 -28049350.31049  16989949.5544   16989954.9094
  19249663.073    -9560514.48749  -7358372.08649  19249668.6644   19249678.8404
  18742015.720    -8099195.29549  -6304370.01049  18742014.9094   18742022.0824
  21009607.584     -427779.76719
  17077438.495   -38137747.15949 -29696085.27549  17077438.9354   17077445.8764
  19872025.476   -25717490.80449 -20003472.77849  19872025.5014   19872033.3224
 95 12  4 18 58 59.9870000  0  6 25 21  1 29 15 14
  16969901.253   -36133732.26649 -28131447.58149  16969900.9434   16969906.2484
  19246403.681    -9577683.11449  -7371750.28549  19246401.8084   19246411.6764
  18738310.157    -8118667.80949  -6319543.43849  18738309.5014   18738315.9384
  20977591.408     -596055.399 9
  17056094.834   -38249908.25849 -29783483.52849  17056095.4364   17056102.1544
  19838329.980   -25894554.33649 -20141444.29549  19838331.7564   19838339.0724
 95 12  4 18 59 29.9870000  0  6 25 21  1 29 15 14
  16949934.838   -36238647.64749 -28213199.82349  16949936.2764   16949941.5114
  19243172.432    -9594662.34949  -7384980.91449  19243171.7674   19243179.0514
  18734602.700    -8138143.86349  -6334719.62949  18734603.0404   18734611.3574
  20945579.794     -764282.716 9
  17034855.215   -38361519.96949 -29870453.68849  17034856.7724   17034862.7884
  19804621.135   -26071698.76049 -20279478.83649  19804622.2864   19804630.7554
 95 12  4 18 59 59.9870000  0  6 25 21  1 29 15 14
  16930059.402   -36343095.62649 -28294587.85249  16930060.4284   16930065.8504
  19239976.604    -9611411.85549  -7398032.56249  19239984.5834   19239994.0144
  18730899.917    -8157590.43149  -6349872.85549  18730902.4994   18730910.3034
  20913575.194     -932429.821 9
  17013727.665   -38472547.13849 -29956968.36549  17013729.0514   17013735.4674
  19770902.995   -26248890.79449 -20417550.48149  19770903.5474   19770911.8654
 95 12  4 19  0 29.9870000  0  6 25 21  1 29 15 14
  16910287.779   -36446995.98049 -28375549.15049  16910289.3034   16910294.2604
  19236856.004    -9627859.14149  -7410848.67349  19236854.7924   19236861.6234
  18727216.577    -8176960.06849  -6364966.12349  18727216.6894   18727224.4814
  20881604.723    -1100442.292 9
  16992722.347   -38582930.68549 -30042981.50949  16992723.4314   16992729.7014
  19737187.509   -26426065.48649 -20555608.63549  19737187.9944   19737196.4114
 95 12  4 19  0 59.9870000  0  6 25 21  1 29 15 14
  16890621.007   -36550347.33049 -28456082.66349  16890621.7184   16890627.2024
  19233775.355    -9644036.33649  -7423454.33849  19233774.9184   19233783.7564
  18723534.649    -8196295.21749  -6380032.51249  18723538.0564   18723545.8184
  20849653.582    -1268336.621 9
  16971834.478   -38692701.18449 -30128516.95749  16971834.8304   16971841.3864
  19703472.595   -26603238.29649 -20693665.30649  19703473.3384   19703481.9204
 95 12  4 19  1 29.9870000  0  6 25 21  1 29 15 14
  16871051.187   -36653182.44649 -28536213.89749  16871052.8664   16871057.9224
  19230737.472    -9660002.75249  -7435895.76149  19230736.7854   19230746.3604
  18719854.548    -8215645.09649  -6395110.38449  18719855.3434   18719862.8754
  20817719.327    -1436150.745 9
  16951053.619   -38801903.18749 -30213609.42249  16951054.3154   16951061.0934
  19669748.914   -26780451.90949 -20831753.79949  19669751.6604   19669758.6114
 95 12  4 19  1 59.9870000  0  6 25 21  1 29 15 14
  16851579.639   -36755506.62849 -28615947.01349  16851581.1954   16851586.4014
  19227732.816    -9675782.74149  -7448191.91949  19227734.3214   19227742.6144
  18716170.252    -8235018.20249  -6410206.35549  18716169.0864   18716177.6534
  20785802.544    -1603901.334 9
  16930378.473   -38910554.81549 -30298273.03649  16930379.2024   16930385.3394
  19636014.702   -26957726.69249 -20969889.93349  19636016.3744   19636024.3134
 95 12  4 19  2 29.9870000  0  6 25 21  1 29 15 14
  16832222.982   -36857232.49549 -28695213.90949  16832223.5164   16832228.5224
  19224779.444    -9691298.59649  -7460282.26449  19224781.9054   19224791.4894
  18712492.890    -8254321.76849  -6425248.11649  18712496.0774   18712503.6024
  20753909.806    -1771494.263 9
  16909821.740   -39018575.99849 -30382445.38349  16909823.1364   16909829.5334
  19602281.430   -27134988.82349 -21108016.23149  19602284.8054   19602292.3174
 95 12  4 19  2 59.9870000  0  6 25 21  1 29 15 14
  16812964.140   -36958428.12749 -28774067.63749  16812966.3504   16812971.9164
  19221861.963    -9706625.29349  -7472225.20749  19221864.6654   19221873.0264
  18708828.532    -8273600.44749  -6440270.49049  18708826.5754   18708834.9804
  20722037.372    -1938978.123 9
  16889376.805   -39126021.10549 -30466168.83449  16889377.2414   16889383.3594
  19568541.077   -27312301.37149 -21246181.80649  19568543.1674   19568550.1824
 95 12  4 19  3 29.9870000  0  6 25 21  1 29 15 14
  16793822.268   -37059025.19849 -28852454.96249  16793823.7734   16793829.0354
  19219002.212    -9721684.76649  -7483959.92149  19219000.1744   19219006.1654
  18705183.223    -8292760.09749  -6455200.11249  18705179.6764   18705188.7324
  20690202.545    -2106275.454 9   -399256.22159                  20690210.7764
  16869057.101   -39232799.32049 -30549372.64149  16869057.9804   16869064.1004
  19534806.775   -27489579.79949 -21384320.81749  19534807.7204   19534815.3114
 95 12  4 19  3 59.9870000  0  6 25 21  1 29 15 14
  16774778.748   -37159108.23849 -28930441.74449  16774778.6094   16774784.2034
  19216171.509    -9736538.52449  -7495534.36649  19216174.1824   19216180.1534
  18701541.671    -8311872.12549  -6470092.63049  18701543.3594   18701551.9334
  20658388.468    -2273462.10459   -529531.45659  20658386.0724   20658396.2844
  16848850.208   -39338985.10149 -30632114.80249  16848851.6174   16848857.8114
  19501064.674   -27666892.27549 -21522486.34049  19501066.7964   19501074.2234
 95 12  4 19  4 29.9870000  0  6 25 21  1 29 15 14
  16755826.507   -37258696.32749 -29008042.85249  16755827.3644   16755832.8484
  19213380.890    -9751195.93149  -7506955.78349  19213383.4004   19213391.7184
  18697910.378    -8330966.06949  -6484971.04749  18697909.3614   18697918.7784
  20626583.975    -2440564.87459   -659741.38049  20626588.6084   20626597.6414
  16828754.491   -39444593.22149 -30714406.83249  16828754.7004   16828761.1974
  19467318.033   -27844240.47949 -21660679.69249  19467318.0974   19467325.5884
 95 12  4 19  4 59.9870000  0  6 25 21  1 29 15 14
  16736982.692   -37357713.16649 -29085198.83749  16736985.0614   16736990.3604
  19210648.677    -9765578.33649  -7518162.92149  19210646.6934   19210654.6234
  18694293.367    -8349981.67949  -6499788.43749  18694291.0124   18694299.9294
  20594817.083    -2607533.82949   -789847.03749  20594816.3074   20594824.0264
  16808781.002   -39549546.97749 -30796188.98249  16808782.7524   16808788.9034
  19433576.457   -28021537.97149 -21798833.55249  19433578.5464   19433587.0984
 95 12  4 19  5 29.9860000  0  6 25 21  1 29 15 14
  16718234.734   -37456238.72749 -29161972.00349  16718236.3214   16718241.9214
  19207949.637    -9779755.03249  -7529209.77649  19207948.1724   19207957.2264
  18690669.817    -8369018.06349  -6514622.00449  18690668.9164   18690678.2254
  20563049.959    -2774451.74249   -919912.89249  20563054.1254   20563059.9524
  16788917.850   -39653931.10149 -30877527.24349  16788918.4014   16788925.4244
  19399837.615   -28198862.30949 -21937008.33749  19399835.2854   19399842.7664
 95 12  4 19  5 59.9860000  0  6 25 21  1 29 15 14
  16699577.480   -37554289.95849 -29238375.56949  16699577.7974   16699583.4184
  19205287.772    -9793736.44349  -7540104.47149  19205289.4714   19205295.9714
  18687036.518    -8388110.32649  -6529499.11749  18687035.9124   18687044.3424
  20531289.408    -2941351.62949  -1049964.69449  20531292.3494   20531299.9304
  16769158.064   -39757769.18749 -30958440.02549  16769159.1424   16769165.7214
  19366078.537   -28376244.86749 -22075228.46849  19366080.7194   19366089.0704
 95 12  4 19  6 29.9860000  0  6 25 21  1 29 15 14
  16681008.779   -37651857.60249 -29314402.30649  16681011.3284   16681017.0164
  19202665.681    -9807529.89349  -7550852.68049  19202663.4534   19202674.3534
  18683389.840    -8407263.89149  -6544424.00549  18683392.0944   18683398.5204
  20499541.245    -3108217.91549  -1179990.29249  20499538.2454   20499547.1724
  16749505.669   -39861047.94549 -31038916.97349  16749506.0024   16749512.7254
  19332313.228   -28553691.43449 -22213498.47349  19332314.4184   19332320.7214
 95 12  4 19  6 59.9860000  0  6 25 21  1 29 15 14
  16662553.334   -37748852.55249 -29389982.78449  16662553.7414   16662559.7264
  19200091.537    -9821043.96649  -7561383.22349  19200092.8484   19200102.7814
  18679755.759    -8426364.57949  -6559307.70049  18679756.6664   18679764.0894
  20467816.289    -3274925.92749  -1309892.54849  20467815.4414   20467823.8934
  16729978.091   -39963663.93549 -31118877.47249  16729978.9294   16729985.3024
  19298550.850   -28731112.43349 -22351748.54549  19298552.0584   19298560.4834
 95 12  4 19  7 29.9860000  0  6 25 21  1 29 15 14
  16644205.302   -37845261.77149 -29465106.85349  16644207.0734   16644213.2564
  19197579.857    -9834268.08649  -7571687.78949  19197576.4644   19197586.4404
  18676133.318    -8445394.88749  -6574136.54649  18676135.4084   18676143.4514
  20436128.379    -3441442.80649  -1439645.90949  20436126.4534   20436136.0864
  16710578.268   -40065603.89749 -31198311.20349  16710579.8494   16710586.7294
  19264797.147   -28908485.63549 -22489961.37249  19264799.3014   19264806.2104
 95 12  4 19  7 59.9860000  0  6 25 21  1 29 15 14
  16625952.107   -37941188.48449 -29539854.94649  16625953.4854   16625959.0024
  19195093.982    -9847302.23349  -7581844.34549  19195095.8334   19195105.2464
  18672509.466    -8464447.09349  -6588982.46949  18672509.4904   18672518.0044
  20404459.439    -3607858.15349  -1569320.13049  20404460.9064   20404468.4194
  16691291.297   -40166962.31849 -31277291.77549  16691292.6314   16691298.8084
  19231038.746   -29085893.53349 -22628201.23849  19231039.4924   19231046.5154
 95 12  4 19  8 29.9860000  0  6 25 21  1 29 15 14
  16607789.307   -38036641.11149 -29614233.61049  16607789.3124   16607794.8944
  19192648.717    -9860152.33449  -7591857.49249  19192650.9644   19192660.3574
  18668884.479    -8483507.09449  -6603834.45849  18668883.0424   18668891.5664
  20372810.683    -3774173.56949  -1698916.49149  20372812.6474   20372818.9634
  16672113.085   -40267743.29749 -31355822.41149  16672114.1424   16672121.0034
  19197276.935   -29263325.31749 -22766459.71249  19197275.4864   19197282.3014
 95 12  4 19  8 59.9860000  0  6 25 21  1 29 15 14
  16589715.978   -38131605.12749 -29688231.54049  16589718.2184   16589724.1274
  19190241.686    -9872799.14949  -7601712.22849  19190245.0994   19190253.3004
  18665254.874    -8502559.58249  -6618680.58249  18665256.9234   18665264.7144
  20341181.591    -3940389.68049  -1828435.49449  20341182.2594   20341189.2244
  16653047.335   -40367938.01949 -31433896.21349  16653047.8764   16653054.7844
  19163512.013   -29440737.27849 -22904702.73949  19163514.5784   19163521.5504
 95 12  4 19  9 29.9860000  0  6 25 21  1 29 15 14
  16571746.098   -38226047.73449 -29761823.16849  16571746.6234   16571751.9534
  19187882.687    -9885214.07249  -7611386.27749  19187882.2934   19187891.2924
  18661633.740    -8521594.59749  -6633513.10249  18661635.6124   18661642.3174
  20309567.724    -4106509.85749  -1957879.79649  20309568.6984   20309577.4014
  16634095.541   -40467527.09749 -31511498.08749  16634096.8374   16634103.3184
  19129764.414   -29618098.22549 -23042905.99049  19129764.2884   19129770.8854
 95 12  4 19  9 59.9860000  0  6 25 21  1 29 15 14
  16553886.918   -38319901.30049 -29834955.80849  16553886.9034   16553892.3134
  19185572.503    -9897326.07649  -7620824.29149  19185576.3574   19185586.1484
  18658028.525    -8540544.05649  -6648278.95949  18658029.2664   18658036.4464
  20277983.619    -4272476.40049  -2087204.34649  20277986.8504   20277995.1994
  16615273.667   -40566439.28549 -31588572.51549  16615274.4104   16615280.4964
  19096032.311   -29795354.14449 -23181027.43349  19096034.5554   19096039.8344
 95 12  4 19 10 29.9860000  0  6 25 21  1 29 15 14
  16536117.331   -38413272.79949 -29907712.80849  16536118.7664   16536124.3624
  19183303.925    -9909266.76849  -7630128.80949  19183306.7554   19183315.1554
  18654418.452    -8559519.37649  -6663064.98049  18654418.3404   18654426.1844
  20246411.081    -4438409.24849  -2216502.66649  20246413.2364   20246419.9654
  16596558.212   -40664789.43249 -31665208.99949  16596559.1454   16596565.5244
  19062297.332   -29972630.95049 -23319165.14149  19062299.2674   19062304.8094
 95 12  4 19 10 59.9860000  0  6 25 21  1 29 15 14
  16518442.812   -38506153.69049 -29980087.50849  16518443.7064   16518449.4644
  19181068.474    -9921027.24349  -7639292.88849  19181066.7944   19181076.2044
  18650806.630    -8578506.92949  -6677860.52249  18650805.6984   18650811.7944
  20214848.672    -4604282.12649  -2345754.24749  20214845.7844   20214853.9934
  16577951.610   -40762565.09049 -31741397.80849  16577952.5824   16577959.4654
  19028560.583   -30149929.06249 -23457319.45149  19028559.5414   19028567.0384
 95 12  4 19 11 29.9860000  0  6 25 21  1 29 15 14
  16500869.359   -38598502.26649 -30052047.42949  16500870.2284   16500876.3204
  19178871.306    -9932565.10649  -7648283.51849  19178871.4434   19178880.9894
  18647197.247    -8597463.92349  -6692632.26049  18647198.2924   18647205.7914
  20183307.910    -4770030.34349  -2474908.72349  20183307.0974   20183314.3924
  16559463.319   -40859720.76049 -31817103.53249  16559464.7144   16559471.6374
  18994819.761   -30327230.25049 -23595476.16649  18994820.8064   18994827.8164
 95 12  4 19 11 59.9860000  0  6 25 21  1 29 15 14
  16483398.825   -38690305.25549 -30123582.21249  16483400.9954   16483406.8914
  19176720.386    -9943865.56249  -7657089.14149  19176722.6124   19176729.9344
  18643598.308    -8616366.47349  -6707361.56349  18643600.9064   18643608.3644
  20151791.487    -4935620.12849  -2603939.74849  20151794.7624   20151803.6044
  16541098.722   -40956237.12049 -31892311.08949  16541098.9104   16541104.8984
  18961079.720   -30504525.87849 -23733628.52749  18961082.2194   18961089.0634
 95 12  4 19 12 29.9860000  0  6 25 21  1 29 15 14
  16466033.095   -38781573.73749 -30194700.50849  16466033.4184   16466038.8384
  19174612.666    -9954936.43549  -7665715.85249  19174614.6114   19174622.8464
  18640011.402    -8635209.47849  -6722044.46949  18640015.3674   18640023.3814
  20120312.204    -5101053.07149  -2732848.55049  20120312.8004   20120321.0344
  16522851.613   -41052118.90649 -31967024.16849  16522852.8614   16522859.1064
  18927344.883   -30681806.77249 -23871769.44449  18927346.7664   18927354.0174
 95 12  4 19 12 59.9860000  0  6 25 21  1 29 15 14
  16448758.359   -38872346.88349 -30265432.82949  16448759.8344   16448765.2224
  19172543.845    -9965799.03849  -7674180.31149  19172548.1394   19172557.0564
  18636432.820    -8654037.70549  -6736715.84849  18636432.8134   18636439.9144
  20088850.042    -5266372.66449  -2861669.03349  20088856.0214   20088862.6354
  16504720.843   -41147401.45349 -32041270.31549  16504721.0444   16504727.7444
  18893608.629   -30859104.28649 -24009923.28849  18893608.4904   18893614.6194
 95 12  4 19 13 29.9860000  0  6 25 21  1 29 15 14
  16431572.259   -38962656.42049 -30335803.89649  16431574.6804   16431579.8684
  19170512.708    -9976484.88549  -7682507.00749  19170516.5024   19170522.7804
  18632842.009    -8672902.82149  -6751415.99849  18632841.9964   18632851.5154
  20057402.127    -5431630.20849  -2990441.13949  20057408.4624   20057416.2314
  16486694.859   -41242121.08649 -32115077.83249  16486696.2474   16486702.9634
  18859858.367   -31036446.21349 -24148111.75449  18859860.4124   18859867.4244
 95 12  4 19 13 59.9850000  0  6 25 21  1 29 15 14
  16414502.264   -39052369.47749 -30405710.17849  16414502.7434   16414508.0734
  19168537.877    -9986869.71849  -7690599.18049  19168539.3144   19168546.9874
  18629272.020    -8691668.95249  -6766039.00349  18629271.6064   18629279.7564
  20025996.232    -5596711.75549  -3119076.07849  20025994.5964   20026002.8704
  16468803.829   -41336144.50349 -32188342.83949  16468804.7114   16468810.8144
  18826132.805   -31213683.73649 -24286218.86349  18826134.1914   18826140.8154
 95 12  4 19 14 29.9850000  0  6 25 21  1 29 15 14
  16397518.004   -39141619.61649 -30475255.73649  16397519.0104   16397524.4124
  19166591.487    -9997089.57249  -7698562.77649  19166594.3324   19166602.0314
  18625691.766    -8710479.67449  -6780696.74649  18625692.2134   18625700.0664
  19994585.734    -5761758.13149  -3247683.65049  19994586.5364   19994592.4804
  16451017.759   -41429610.30249 -32261173.32649  16451018.6604   16451024.7324
  18792401.295   -31390949.21149 -24424347.76149  18792401.9074   18792408.3814
 95 12  4 19 14 59.9850000  0  6 25 21  1 29 15 14
  16380658.548   -39230215.76949 -30544291.69149  16380659.9654   16380665.1244
  19164715.822   -10006962.23849  -7706255.84249  19164714.7274   19164723.2274
  18622133.327    -8729174.05149  -6795263.83949  18622133.5984   18622142.9344
  19963219.158    -5926573.71949  -3376111.35449  19963221.7544   19963230.6774
  16433372.877   -41522337.57149 -32333428.34849  16433373.2214   16433379.5264
  18758694.606   -31568071.59949 -24562365.14649  18758696.0044   18758703.2864
 95 12  4 19 15 29.9850000  0  6 25 21  1 29 15 14
  16363888.539   -39318343.67449 -30612962.78249  16363889.3204   16363895.3264
  19162866.353   -10016675.36949  -7713824.57849  19162866.4384   19162874.3444
  18618560.994    -8747937.75649  -6809884.94649  18618563.3964   18618572.0664
  19931865.300    -6091332.53949  -3504494.83349  19931869.3594   19931878.7334
  16415832.160   -41614511.71849 -32405252.35049  16415832.6184   16415839.3544
  18724981.673   -31745237.60649 -24700416.54149  18724982.4654   18724989.5434
 95 12  4 19 15 59.9850000  0  6 25 21  1 29 15 14
  16347220.208   -39405937.74349 -30681217.89849  16347220.8364   16347226.5414
  19161057.144   -10026168.04249  -7721221.53349  19161060.0004   19161067.9044
  18614995.503    -8766704.96549  -6824508.79449  18614992.6264   18615000.9294
  19900540.678    -6255965.97849  -3632780.56749  19900541.0024   19900548.4934
  16398408.797   -41706070.28649 -32476596.69649  16398409.7084   16398416.3154
  18691272.152   -31922378.80549 -24838448.58949  18691273.9224   18691279.7834
 95 12  4 19 16 29.9850000  0  6 25 21  1 29 15 14
  16330658.241   -39492968.89949 -30749034.38249  16330659.4854   16330665.0744
  19159302.719   -10035399.80249  -7728415.19149  19159304.2264   19159312.3174
  18611424.153    -8785456.64849  -6839120.53149  18611423.8774   18611432.0154
  19869245.961    -6420437.79349  -3760940.35049  19869244.4954   19869249.6424
  16381107.664   -41796983.67549 -32547438.29649  16381109.2374   16381116.0574
  18657573.415   -32099465.26649 -24976437.99049  18657575.2134   18657581.5954
 95 12  4 19 16 59.9850000  0  6 25 21  1 29 15 14
  16314212.860   -39579392.97349 -30816377.81149  16314213.2324   16314218.8364
  19157609.198   -10044303.90049  -7735353.53549  19157608.9444   19157617.6804
  18607872.852    -8804136.16349  -6853676.02849  18607870.0204   18607876.4524
  19837979.662    -6584716.52849  -3888949.72949  19837982.5714   19837990.3744
  16363940.212   -41887199.50849 -32617736.35249  16363941.9914   16363948.5534
  18623894.826   -32276447.47549 -25114346.15349  18623896.1984   18623902.7454
 95 12  4 19 17 29.9850000  0  6 25 21  1 29 15 14
  16297867.599   -39665288.64449 -30883309.49749  16297868.4044   16297874.0154
  19155955.453   -10052964.26449  -7742101.93049  19155960.3884   19155969.6904
  18604316.564    -8822817.28449  -6868232.77349  18604316.0064   18604320.6304
  19806738.848    -6748899.77549  -4016884.65549  19806738.1334   19806747.0364
  16346891.664   -41976797.32049 -32687552.82149  16346892.0634   16346898.7004
  18590222.518   -32453394.61649 -25252227.00649  18590224.2364   18590230.8474
 95 12  4 19 17 59.9850000  0  6 25 21  1 29 15 14
  16281625.143   -39750636.99349 -30949814.70249  16281626.6654   16281632.2234
  19154360.352   -10061370.41249  -7748652.25949  19154361.5694   19154371.1864
  18600758.242    -8841481.33949  -6882776.23849  18600764.1884   18600770.5524
  19775516.005    -6912979.72449  -4144739.09949  19775517.9954   19775524.0444
  16329963.351   -42065758.43849 -32756873.18349  16329963.1824   16329969.9974
  18556560.379   -32630289.14149 -25390066.85849  18556563.1114   18556569.2584
 95 12  4 19 18 29.9850000  0  6 25 21  1 29 15 14
  16265480.774   -39835475.06249 -31015922.28149  16265482.3714   16265488.5174
  19152798.923   -10069568.84249  -7755040.73449  19152799.9504   19152810.3004
  18597207.424    -8860157.74549  -6897329.30349  18597208.6684   18597215.2354
  19744303.330    -7076995.67749  -4272543.70949  19744305.2034   19744311.9194
  16313148.210   -42154117.97749 -32825724.77149  16313149.2444   16313155.6144
  18522900.060   -32807177.29749 -25527901.72949  18522901.7074   18522908.5934
 95 12  4 19 18 59.9850000  0  6 25 21  1 29 15 14
  16249433.016   -39919808.41549 -31081636.57049  16249434.6774   16249439.9464
  19151274.666   -10077587.96749  -7761289.48649  19151274.6904   19151284.5234
  18593658.208    -8878843.02649  -6911889.29249  18593653.1874   18593660.1464
  19713103.539    -7240946.98149  -4400297.91149  19713106.5354   19713112.4084
  16296446.478   -42241885.57749 -32894115.11049  16296447.2194   16296453.9714
  18489243.979   -32984056.43849 -25665729.60449  18489243.5324   18489249.9984
 95 12  4 19 19 29.9850000  0  6 25 21  1 29 15 14
  16233476.742   -40003652.83749 -31146969.88149  16233479.2794   16233485.4774
  19149775.263   -10085482.01949  -7767440.77049  19149773.9084   19149782.1524
  18590090.371    -8897555.74949  -6926470.65849  18590092.3444   18590099.4114
  19681919.036    -7404842.27849  -4528008.46749  19681918.8144   19681924.4474
  16279853.053   -42329085.69249 -32962063.25949  16279853.7084   16279860.4174
  18455583.473   -33160939.64649 -25803560.63949  18455582.7734   18455589.8814
 95 12  4 19 19 59.9850000  0  6 25 21  1 29 15 14
  16217619.420   -40086994.08949 -31211911.10949  16217619.8484   16217625.4974
  19148302.619   -10093229.00049  -7773477.44149  19148299.0424   19148308.3014
  18586532.951    -8916262.36649  -6941047.27049  18586532.8044   18586540.0414
  19650744.416    -7568649.84449  -4655650.70049  19650746.5354   19650752.6484
  16263370.026   -42415698.91249 -33029554.07849  16263371.6754   16263378.5454
  18421926.123   -33337802.16549 -25941375.54149  18421927.0784   18421932.6704
 95 12  4 19 20 29.9850000  0  6 25 21  1 29 15 14
  16201940.750   -40169380.39149 -31276108.23149  16201942.5564   16201947.8234
  19146940.401   -10100366.33349  -7779039.07249  19146941.5314   19146951.5294
  18583059.383    -8934503.53049  -6955261.19549  18583062.3384   18583069.2344
  19619681.302    -7731908.32549  -4782865.04049  19619679.5324   19619686.4244
  16247087.600   -42501273.41449 -33096235.51649  16247088.0894   16247093.9294
  18388361.742   -33514186.99649 -26078818.23949  18388362.5024   18388369.3284
 95 12  4 19 20 59.9850000  0  6 25 21  1 29 15 14
  16186383.492   -40251133.27049 -31339811.77349  16186385.5214   16186390.6614
  19145639.875   -10107200.92649  -7784364.80949  19145639.8634   19145649.9464
  18579615.911    -8952612.03049  -6969371.73749  18579615.7714   18579623.1574
  19588656.579    -7894926.27149  -4909891.94149  19588656.9844   19588665.6564
  16230939.386   -42586126.69649 -33162354.95949  16230940.5284   16230947.4344
  18354827.993   -33690403.58649 -26216129.83749  18354829.8324   18354835.8334
 95 12  4 19 21 29.9850000  0  6 25 21  1 29 15 14
  16170836.123   -40332839.88149 -31403479.24749  16170837.2714   16170842.6114
  19144290.709   -10114294.04449  -7789891.98349  19144291.1924   19144300.8924
  18576081.420    -8971173.85749  -6983835.52849  18576084.1644   18576090.7534
  19557570.664    -8058283.67249  -5037183.32949  19557571.4414   19557579.0764
  16214821.873   -42670833.60949 -33228360.33949  16214821.7354   16214828.2534
  18321215.509   -33867043.02249 -26353770.91349  18321216.2264   18321222.4204
 95 12  4 19 21 59.9850000  0  6 25 21  1 29 15 14
  16155372.127   -40414098.25849 -31466797.46249  16155374.2694   16155379.5184
  19142973.663   -10121209.73949  -7795280.90849  19142974.1984   19142984.0314
  18572541.424    -8989789.16249  -6998340.98649  18572541.4124   18572549.5024
  19526501.404    -8221565.07849  -5164415.57549  19526501.3584   19526508.2024
  16198806.485   -42754981.24249 -33293929.92649  16198808.9474   16198815.4034
  18287596.314   -34043706.14449 -26491430.44449  18287598.2004   18287604.2814
 95 12  4 19 22 29.9840000  0  6 25 21  1 29 15 14
  16140002.930   -40494870.78749 -31529737.08549  16140003.8444   16140009.2234
  19141698.356   -10127908.90049  -7800501.11349  19141699.1094   19141709.4034
  18568985.845    -9008444.36149  -7012877.53049  18568990.9544   18568999.3434
  19495452.097    -8384724.24849  -5291552.49749  19495453.1014   19495459.8244
  16182910.595   -42838528.30449 -33359031.53649  16182910.6824   16182917.2454
  18253983.692   -34220345.67349 -26629071.60049  18253984.6434   18253991.5924
 95 12  4 19 22 59.9840000  0  6 25 21  1 29 15 14
  16124750.319   -40575028.53449 -31592197.65949  16124750.3574   16124756.0504
  19140491.925   -10134253.39849  -7805444.95149  19140492.5794   19140502.0054
  18565459.817    -9027008.72149  -7027343.29849  18565458.4044   18565467.1124
  19464449.139    -8547639.72049  -5418499.54049  19464450.9874   19464457.8554
  16167150.332   -42921340.70449 -33423560.68349  16167151.5044   16167158.0434
  18220402.654   -34396817.30449 -26766581.92449  18220403.4974   18220410.2074
 95 12  4 19 23 29.9840000  0  6 25 21  1 29 15 14
  16109589.594   -40654694.84549 -31654275.29149  16109590.3354   16109595.7504
  19139328.196   -10140364.63449  -7810207.03449  19139329.5274   19139337.6294
  18561922.809    -9045600.08849  -7041830.09449  18561921.2294   18561928.6604
  19433472.283    -8710441.13849  -5545357.75149  19433470.4484   19433477.9984
  16151508.785   -43003543.66549 -33487614.93349  16151509.2944   16151515.5844
  18186829.772   -34573246.64249 -26904059.29249  18186829.2954   18186836.6554
 95 12  4 19 23 59.9840000  0  6 25 21  1 29 15 14
  16094524.564   -40733857.48049 -31715960.44749  16094526.1934   16094531.6304
  19138209.910   -10146244.32249  -7814788.67049  19138212.5404   19138219.8704
  18558378.866    -9064212.22749  -7056333.08549  18558379.6044   18558387.1104
  19402509.521    -8873131.60049  -5672129.47349  19402511.5024   19402518.4904
  16135981.747   -43085135.77149 -33551193.19649  16135982.5954   16135988.9324
  18153265.663   -34749619.67249 -27041492.78249  18153267.4384   18153273.4314
 95 12  4 19 24 29.9840000  0  6 25 21  1 29 15 14
  16079553.346   -40812530.02449 -31777263.71649  16079554.9574   16079560.6764
  19137133.647   -10151914.76049  -7819207.27149  19137132.6284   19137141.8104
  18554834.711    -9082853.05249  -7070858.42949  18554832.3764   18554840.1984
  19371566.174    -9035743.21949  -5798839.75449  19371567.0354   19371574.8014
  16120567.714   -43166135.12749 -33614309.57649  16120568.3704   16120575.4274
  18119710.511   -34925943.55549 -27178887.98649  18119713.9824   18119721.2454
 95 12  4 19 24 59.9840000  0  6 25 21  1 29 15 14
  16064684.318   -40890666.24349 -31838149.08249  16064686.7154   16064691.8304
  19136100.968   -10157334.89849  -7823430.86149  19136100.9024   19136110.0474
  18551290.036    -9101463.53349  -7085360.13449  18551291.3984   18551299.2344
  19340642.449    -9198242.32849  -5925462.41249  19340644.0044   19340651.9414
  16105275.872   -43246496.22249 -33676928.60849  16105276.2484   16105283.0404
  18086174.574   -35102186.00149 -27316219.72349  18086176.8284   18086182.6984
 95 12  4 19 25 29.9840000  0  6 25 21  1 29 15 14
  16049902.861   -40968350.81849 -31898682.51249  16049903.2214   16049908.6104
  19135101.814   -10162600.65649  -7827534.10349  19135099.1234   19135108.8394
  18547741.381    -9120113.28449  -7099892.41149  18547742.1594   18547748.7944
  19309729.157    -9360703.79349  -6052055.66849  19309727.3834   19309735.7334
  16090088.448   -43326299.02449 -33739112.60149  16090090.5294   16090097.4144
  18052634.753   -35278443.14449 -27453562.91749  18052635.3974   18052642.5644
 95 12  4 19 25 59.9840000  0  6 25 21  1 29 15 14
  16035218.334   -41045507.91349 -31958804.91849  16035220.7544   16035226.1634
  19134139.056   -10167643.45449  -7831463.60449  19134141.7364   19134150.3994
  18544205.571    -9138707.63949  -7114381.52949  18544203.9134   18544211.0144
  19278836.508    -9523042.35749  -6178553.17949  19278836.8464   19278844.3834
  16075026.461   -43405459.82949 -33800796.34549  16075027.0994   16075033.6104
  18019109.861   -35454618.29849 -27590842.21749  18019109.9754   18019116.1444
 95 12  4 19 26 29.9840000  0  6 25 21  1 29 15 14
  16020645.050   -41122101.72249 -32018488.40249  16020645.3354   16020650.8654
  19133226.468   -10172423.58249  -7835188.47149  19133228.9624   19133240.8704
  18540681.704    -9157216.08849  -7128803.71949  18540681.6014   18540688.8024
  19247973.882    -9685212.53749  -6304919.47149  19247976.9794   19247984.5364
  16060091.954   -43483940.13549 -33861949.83549  16060093.0904   16060098.8614
  17985606.758   -35630671.31449 -27728026.35149  17985608.6584   17985615.3604
 95 12  4 19 26 59.9840000  0  6 25 21  1 29 15 14
  16006155.650   -41198233.57749 -32077811.92449  16006157.8024   16006163.1924
  19132349.379   -10177047.29649  -7838791.45849  19132351.1744   19132359.1464
  18537153.607    -9175739.73049  -7143237.74749  18537156.6394   18537164.2364
  19217130.121    -9847293.34349  -6431216.12349  19217134.6294   19217140.4864
  16045267.847   -43561840.10949 -33922651.11149  16045268.5544   16045275.2614
  17952110.133   -35806699.07549 -27865190.79749  17952112.0764   17952117.4144
 95 12  4 19 27 29.9840000  0  6 25 21  1 29 15 14
  15991774.771   -41273803.54949 -32136697.61649  15991777.7334   15991782.9504
  19131523.071   -10181407.06149  -7842188.78349  19131522.0134   19131529.1834
  18533644.179    -9194179.39449  -7157606.31549  18533646.7554   18533655.2474
  19186328.988   -10009176.13649  -6557358.46449  19186329.0834   19186335.0884
  16030573.219   -43639060.21849 -33982822.63149  16030574.2654   16030581.0664
  17918638.213   -35982589.44049 -28002248.19449  17918640.6784   17918646.8514
 95 12  4 19 27 59.9840000  0  6 25 21  1 29 15 14
  15977493.472   -41348861.40649 -32195184.25949  15977494.5824   15977499.7164
  19130730.127   -10185552.76549  -7845419.30349  19130732.2054   19130740.7644
  18530137.273    -9212624.85149  -7171979.41249  18530136.1624   18530145.9224
  19155547.263   -10170934.10449  -6683403.54849  19155548.6384   19155553.3444
  16015994.684   -43715670.15949 -34042518.68249  16015995.5214   16016002.5694
  17885182.782   -36158402.38049 -28139245.25149  17885184.1364   17885191.7734
 95 12  4 19 28 29.9840000  0  6 25 21  1 29 15 14
  15963310.323   -41423386.02249 -32253255.38849  15963313.0324   15963318.6034
  19129986.128   -10189464.87149  -7848467.78449  19129986.5074   19129997.5514
  18526621.109    -9231087.08049  -7186365.57049  18526623.9644   18526632.3354
  19124791.950   -10332558.68149  -6809344.65949  19124792.3114   19124797.3664
  16001534.767   -43791659.25249 -34101730.96549  16001535.5584   16001542.4514
  17851743.576   -36334131.68249 -28276177.13749  17851743.8644   17851750.3594
 95 12  4 19 28 59.9840000  0  6 25 21  1 29 15 14
  15949226.151   -41497416.78149 -32310941.69249  15949225.3434   15949230.9224
  19129274.566   -10193193.10949  -7851373.00749  19129277.2244   19129287.1794
  18523099.008    -9249601.68149  -7200792.54749  18523100.5174   18523108.3674
  19094049.185   -10494093.73149  -6935216.00149  19094051.9594   19094057.5484
  15987184.608   -43867069.24449 -34160492.00149  15987185.5954   15987192.4374
  17818310.987   -36509823.16449 -28413079.54949  17818311.4024   17818317.7004
 95 12  4 19 29 29.9840000  0  6 25 21  1 29 15 14
  15935227.832   -41570967.85649 -32368254.21449  15935229.0674   15935234.5474
  19128598.058   -10196760.98749  -7854153.28949  19128598.4184   19128608.0004
  18519560.103    -9268191.76049  -7215278.34849  18519563.2264   18519570.5884
  19063323.911   -10655577.16249  -7061047.11649  19063323.3444   19063329.4204
  15972940.004   -43941919.29849 -34218816.71849  15972942.0284   15972948.7964
  17784879.605   -36685498.78149 -28549969.59249  17784881.4344   17784887.4804
 95 12  4 19 29 59.9840000  0  6 25 21  1 29 15 14
  15921303.217   -41644140.54249 -32425271.88549  15921304.7964   15921310.3244
  19127925.338   -10200283.46249  -7856898.17349  19127929.7734   19127938.0324
  18515993.148    -9286961.73649  -7229904.31449  18515991.7224   18515998.9674
  19032580.681   -10817114.99949  -7186920.63949  19032583.2874   19032589.9514
  15958785.474   -44016311.02149 -34276784.28949  15958785.6454   15958792.0064
  17751431.731   -36861263.13649 -28686928.78949  17751434.4424   17751440.9864
 95 12  4 19 30 29.9840000  0  6 25 21  1 29 15 14
  15907497.655   -41716696.53849 -32481809.02349  15907497.9994   15907502.9304
  19127308.369   -10203521.91949  -7859421.72549  19127312.8244   19127322.3404
  18512439.009    -9305641.60649  -7244460.10049  18512437.2214   18512443.8934
  19001878.883   -10978446.82949  -7312633.64549  19001881.8114   19001888.5874
  15944763.212   -44089990.94449 -34334197.22149  15944764.8034   15944771.4654
  17718016.712   -37036865.34549 -28823761.62849  17718018.9714   17718024.0524
 95 12  4 19 30 59.9830000  0  6 25 21  1 29 15 14
  15893753.014   -41788920.86449 -32538087.71249  15893754.0264   15893759.4264
  19126694.226   -10206759.97549  -7861944.98649  19126697.7184   19126705.1494
  18508849.159    -9324489.30649  -7259146.63749  18508849.7414   18508856.7674
  18971168.684   -11139849.11849  -7438401.54749  18971168.7984   18971174.5244
  15930825.256   -44163239.97949 -34391274.39749  15930826.1954   15930833.1244
  17684581.797   -37212577.28949 -28960679.98749  17684581.5174   17684589.1144
 95 12  4 19 31 29.9830000  0  6 25 21  1 29 15 14
  15880083.493   -41860754.14349 -32594061.68349  15880084.3104   15880090.3804
  19126091.216   -10209923.16249  -7864409.87749  19126095.5474   19126103.4874
  18505245.105    -9343435.17649  -7273909.68149  18505245.3784   18505252.1454
  18940450.160   -11301263.75049  -7564179.07249  18940452.8664   18940458.4174
  15916979.951   -44235995.90949 -34447967.33249  15916981.0424   15916988.1994
  17651133.860   -37388335.94149 -29097634.73349  17651135.5204   17651142.7124
 95 12  4 19 31 59.9830000  0  6 25 21  1 29 15 14
  15866533.767   -41931955.97249 -32649543.61149  15866535.4364   15866540.9604
  19125554.404   -10212754.30249  -7866616.01049  19125556.8694   19125565.9624
  18501665.257    -9362229.59049  -7288554.71549  18501669.2914   18501676.7604
  18909783.976   -11462417.45249  -7689753.26349  18909785.9814   18909792.5214
  15903276.391   -44308007.91749 -34504080.58149  15903277.8124   15903284.8204
  17617727.107   -37563879.96949 -29234422.24549  17617730.2764   17617737.6364
 95 12  4 19 32 29.9830000  0  6 25 21  1 29 15 14
  15853071.268   -42002698.70049 -32704667.79149  15853073.3624   15853079.2534
  19125049.850   -10215413.51049  -7868688.20749  19125048.9924   19125059.0474
  18498087.190    -9381040.88349  -7303212.90149  18498088.8784   18498097.0254
  18879136.407   -11623467.35549  -7815246.58849  18879139.3834   18879145.5164
  15889681.931   -44379445.79349 -34559746.46849  15889683.5354   15889690.0664
  17584336.109   -37739369.71949 -29371167.46749  17584336.1424   17584343.2404
 95 12  4 19 32 59.9830000  0  6 25 21  1 29 15 14
  15839710.274   -42072910.54549 -32759378.29949  15839712.4234   15839718.3194
  19124587.564   -10217823.15149  -7870565.93449  19124591.4634   19124599.2954
  18494521.295    -9399796.32849  -7317827.56549  18494520.2264   18494527.7304
  18848526.926   -11784336.64049  -7940599.16649  18848526.5744   18848533.4784
  15876213.371   -44450231.09949 -34614903.84749  15876213.8944   15876219.6234
  17550965.049   -37914726.43649 -29507809.01049  17550966.3664   17550973.5934
 95 12  4 19 33 29.9830000  0  6 25 21  1 29 15 14
  15826432.960   -42142689.78649 -32813751.71649  15826434.1424   15826439.4194
  19124164.142   -10220080.37749  -7872324.88449  19124161.0474   19124170.0384
  18490935.047    -9418611.87949  -7332489.05649  18490940.5654   18490946.2634
  18817929.955   -11945121.23749  -8065885.76049  18817930.7564   18817937.2104
  15862848.845   -44520458.46849 -34669626.47449  15862849.5534   15862856.2964
  17517602.622   -38090047.76949 -29644422.96649  17517604.0924   17517610.7744
 95 12  4 19 33 59.9830000  0  6 25 21  1 29 15 14
  15813249.901   -42211968.43149 -32867735.06449  15813251.1234   15813256.1824
  19123774.904   -10222115.07749  -7873910.42149  19123775.0404   19123784.6304
  18487357.519    -9437420.52649  -7347145.17549  18487360.7904   18487368.9104
  18787362.725   -12105760.75049  -8191059.30349  18787362.0424   18787368.8764
  15849603.939   -44590059.21449 -34723860.83049  15849604.9764   15849611.9554
  17484260.373   -38265263.62049 -29780954.75749  17484261.6064   17484267.8214
 95 12  4 19 34 29.9830000  0  6 25 21  1 29 15 14
  15800142.218   -42280851.89649 -32921410.47749  15800142.7354   15800148.1704
  19123404.393   -10224047.92249  -7875416.60649  19123408.1964   19123417.5664
  18483760.238    -9456336.06149  -7361884.58249  18483761.9504   18483769.6954
  18756790.696   -12266395.35349  -8316229.02149  18756793.5654   18756800.9824
  15836456.189   -44659149.32149 -34777697.27549  15836457.5194   15836464.3224
  17450916.235   -38440487.42449 -29917492.73649  17450917.8084   17450924.3394
 95 12  4 19 34 59.9830000  0  6 25 21  1 29 15 14
  15787132.872   -42349202.43349 -32974670.62049  15787135.7324   15787141.5984
  19123084.053   -10225752.37349  -7876744.81549  19123084.8874   19123091.3914
  18480164.607    -9475233.47549  -7376609.87649  18480165.7524   18480173.2874
  18726247.276   -12426915.25449  -8441309.37049  18726247.3874   18726254.3104
  15823430.562   -44727601.76749 -34831036.84349  15823431.7624   15823438.3044
  17417597.310   -38615583.76449 -30053931.38949  17417597.9054   17417604.5314
 95 12  4 19 35 29.9830000  0  6 25 21  1 29 15 14
  15774228.504   -42417044.13349 -33027534.26949  15774226.1194   15774231.6474
  19122796.859   -10227250.11149  -7877911.96349  19122798.2484   19122807.0084
  18476561.432    -9494153.12149  -7391352.49249  18476564.4334   18476572.9294
  18695715.661   -12587361.99949  -8566332.73949  18695716.6484   18695722.0984
  15810517.580   -44795456.51649 -34883910.68349  15810519.0504   15810526.0074
  17384297.319   -38790575.31049 -30190288.39149  17384297.6794   17384304.5994
 95 12  4 19 35 59.9830000  0  6 25 21  1 29 15 14
  15761404.932   -42484392.51749 -33080013.52549  15761409.5374   15761415.5304
  19122547.999   -10228554.08649  -7878928.14249  19122550.0254   19122558.7454
  18472957.343    -9513104.34649  -7406119.71549  18472958.1564   18472966.4574
  18665195.505   -12747733.17749  -8691297.19749  18665197.8634   18665204.7384
  15797717.335   -44862726.51649 -34936328.86949  15797718.2414   15797724.9324
  17351016.219   -38965467.51349 -30326567.96549  17351016.4744   17351024.1124
 95 12  4 19 36 29.9830000  0  6 25 21  1 29 15 14
  15748686.121   -42551252.70549 -33132112.36649  15748686.9984   15748692.8164
  19122338.318   -10229669.91849  -7879797.69849  19122337.4464   19122347.1244
  18469345.167    -9532102.17349  -7420923.23749  18469343.6704   18469351.0504
  18634696.476   -12908017.57249  -8816194.04549  18634697.2704   18634703.0704
  15785025.628   -44929417.40749 -34988295.79649  15785027.2564   15785034.4714
  17317753.386   -39140267.42549 -30462775.63749  17317753.6144   17317761.0324
 95 12  4 19 36 59.9830000  0  6 25 21  1 29 15 14
  15736052.466   -42617635.10649 -33183838.89749  15736054.8394   15736060.5994
  19122158.059   -10230600.45849  -7880522.84749  19122159.4584   19122170.2664
  18465717.549    -9551148.64849  -7435764.69049  18465719.4794   18465727.9214
  18604211.630   -13068208.54849  -8941018.08949  18604213.4884   18604219.1744
  15772443.492   -44995538.86249 -35039819.01749  15772445.2634   15772451.6674
  17284505.526   -39314988.76449 -30598922.07949  17284505.3034   17284512.2774
 95 12  4 19 37 29.9830000  0  6 25 21  1 29 15 14
  15723523.862   -42683480.74949 -33235147.17549  15723524.2824   15723530.5674
  19122028.444   -10231268.80949  -7881043.73149  19122033.6494   19122044.1494
  18462104.467    -9570155.73049  -7450575.42749  18462101.7114   18462109.3474
  18573765.885   -13228208.94349  -9065693.65549  18573766.8244   18573772.6434
  15759984.530   -45061014.88949 -35090839.30049  15759985.4944   15759992.0704
  17251285.166   -39489566.82949 -30734956.89249  17251284.3584   17251291.1194
 95 12  4 19 37 59.9830000  0  6 25 21  1 29 15 14
  15711074.898   -42748898.16849 -33286121.79549  15711076.3614   15711082.0644
  19121937.099   -10231793.73949  -7881452.85749  19121933.6274   19121944.9524
  18458473.174    -9589222.71349  -7465432.84949  18458473.4394   18458481.7414
  18543337.648   -13388115.03349  -9190295.71349  18543337.6764   18543343.4934
  15747627.271   -45125951.07549 -35141438.92849  15747628.3694   15747635.2034
  17218067.129   -39664118.07749 -30870970.80549  17218067.8394   17218075.1784
 95 12  4 19 38 29.9830000  0  6 25 21  1 29 15 14
  15698745.081   -42813687.83149 -33336607.24749  15698747.7704   15698753.3934
  19121898.181   -10231987.80449  -7881604.15849  19121897.4524   19121906.6264
  18454873.757    -9608142.94849  -7480175.91849  18454873.6264   18454881.7704
  18512955.228   -13547755.67549  -9314690.94849  18512958.2274   18512963.9574
  15735409.370   -45190159.79949 -35191471.70049  15735409.9184   15735416.3374
  17184891.820   -39838453.91749 -31006816.86249  17184893.0494   17184899.6874
 95 12  4 19 38 59.9830000  0  6 25 21  1 29 15 14
  15686500.900   -42878041.56149 -33386753.01059  15686502.2564   15686510.2404
  19121882.958   -10232048.59849  -7881651.54249  19121885.0334   19121897.9194
  18451270.339    -9627089.794 9
  18482588.350   -13707326.20249  -9439031.55549  18482600.1014   18482597.7914
  15723292.928   -45253825.74749 -35241081.53959  15723294.6644   15723300.8784
  17151726.947   -40012746.90549 -31142629.52959  17151726.9354   17151732.7504
 95 12  4 19 39 29.9820000  0  6 25 21  1 29 15 14
  15674341.026   -42941928.57549 -33436535.12459  15674343.9904   15674349.5774
  19121903.877   -10231942.43349  -7881568.96949  19121906.3964   19121914.7164
  18447661.808    -9646034.23659  -7509701.64159  18447662.3734   18447670.3604
  18452249.344   -13866779.97849  -9563281.18549  18452249.0624   18452255.9434
  15711289.350   -45316906.35249 -35290235.26759  15711290.8084   15711297.1284
  17118578.455   -40186939.18549 -31278363.74459  17118578.5794   17118585.5594
 95 12  4 19 39 59.9820000  0  7 25 22 21  1 29 15 14
  15662269.746   -43005370.37149 -33485970.28659  15662271.2554   15662276.6844
  18779351.582     -526794.18819   -385019.51759                  18779360.1934
  19121949.850   -10231706.20549  -7881384.96949  19121951.5494   19121959.2514
  18444050.371    -9665018.10949  -7524494.28659  18444050.0344   18444058.7564
  18421914.578   -14026174.19449  -9687484.39049  18421917.3224   18421925.6344
  15699391.799   -45379432.76449 -35338957.14859  15699392.2194   15699398.9364
  17085442.706   -40361054.73549 -31414038.14859  17085445.7244   17085452.2274
 95 12  4 19 40 29.9820000  0  7 25 22 21  1 29 15 14
  15650287.404   -43068337.18249 -33535035.33559  15650288.7924   15650294.7424
  18744208.599     -711476.66459   -528927.93449  18744208.7244   18744217.1034
  19122031.299   -10231302.21849  -7881070.21549  19122027.0784   19122038.1334
  18440433.632    -9684016.09049  -7539297.92659  18440434.3844   18440444.1214
  18391604.132   -14185475.08049  -9811614.88849  18391603.6404   18391610.1404
  15687606.619   -45441366.40949 -35387217.13859  15687606.7934   15687613.6274
  17052336.475   -40535033.47949 -31549605.96459  17052337.7804   17052344.7224
 95 12  4 19 40 59.9820000  0  7 25 22 21  1 29 15 14
  15638401.543   -43130796.06449 -33583704.54059  15638398.5474   15638407.9814
  18709075.095     -896117.66449   -672804.01259  18709073.8564   18709083.1224
  19122147.632   -10230674.34349                                  19122146.0554
  18436821.310    -9702999.36549                                  18436803.2614
  18361319.028   -14344625.29149  -9935627.95849  18361330.0854   18361320.7364
  15675943.933   -45502659.60849 -35434978.07959  15675952.7814   15675948.4494
  17019268.906   -40708818.01449                                  17019261.2524
 95 12  4 19 41 29.9820000  0  7 25 22 21  1 29 15 14
  15626598.626   -43192819.28349 -33632034.38059  15626600.7934   15626606.7394
  18673930.595    -1080774.43159   -816692.35449  18673932.8224   18673942.7124
  19122295.634   -10229890.24549  -7879970.16259  19122296.5184   19122305.9814
  18433195.682    -9722046.35759  -7568931.93359  18433198.2654   18433206.5904
  18331043.670   -14503700.10249 -10059582.34449  18331047.7394   18331053.7584
  15664384.555   -45563390.92849 -35482301.19659  15664386.3734   15664392.8334
  16986218.703   -40882493.64449 -31820354.09459  16986218.9504   16986225.1234
 95 12  4 19 41 59.9820000  0  7 25 22 21  1 29 15 14
  15614902.222   -43254298.49549 -33679940.26759  15614901.6304   15614907.8464
  18638813.172    -1265330.19549   -960502.01549  18638812.0554   18638822.1764
  19122493.721   -10228844.61849  -7879155.45259  19122494.0614   19122503.3964
  18429580.970    -9741052.04459  -7583741.57559  18429581.2224   18429589.6504
  18300807.616   -14662604.49849 -10183403.87449  18300808.3624   18300815.6424
  15652954.787   -45623462.03949 -35529109.85059  15652954.6044   15652962.4844
  16953206.489   -41055968.789 9
 95 12  4 19 42 29.9820000  0  7 25 22 21  1 29 15 14
  15603289.926   -43315313.43949 -33727484.35649  15603291.3064   15603296.7804
  18603702.690    -1449839.41049  -1104275.43949  18603702.1504   18603711.7164
  19122733.167   -10227592.86549  -7878180.16249  19122733.7104   19122744.2944
  18425961.055    -9760074.20949  -7598564.06159  18425961.5354   18425969.7034
  18270589.079   -14821398.04849 -10307139.07549  18270590.8944   18270598.5064
  15641634.065   -45682948.29149 -35575462.80349  15641635.5494   15641642.1544
  16920216.943   -41229328.01459 -32090613.57259  16920217.7234   16920225.3204
 95 12  4 19 42 59.9820000  0  6 25 22  1 29 15 14
  15591742.292   -43375992.80049 -33774766.96159  15591720.2144   15591751.7404
  18568575.372    -1634430.91849  -1248112.96849  18568575.8984   18568585.1174
  18422314.157    -9779229.33949  -7613490.15859  18422321.8614   18422321.5554
  18240368.876   -14980212.15849 -10430890.28449  18240373.8374   18240375.8744
  15630400.264   -45741986.42849 -35621466.54659  15630397.3384   15630400.4364
  16887222.376   -41402719.63749 -32225723.89959  16887221.2014   16887242.1414
 95 12  4 19 43 29.9820000  0  6 25 22  1 29 15 14
  15580313.023   -43436066.64549 -33821577.75359  15580313.2674   15580318.2284
  18533475.785    -1818860.59849  -1391824.39749  18533480.0414   18533487.0574
  18418698.135    -9798253.61349  -7628314.27559  18418695.9194   18418704.0784
  18210192.200   -15138786.88749 -10554454.96649  18210194.0844   18210202.0244
  15619299.465   -45800320.74449 -35666921.88459  15619300.2774   15619306.7404
  16854270.696   -41575887.92649 -32360660.20159  16854270.0594   16854276.9844
 95 12  4 19 43 59.9820000  0  6 25 22  1 29 15 14
  15568954.451   -43495743.26349 -33868079.00959  15568956.4834   15568962.5574
  18498375.351    -2003346.30949  -1535579.46449  18498373.2154   18498381.3844
  18415058.873    -9817356.91249  -7643199.97559  18415061.5444   18415070.6894
  18180024.317   -15297325.92049 -10677991.84349  18180024.3544   18180032.0404
  15608291.698   -45858161.85449 -35711992.89459  15608293.4004   15608300.5964
  16821321.467   -41749023.97249 -32495571.38859  16821323.3924   16821329.6104
 95 12  4 19 44 29.9820000  0  6 25 22  1 29 15 14
  15557712.577   -43554831.14649 -33914121.51359  15557713.3344   15557717.8794
  18463291.383    -2187706.41449  -1679236.64149  18463289.1634   18463300.6364
  18411446.313    -9836357.82359  -7658005.90659  18411443.8714   18411452.6494
  18149900.786   -15455628.85949 -10801344.72749  18149902.6564   18149905.4774
  15597416.438   -45915323.17249 -35756534.18759  15597415.2324   15597425.0494
  16788419.164   -41921929.45749 -32630302.92059  16788416.7284   16788421.7364
 95 12  4 19 44 59.9820000  0  6 25 22  1 29 15 14
  15546551.625   -43613478.16349 -33959820.46449  15546552.2454   15546557.7854
  18428201.841    -2372093.46249  -1822914.86049  18428205.2274   18428211.9764
  18407815.670    -9855419.60549  -7672859.24359  18407817.5104   18407824.0394
  18119791.908   -15613846.46849 -10924631.14949  18119792.9394   18119798.5034
  15586637.091   -45971953.25349 -35800661.53549  15586639.3954   15586646.7504
  16755536.427   -42094742.57649 -32764962.44449  16755535.6114   16755542.2914
 95 12  4 19 45 29.9820000  0  6 25 22  1 29 15 14
  15535490.782   -43671604.45849 -34005113.68759  15535491.5784   15535496.9844
  18393135.706    -2556416.24349  -1966543.00549  18393129.4094   18393135.7594
  18404192.454    -9874469.94149  -7687703.67459  18404193.1204   18404200.7884
  18089719.853   -15771891.28549 -11047782.90949  18089719.0584   18089725.2044
  15575980.277   -46027968.49649 -35844309.79359  15575980.2924   15575987.0934
  16722683.932   -42267375.96849 -32899481.95059  16722684.6904   16722690.4914
 95 12  4 19 45 59.9820000  0  6 25 22  1 29 15 14
  15524525.193   -43729226.85749 -34050014.24759  15524526.2104   15524532.0994
  18358065.819    -2740661.13649  -2110110.42049  18358067.8804   18358075.5194
  18400565.722    -9893510.05449  -7702540.13259  18400569.3404   18400577.3384
  18059675.568   -15929769.52949 -11170804.87949  18059675.8814   18059681.3924
  15565435.427   -46083373.19849 -35887482.29759  15565437.3364   15565443.6424
  16689864.710   -42439838.23649 -33033868.10659  16689866.1984   16689872.6334
 95 12  4 19 46 29.9820000  0  6 25 22  1 29 15 14
  15513662.552   -43786305.48749 -34094491.08659  15513664.0694   15513670.2104
  18323032.130    -2924779.19449  -2253579.00049  18323032.1334   18323039.3964
  18396952.249    -9912496.86049  -7717335.04459  18396957.1234   18396965.0644
  18029671.876   -16087432.72849 -11293659.29159  18029676.0184   18029677.7024
  15555018.563   -46138118.59649 -35930141.05459  15555019.4934   15555026.5064
  16657083.173   -42612097.70149 -33168096.24359  16657086.0824   16657092.1724
 95 12  4 19 46 59.9820000  0  6 25 22  1 29 15 14
  15502887.074   -43842933.54349 -34138616.84159  15502888.2684   15502894.0954
  18288001.091    -3108852.97849  -2397013.06749  18288003.2074   18288011.7494
  18393343.761    -9931491.21849  -7732135.89359  18393341.8574   18393349.2774
  17999692.798   -16244974.54649 -11416419.11359  17999693.1594   17999699.5534
  15544712.349   -46192281.39249 -35972345.84859  15544712.6474   15544719.1924
  16624329.084   -42784225.67249 -33302221.89759  16624331.4464   16624337.1184
 95 12  4 19 47 29.9810000  0  6 25 22  1 29 15 14
  15492196.381   -43899115.64649 -34182395.10259  15492195.8534   15492201.9104
  18252983.300    -3292886.17649  -2540415.49949  18252983.8574   18252992.0534
  18389725.492    -9950493.19849  -7746942.64949  18389724.8974   18389733.5904
  17969735.517   -16402399.83949 -11539088.14749  17969736.9464   17969746.7414
  15534513.008   -46245867.32849 -36014101.12859  15534515.5884   15534522.8064
  16591603.325   -42956209.12049 -33436234.94459  16591603.0254   16591610.1804
 95 12  4 19 47 59.9810000  0  6 25 22  1 29 15 14
  15481587.615   -43954858.75349 -34225831.27849  15481589.4334   15481595.2734
  18217965.571    -3476901.17449  -2683803.76549  18217965.8444   18217972.6054
  18386108.842    -9969500.61749  -7761753.65749  18386110.6664   18386117.9564
  17939798.617   -16559730.10649 -11661683.09849  17939797.5084   17939805.0184
  15524426.881   -46298883.65849 -36055412.57249  15524427.2034   15524433.7384
  16558902.403   -43128047.80049 -33570135.18249  16558903.5224   16558910.0074
 95 12  4 19 48 29.9810000  0  6 25 22  1 29 15 14
  15471048.275   -44010244.79449 -34268989.21649  15471050.2324   15471055.4924
  18182934.977    -3660981.25249  -2827242.75549  18182936.3114   18182943.5604
  18382473.543    -9988604.15649  -7776639.53649  18382474.9574   18382482.7464
  17909857.922   -16717064.63049 -11784281.37549  17909858.1534   17909864.1624
  15514428.799   -46351421.09549 -36096350.84949  15514429.2914   15514435.7924
  16526217.954   -43299817.50049 -33703981.66749  16526217.2574   16526223.1304
 95 12  4 19 48 59.9810000  0  6 25 22  1 29 15 14
  15460622.051   -44065037.86949 -34311685.10949  15460623.5814   15460628.7804
  18147937.043    -3844891.03949  -2970549.00149  18147939.3774   18147946.7824
  18378862.086   -10007581.07949  -7791426.77549  18378864.2004   18378871.1924
  17879952.753   -16874186.43749 -11906713.89249  17879957.7324   17879964.8004
  15504561.356   -46403264.72149 -36136748.48449  15504563.7774   15504570.3444
  16493586.981   -43471283.49749 -33837591.49749  16493588.5994   16493594.7104
 95 12  4 19 49 29.9810000  0  6 25 22  1 29 15 14
  15450278.051   -44119395.52149 -34354041.69949  15450279.2644   15450284.8124
  18112952.531    -4028772.45949  -3113833.15849  18112947.9124   18112955.8304
  18375243.962   -10026616.19349  -7806259.35949  18375242.0224   18375249.3734
  17850066.972   -17031250.30749 -12029101.25449  17850070.0334   17850077.1584
  15494796.624   -46454586.56749 -36176739.53649  15494797.3314   15494804.1144
  16460981.776   -43642626.87249 -33971105.77849  16460982.5744   16460988.6084
 95 12  4 19 49 59.9810000  0  6 25 22  1 29 15 14
  15440038.785   -44173202.44049 -34395969.16249  15440040.5844   15440045.5814
  18077985.390    -4212490.00949  -3256989.62849  18077987.2374   18077995.3474
  18371629.713   -10045603.48749  -7821054.68649  18371626.2144   18371636.4274
  17820210.942   -17188141.40349 -12151354.00649  17820212.1014   17820220.5834
  15485150.738   -46505276.94649 -36216238.54149  15485151.4274   15485158.8184
  16428417.819   -43813749.29349 -34104447.89349  16428419.0514   16428426.0054
 95 12  4 19 50 29.9810000  0  6 25 22  1 29 15 14
  15429887.735   -44226550.61249 -34437539.14459  15429892.3944   15429890.1454
  18043044.518    -4396115.37149  -3400074.27349  18043048.3734   18043050.3694
  18367999.169   -10064643.20049  -7835890.83059  18368004.5114   18368017.2214
  17790376.725   -17344938.24649 -12273533.30449  17790383.0414   17790383.9574
  15475606.380   -46555433.34049 -36255321.47159  15475596.3104   15475605.2374
  16395877.728   -43984751.91149 -34237696.63259  16395865.0684   16395885.8084
 95 12  4 19 50 59.9810000  0  6 25 22  1 29 15 14
  15419831.266   -44279399.32449 -34478719.94859  15419831.7874   15419837.1794
  18008130.823    -4579590.83949  -3543042.12149  18008130.3694   18008137.7874
  18364385.177   -10083665.77649  -7850713.66659  18364385.6144   18364394.3474
  17760573.963   -17501558.52849 -12395574.99749  17760573.0284   17760579.4574
  15466173.853   -46604997.84949 -36293943.16159  15466175.5084   15466181.9204
  16363371.145   -44155581.08349 -34370810.24659  16363370.8804   16363377.0294
 95 12  4 19 51 29.9810000  0  6 25 22  1 29 15 14
  15409878.570   -44331694.99249 -34519469.81559  15409880.3904   15409885.6564
  17973258.270    -4762854.40849  -3685844.83149  17973256.0564   17973263.1434
  18360781.226   -10102587.17449  -7865457.63949  18360784.3754   18360793.0664
  17730813.130   -17657935.63049 -12517427.24749  17730815.5464   17730821.2924
  15456869.466   -46653892.57049 -36332042.95059  15456870.8524   15456877.7644
  16330910.773   -44326151.70349 -34503722.37859  16330912.5884   16330918.2594
 95 12  4 19 51 59.9810000  0  6 25 22  1 29 15 14
  15399979.877   -44383715.74349 -34560005.45049  15399978.5834   15399986.4454
  17938370.142    -4946191.34649  -3828704.73749  17938369.3304   17938375.2294
  18357149.172   -10121667.60449  -7880325.53749  18357153.4134   18357162.8964
  17701049.343   -17814358.17949 -12639314.87149  17701052.3644   17701054.1794
  15447641.612   -46702391.18149 -36369834.08049  15447644.7114   15447651.1034
  16298450.982   -44496726.14849 -34636637.48849  16298453.8194   16298463.2644
 95 12  4 19 52 29.9810000  0  6 25 22  1 29 15 14
  15390145.276   -44435386.07949 -34600268.04659  15390148.3964   15390153.7594
  17903477.389    -5129533.73049  -3971568.92849  17903480.3494   17903487.3934
  18353509.000   -10140812.05949  -7895243.34659  18353509.9794   18353519.2534
  17671289.241   -17970739.23149 -12761170.18649  17671290.4984   17671297.8874
  15438503.497   -46750406.88749 -36407248.93159  15438505.1534   15438511.7184
  16266009.752   -44667206.36949 -34769479.16859  16266011.3284   16266017.5664
 95 12  4 19 52 59.9810000  0  6 25 22  1 29 15 14
  15380389.780   -44486656.60849 -34640219.09759  15380392.0594   15380397.3344
  17868595.582    -5312832.06049  -4114398.77049  17868600.9684   17868605.8284
  18349868.720   -10159962.12549  -7910165.50159  18349865.7394   18349875.2714
  17641546.783   -18127037.82349 -12882961.22749  17641548.1174   17641554.6304
  15429471.639   -46797876.35649 -36444238.13559  15429472.4294   15429478.5554
  16233601.643   -44837514.76249 -34902186.96259  16233603.3134   16233609.4104
 95 12  4 19 53 29.9810000  0  6 25 22  1 29 15 14
  15370743.090   -44537362.91649 -34679730.49649  15370743.0504   15370748.3684
  17833757.958    -5495925.83549  -4257069.24849  17833757.4964   17833764.9344
  18346241.602   -10178989.90949  -7924992.36249  18346244.3284   18346253.6884
  17611842.165   -18283120.93849 -13004584.39549  17611846.9474   17611852.7494
  15420569.590   -46844652.01249 -36480686.70849  15420571.1304   15420577.5434
  16201255.254   -45007497.20849 -35034640.77649  16201256.1594   16201263.0194
 95 12  4 19 53 59.9810000  0  6 25 22  1 29 15 14
  15361171.164   -44587656.96449 -34718920.65349  15361172.1824   15361177.5234
  17798934.119    -5678948.94749  -4399684.63949  17798929.8814   17798936.9084
  18342609.467   -10198073.88449  -7939863.00549  18342611.9544   18342621.8974
  17582159.078   -18439124.02249 -13126145.18149  17582160.5664   17582166.5314
  15411769.627   -46890895.17049 -36516720.35549  15411771.0974   15411777.6354
  16168937.079   -45177324.14649 -35166973.41749  16168939.1714   16168946.1964
 95 12  4 19 54 29.9810000  0  6 25 22  1 29 15 14
  15351663.142   -44637619.19749 -34757852.26249  15351664.9574   15351670.0624
  17764102.616    -5861974.32049  -4542301.82349  17764101.3114   17764108.3734
  18338953.155   -10217293.59849  -7954839.41849  18338956.3424   18338965.0054
  17552471.467   -18595110.79749 -13247693.25149  17552475.2694   17552483.1274
  15403055.387   -46936684.78849 -36552400.58049  15403057.1124   15403064.2614
  16136638.382   -45347063.66349 -35299237.94249  16136639.0664   16136645.9774
 95 12  4 19 54 59.9810000  0  6 25 22  1 29 15 14
  15342243.526   -44687116.05749 -34796421.24449  15342246.0554   15342251.1954
  17729299.295    -6044863.32149  -4684812.75549  17729297.7514   17729304.7174
  18335296.224   -10236520.63949  -7969821.53049  18335297.5344   18335304.7494
  17522820.182   -18750951.32649 -13369127.37649  17522821.8034   17522827.8634
  15394450.533   -46981903.47149 -36587635.92849  15394451.9384   15394459.1714
  16104377.061   -45516596.99849 -35431341.80749  16104378.1284   16104384.2944
 95 12  4 19 55 29.9810000  0  6 25 22  1 29 15 14
  15332897.475   -44736238.56049 -34834698.51749  15332898.2364   15332903.1274
  17694501.664    -6227698.54649  -4827281.75549  17694504.4584   17694513.2534
  18331619.384   -10255845.24349  -7984879.66349  18331620.3634   18331627.2234
  17493174.911   -18906729.36649 -13490512.80749  17493177.2844   17493184.4134
  15385935.681   -47026658.50549 -36622509.97949  15385936.2094   15385942.4234
  16072133.681   -45686038.53749 -35563374.13149  16072134.0164   16072140.4304
 95 12  4 19 55 59.9800000  0  6 25 22  1 29 15 14
  15323657.739   -44784794.38949 -34872534.22649  15323658.3894   15323663.3894
  17659755.342    -6410288.45249  -4969559.56849  17659759.2814   17659768.5264
  18327960.024   -10275057.65749  -7999850.36349  18327963.9884   18327973.1264
  17463582.861   -19062245.22749 -13611693.96749  17463584.4734   17463590.1614
  15377542.893   -47070758.74749 -36656873.81949  15377544.1964   15377550.6034
  16039946.661   -45855179.92249 -35695172.57249  16039947.9734   16039953.7124
 95 12  4 19 56 29.9800000  0  6 25 22  1 29 15 14
  15314494.063   -44832943.53949 -34910053.04249  15314496.1874   15314501.0814
  17625026.574    -6592814.85749  -5111787.86649  17625025.3554   17625034.7174
  18324301.234   -10294295.09049  -8014840.57449  18324302.7544   18324312.5144
  17434003.518   -19217686.02549 -13732816.61249  17434004.2674   17434010.7734
  15369244.578   -47114367.36749 -36690854.57349  15369245.5714   15369251.9574
  16007785.993   -46024181.87149 -35826862.37349  16007787.2484   16007793.5114
 95 12  4 19 56 59.9800000  0  6 25 22  1 29 15 14
  15305425.818   -44880601.09749 -34947188.80349  15305426.9834   15305432.3604
  17590325.976    -6775174.77049  -5253886.42049  17590323.7714   17590332.3184
  18320653.187   -10313476.79849  -8029787.38649  18320651.4224   18320662.0344
  17404453.800   -19372962.75149 -13853811.43549  17404456.1884   17404462.7244
  15361054.995   -47157401.63649 -36724387.77749  15361056.3064   15361063.2454
  15975667.343   -46192967.81549 -35958383.86649  15975668.1314   15975674.6284
 95 12  4 19 57 29.9800000  0  6 25 22  1 29 15 14
  15296439.553   -44927819.10949 -34983982.06449  15296441.9404   15296446.8074
  17555641.890    -6957427.11049  -5395901.14849  17555642.5384   17555650.4394
  18316999.080   -10332667.35149  -8044741.08849  18317001.7684   18317010.5164
  17374928.452   -19528136.24849 -13974725.79749  17374927.3334   17374934.5744
  15352965.533   -47199913.03649 -36757513.55649  15352966.6524   15352973.6794
  15943578.920   -46361581.74849 -36089771.30649  15943581.7964   15943588.7884
 95 12  4 19 57 59.9800000  0  6 25 22  1 29 15 14
  15287546.557   -44974548.82049 -35020394.81849  15287549.3104   15287554.5664
  17520990.777    -7139528.41149  -5537798.16249  17520988.9374   17520998.6674
  18313353.739   -10351826.54749  -8059670.32049  18313354.4304   18313366.1454
  17345422.815   -19683163.70449 -14095526.38749  17345427.5744   17345433.3734
  15344985.990   -47241848.56349 -36790190.59549  15344987.0594   15344993.7594
  15911539.336   -46529962.18449 -36220976.80849  15911540.6304   15911547.3264
 95 12  4 19 58 29.9800000  0  6 25 22  1 29 15 14
  15278735.175   -45020848.13549 -35056472.20749  15278738.4384   15278744.1984
  17486358.621    -7321515.38949  -5679606.08049  17486359.2794   17486367.1614
  18309701.614   -10371006.37049  -8074615.63549  18309705.2574   18309715.1634
  17315946.891   -19838087.44549 -14216246.14649  17315945.5054   17315952.4584
  15337106.360   -47283257.50649 -36822457.32349  15337106.9874   15337114.3994
  15879533.907   -46698160.84849 -36352040.68049  15879534.0174   15879540.3354
 95 12  4 19 58 59.9800000  0  6 25 22  1 29 15 14
  15269994.857   -45066794.95049 -35092274.92149  15269995.3664   15270000.4984
  17451737.297    -7503449.93949  -5821373.11249  17451737.6304   17451746.1604
  18306037.979   -10390280.05049  -8089634.08649  18306037.7164   18306047.1384
  17286468.116   -19992971.34749 -14336934.86249  17286472.6734   17286478.1274
  15329312.861   -47324209.08049 -36854367.65649  15329314.2374   15329320.8114
  15847546.981   -46866243.83249 -36483014.40649  15847547.9304   15847554.6934
 95 12  4 19 59 29.9800000  0  6 25 22  1 29 15 14
  15261357.301   -45112181.94249 -35127641.40749  15261358.1004   15261363.5524
  17417165.876    -7685122.44049  -5962935.96949  17417166.3124   17417174.1854
  18302392.764   -10409437.92149  -8104562.32549  18302391.7764   18302402.5504
  17257044.629   -20147611.57349 -14457433.70849  17257045.3984   17257052.1504
  15321648.728   -47364489.66649 -36885755.13949  15321649.4394   15321655.9044
  15815627.010   -47033986.26649 -36613722.77849  15815628.2344   15815634.4064
 95 12  4 19 59 59.9800000  0  6 25 22  1 29 15 14
  15252782.380   -45157242.94849 -35162753.88349  15252783.6384   15252788.9654
  17382610.640    -7866736.60249  -6104453.38149  17382605.7054   17382614.0914
  18298729.599   -10428678.98149  -8119555.38249  18298731.3324   18298739.6194
  17227624.053   -20302217.62249 -14577905.91449  17227624.8734   17227630.6514
  15314069.930   -47404313.08449 -36916786.39549  15314070.9364   15314077.5324
  15783730.480   -47201601.86849 -36744332.31049  15783732.3344   15783737.7674
 95 12  4 20  0 29.9800000  0  6 25 22  1 29 15 14
  15244280.776   -45201929.08649 -35197574.24449  15244280.2064   15244285.5614
  17348067.427    -8048230.89949  -6245877.39049  17348070.2844   17348077.2494
  18295065.882   -10447935.03249  -8134560.10049  18295066.2214   18295074.8954
  17198221.789   -20456723.71049 -14698300.24449  17198222.9054   17198228.9524
  15306588.675   -47443626.59949 -36947420.30349  15306589.9334   15306596.8444
  15751869.593   -47369031.09349 -36874796.61949  15751871.0254   15751877.4034
 95 12  4 20  0 59.9800000  0  6 25 22  1 29 15 14
  15235835.531   -45246284.26449 -35232136.72949  15235839.2404   15235844.7174
  17313544.776    -8229656.38349  -6387247.78949  17313545.6564   17313554.1034
  18291390.634   -10467270.39349  -8149626.64649  18291387.8414   18291396.1954
  17168829.693   -20611188.11049 -14818662.10149  17168829.5994   17168836.2794
  15299193.783   -47482484.01349 -36977698.82549  15299195.4394   15299202.8154
  15720034.215   -47536331.28349 -37005160.37749  15720034.6894   15720041.1954
 95 12  4 20  1 29.9800000  0  6 25 22  1 29 15 14
  15227474.545   -45290241.21649 -35266388.89949  15227474.9834   15227480.0554
  17279046.328    -8410951.30949  -6528516.46949  17279046.0134   17279053.4224
  18287696.912   -10486628.32149  -8164710.76849  18287703.0504   18287712.4874
  17139454.575   -20765549.07849 -14938943.33549  17139456.1614   17139461.2894
  15291897.585   -47520828.81449 -37007577.90649  15291898.8634   15291905.9414
  15688234.328   -47703440.15049 -37135375.06049  15688235.1144   15688241.0774
 95 12  4 20  1 59.9800000  0  6 25 22  1 29 15 14
  15219255.456   -45333433.47549 -35300045.20649  15219255.3744   15219260.6764
  17244641.906    -8591746.08649  -6669395.43349  17244643.1574   17244649.8294
  18284082.496   -10505642.36649  -8179526.94449  18284084.9314   18284092.5534
  17110168.996   -20919441.12049 -15058859.18249  17110170.1784   17110176.6214
  15284767.497   -47558303.09849 -37036778.66249  15284768.0394   15284774.7724
  15656541.572   -47869989.72049 -37265153.92349  15656541.8184   15656548.3014
 95 12  4 20  2 29.9800000  0  6 25 22  1 29 15 14
  15211115.014   -45376208.44049 -35333376.34049  15211115.1714   15211121.0614
  17210266.213    -8772397.57449  -6810162.75949  17210266.0554   17210273.2234
  18280460.533   -10524685.80349  -8194366.03449  18280461.8214   18280469.7544
  17080903.019   -21073226.55849 -15178691.92349  17080906.6354   17080912.1274
  15277731.745   -47595271.94949 -37065585.56849  15277732.5574   15277740.1694
  15624883.132   -48036348.08349 -37394783.79349  15624884.8624   15624891.4204
 95 12  4 20  2 59.9800000  0  6 25 22  1 29 15 14
  15203072.846   -45418470.67649 -35366307.95049  15203073.2954   15203079.2314
  17175932.960    -8952807.98749  -6950742.27549  17175934.1394   17175942.0044
  18276845.875   -10543667.57649  -8209157.04249  18276850.2934   18276856.6224
  17051678.627   -21226824.08249 -15298378.28049  17051678.3284   17051684.0284
  15270810.159   -47631645.31849 -37093928.47249  15270811.4004   15270818.6924
  15593281.423   -48202423.87549 -37524193.48249  15593281.6114   15593287.7814
 95 12  4 20  3 29.9800000  0  6 25 22  1 29 15 14
  15195119.221   -45460255.71649 -35398867.72349  15195121.9654   15195127.6614
  17141644.933    -9132998.01249  -7091150.05649  17141645.0154   17141653.1534
  18273244.094   -10562605.32649  -8223913.76549  18273245.5214   18273253.4914
  17022479.382   -21380258.49549 -15417937.51049  17022479.7374   17022485.4694
  15263994.764   -47667453.68149 -37121831.09749  15263996.6304   15264004.3124
  15561725.781   -48368235.33949 -37653397.19649  15561728.3314   15561734.6024
 95 12  4 20  3 59.9800000  0  6 25 22  1 29 15 14
  15187251.306   -45501610.13649 -35431091.94549  15187252.5454   15187258.3704
  17107391.364    -9313002.62749  -7231413.36849  17107390.0984   17107398.6554
  18269639.886   -10581548.06349  -8238674.37149  18269641.0054   18269647.6154
  16993309.517   -21533562.90949 -15537395.44249  16993307.1444   16993313.2594
  15257281.509   -47702743.00149 -37149329.28349  15257281.9734   15257288.5524
  15530218.142   -48533831.45849 -37782433.13049  15530217.0144   15530222.4524
 95 12  4 20  4 29.9790000  0  6 25 22  1 29 15 14
  15179450.710   -45542602.90249 -35463034.36749  15179451.7714   15179457.3444
  17073165.695    -9492874.23249  -7371573.05449  17073162.0344   17073170.1974
  18266018.132   -10600559.11049  -8253488.19449  18266023.5844   18266031.8864
  16964146.220   -21686794.27549 -15656796.43549  16964148.3634   16964154.3684
  15250651.843   -47737578.29849 -37176473.67849  15250652.8854   15250659.4884
  15498732.922   -48699272.75449 -37911348.40749  15498733.4814   15498740.6574
 95 12  4 20  4 59.9790000  0  6 25 22  1 29 15 14
  15171720.973   -45583226.61949 -35494689.21249  15171721.4334   15171727.2824
  17038964.239    -9672599.78949  -7511618.91049  17038961.8934   17038969.0944
  18262393.799   -10619620.19449  -8268341.03049  18262395.1964   18262404.9664
  16935008.268   -21839942.89049 -15776132.97549  16935005.3974   16935010.6464
  15244113.524   -47771942.57149 -37203251.04849  15244114.1404   15244120.1554
  15467287.462   -48864523.71949 -38040115.37449  15467287.5374   15467294.3884
 95 12  4 20  5 29.9790000  0  6 25 22  1 29 15 14
  15164060.301   -45623477.54949 -35526053.57349  15164062.3054   15164067.7964
  17004792.475    -9852160.97649  -7651536.71649  17004792.4604   17004799.8204
  18258760.283   -10638721.02949  -8283224.86649  18258761.1754   18258768.4324
  16905878.690   -21992983.15749 -15895385.06949  16905882.3844   16905888.3124
  15237664.542   -47805822.32949 -37229650.87349  15237667.0304   15237673.6654
  15435880.358   -49029559.38549 -38168714.56549  15435882.4304   15435889.0674
 95 12  4 20  5 59.9790000  0  6 25 22  1 29 15 14
  15156467.972   -45663378.43849 -35557145.18149  15156469.1994   15156474.4694
  16970649.720   -10031580.84849  -7791344.40649  16970649.8574   16970656.9674
  18255115.992   -10657875.43349  -8298150.43349  18255117.0814   18255124.8584
  16876774.113   -22145936.36249 -16014569.33649  16876775.4854   16876783.6814
  15231307.410   -47839234.39349 -37255686.26949  15231308.3234   15231315.6534
  15404517.174   -49194381.71749 -38297147.53249  15404518.2204   15404525.4034
 95 12  4 20  6 29.9790000  0  6 25 22  1 29 15 14
  15148945.250   -45702916.76249 -35587954.26149  15148946.1754   15148951.0454
  16936538.905   -10210832.61549  -7931021.08249  16936539.7494   16936546.2884
  18251460.555   -10677054.96649  -8313095.56449  18251467.0654   18251474.4824
  16847686.808   -22298792.68049 -16133678.10449  16847687.9204   16847695.8744
  15225042.121   -47872157.55349 -37281340.68649  15225043.5254   15225050.6384
  15373201.425   -49358951.67949 -38425383.84049  15373201.7994   15373208.2984
 95 12  4 20  6 59.9790000  0  6 25 22  1 29 15 14
  15141487.148   -45742104.98049 -35618490.54549  15141487.7584   15141493.5314
  16902452.326   -10389939.08649  -8070584.51349  16902456.2834   16902464.2714
  18247806.662   -10696278.28149  -8328074.78449  18247808.8674   18247816.7214
  16818614.656   -22451573.57849 -16252728.10349  16818616.1524   16818621.5554
  15218865.963   -47904614.32649 -37306631.69349  15218867.4524   15218874.4914
  15341928.875   -49523287.11649 -38553437.40349  15341929.3464   15341936.6504
 95 12  4 20  7 29.9790000  0  6 25 22  1 29 15 14
  15134099.202   -45780932.20249 -35648745.54649  15134100.1104   15134103.4554
  16868404.981   -10568893.96249  -8210029.79749  16868408.5384   16868413.3504
  18244139.399   -10715531.87449  -8343077.61349  18244148.1134   18244152.6314
  16789555.026   -22604275.25549 -16371716.40159  16789551.9024   16789557.8094
  15212778.327   -47936604.63849 -37331559.26359  15212768.8834   15212773.6824
  15310699.116   -49687400.84149 -38681318.19459  15310684.2404   15310711.0814
 95 12  4 20  7 59.9790000  0  6 25 22  1 29 15 14
  15126783.520   -45819377.57849 -35678702.97759  15126784.0594   15126788.7864
  16834381.048   -10747668.79449  -8349334.78659  16834382.1494   16834390.7024
  18240472.916   -10734801.26649  -8358092.78759  18240476.8244   18240486.2254
  16760511.652   -22756891.83149 -16490638.33259  16760515.2174   16760521.2814
  15206779.083   -47968121.330 9
  15279512.418   -49851280.82849 -38809016.86559  15279514.2634   15279520.2874
 95 12  4 20  8 29.9790000  0  6 25 22  1 29 15 14
  15119543.901   -45857421.99749 -35708347.98759  15119549.1694   15119551.7354
  16800397.019   -10926247.72549  -8488487.12059  16800401.2514   16800407.2524
  18236803.409   -10754083.57249  -8373117.99649  18236812.1794   18236816.0694
  16731491.893   -22909409.43349 -16609483.19359  16731486.1704   16731495.7504
  15200875.194   -47999159.32859                                  15200713.5904
  15248369.184   -50014935.32649 -38936539.84859  15248381.0104   15248377.0704
 95 12  4 20  8 59.9790000  0  6 25 22  1 29 15 14
  15112386.310   -45895042.29349 -35737662.51759  15112385.4874   15112391.0984
  16766457.931   -11104623.70049  -8627481.31859  16766454.3534   16766462.6834
  18233140.994   -10773360.46549  -8388139.01259  18233141.5934   18233149.0234
  16702484.599   -23061823.36859 -16728247.27259  16702488.2874   16702494.9734
  15195061.420   -48029712.486 9
  15217271.534   -50178368.28949 -39063890.17459  15217272.1644   15217278.2254
 95 12  4 20  9 29.9790000  0  6 25 22  1 29 15 14
  15105294.539   -45932297.15349 -35766692.28059  15105296.6974   15105301.0014
  16732542.768   -11282840.83249  -8766351.73649  16732542.2364   16732549.0594
  18229463.514   -10792678.99749  -8403192.48649  18229465.9184   18229473.0974
  16673494.674   -23214189.34449 -16846973.97059  16673494.9394   16673500.1804
  15189331.155   -48059828.862 9
  15186202.337   -50341633.10249 -39191109.48659  15186203.9174   15186209.4914
 95 12  4 20  9 59.9790000  0  6 25 22  1 29 15 14
  15098296.139   -45969073.64849 -35795349.29259  15098297.4634   15098302.6574
  16698681.857   -11460775.08849  -8905001.70949  16698682.6474   16698688.4034
  18225803.883   -10811928.23649  -8418191.95249  18225801.8124   18225810.3104
  16644535.967   -23366377.38049 -16965562.00359  16644534.6404   16644541.0814
  15183707.377   -48089381.128 9
  15155193.168   -50504589.46549 -39318088.44359  15155193.9184   15155199.8224
 95 12  4 20 10 29.9790000  0  6 25 22  1 29 15 14
  15091379.013   -46005415.64349 -35823667.73359  15091381.7484   15091386.9904
  16664866.781   -11638479.04349  -9043472.25749  16664867.0174   16664873.0164
  18222143.017   -10831154.75749  -8433173.71649  18222141.9664   18222152.8444
  16615601.512   -23518417.83449 -17084035.05859  16615601.6074   16615605.8654
  15178181.629   -48118408.909 9
  15124232.141   -50667284.49349 -39444863.77159  15124233.8704   15124240.2104
 95 12  4 20 10 59.9790000  0  6 25 22  1 29 15 14
  15084538.565   -46041375.03249 -35851688.03959  15084539.0294   15084544.3674
  16631084.785   -11815982.96449  -9181786.93949  16631089.2064   16631095.0794
  18218481.181   -10850395.93549  -8448166.89449  18218480.9124   18218489.2914
  16586688.858   -23670349.74149 -17202423.53359  16586690.7714   16586694.7584
  15172749.889   -48146953.752 9
  15093315.232   -50829750.87949 -39571460.93059  15093317.1284   15093323.6154
 95 12  4 20 11 29.9790000  0  6 25 22  1 29 15 14
  15077739.563   -46077087.97649 -35879516.31749  15077742.7994   15077748.2214
  16597328.214   -11993398.90049  -9320033.07249  16597328.3124   16597334.7774
  18214792.923   -10869786.94649  -8463276.81249  18214792.0044   18214799.7154
  16557780.984   -23822268.58749 -17320801.81049  16557780.3084   16557787.0984
  15167388.581   -48175135.296 9
  15062423.594   -50992086.82549 -39697956.45049  15062425.5764   15062432.2084
 95 12  4 20 11 59.9790000  0  6 25 22  1 29 15 14
  15071024.776   -46112392.08049 -35907026.01359  15071026.2714   15071031.2134
  16563618.607   -12170562.65059                                  16563607.9574
  18211104.263   -10889167.81449  -8478378.83149  18211102.5154   18211108.4104
  16528906.893   -23974000.56549                                  16529107.3324
  15162123.206   -48202802.708 9
  15031591.743   -51154118.82449 -39824215.10059  15031590.3044   15031605.8284
 95 12  4 20 12 29.9790000  0  6 25 22  1 29 15 14
  15064380.502   -46147300.12749 -35934227.07949  15064382.5314   15064387.6584
  16529946.633   -12347483.64159  -9595943.13459  16529947.0544   16529954.3294
  18207410.617   -10908534.20449  -8493469.58749  18207417.1784   18207426.8304
  16500061.865   -24125570.887 9
  15156948.746   -48229985.664 9
  15000810.896   -51315869.24549 -39950254.39649  15000812.1024   15000817.9794
 95 12  4 20 12 59.9780000  0  6 25 22  1 29 15 14
  15057816.594   -46181800.43649 -35961110.43749  15057817.5384   15057822.9024
  16496337.404   -12524120.24749  -9733582.00149  16496335.8714   16496342.3174
  18203737.077   -10927851.22349  -8508521.88049  18203741.0204   18203751.4854
  16471253.816   -24276956.89159 -17675103.27359  16471255.7714   16471260.8494
  15151871.875   -48256666.752 9
  14970093.043   -51477295.44349 -40076041.01949  14970093.8224   14970100.5504
 95 12  4 20 13 29.9780000  0  6 25 22  1 29 15 14
  15051324.106   -46215925.19949 -35987701.16449  15051323.8614   15051328.9014
  16462770.107   -12700515.84049  -9871033.06949  16462768.2464   16462773.8744
  18200070.052   -10947142.79849  -8523554.35149  18200070.5804   18200080.5944
  16442475.469   -24428196.07549 -17792951.95749  16442477.0924   16442481.8474
  15146883.985   -48282878.133 9     -5618.94659                  15146892.8284
  14939429.679   -51638431.66449 -40201601.68149  14939430.6804   14939436.8924
 95 12  4 20 13 59.9780000  0  6 25 22  1 29 15 14
  15044898.388   -46249690.60049 -36014011.86749  15044898.3114   15044903.4954
  16429247.974   -12876670.28749 -10008296.23949  16429247.0644   16429252.8964
  18196404.982   -10966418.48049  -8538574.43249  18196402.8354   18196412.8004
  16413717.764   -24579324.58049 -17910714.40349  16413717.5554   16413722.6464
  15141983.248   -48308641.20259    -25694.08949  15141983.3484   15141989.9694
  14908816.271   -51799306.71849 -40326958.85049  14908817.2404   14908822.9884
 95 12  4 20 14 29.9780000  0  6 25 22  1 29 15 14
  15038541.398   -46283081.48049 -36040030.74049  15038543.5784   15038549.6504
  16395777.772   -13052560.16849 -10145353.23949  16395776.3124   16395783.5214
  18192741.227   -10985664.71749  -8553571.56749  18192740.6764   18192749.5194
  16384980.501   -24730335.53349 -18028385.22949  16384981.3864   16384986.1994
  15137168.671   -48333935.67949    -45404.08549  15137169.8314   15137176.5224
  14878254.432   -51959905.97349 -40452101.10449  14878255.9194   14878261.7444
 95 12  4 20 14 59.9780000  0  5 25 22 29 15 14
  15032258.483   -46316101.96449 -36065760.98849  15032259.5814   15032265.8274
  16362357.035   -13228183.24549 -10282202.33749  16362356.6874   16362362.3744
  16356269.717   -24881220.38649 -18145957.79849  16356268.9854   16356275.3614
  15132445.001   -48358759.50549    -64747.34149  15132445.7084   15132452.7594
  14847744.672   -52120230.48149 -40577029.27649  14847746.9834   14847753.0804
 95 12  4 20 15 29.9780000  0  5 25 22 29 15 14
  15026045.399   -46348746.21149 -36091198.07149  15026048.4394   15026053.7624
  16328986.087   -13403544.63849 -10418847.52049  16328985.4424   16328991.9184
  16327573.428   -25031992.21249 -18263442.29149  16327577.5844   16327583.8314
  15127810.912   -48383117.73049    -83727.79549  15127810.9544   15127817.2094
  14817289.037   -52280282.61649 -40701745.20449  14817290.3944   14817296.6844
 95 12  4 20 15 59.9780000  0  5 25 22 29 15 14
  15019902.744   -46381032.06049 -36116355.87749  15019904.7564   15019909.8514
  16295661.439   -13578662.80249 -10555303.18649  16295662.4944   16295668.6674
  16298902.011   -25182678.09149 -18380859.81049  16298903.3324   16298908.6434
  15123259.274   -48407034.33149   -102364.12549  15123259.7754   15123266.3644
  14786881.908   -52440066.83049 -40826252.36049  14786884.2814   14786890.3124
 95 12  4 20 16 29.9780000  0  5 25 22 29 15 14
  15013822.491   -46412992.13549 -36141259.83649  15013823.0094   15013827.8324
  16262375.429   -13753581.37149 -10691603.34349  16262375.9494   16262383.3164
  16270240.687   -25333294.17949 -18498222.95149  16270241.7754   16270247.2834
  15118784.657   -48430541.13649   -120681.13749  15118786.4444   15118793.7334
  14756523.921   -52599603.04449 -40950566.26749  14756525.7454   14756532.1584
 95 12  4 20 16 59.9780000  0  5 25 22 29 15 14
  15007802.686   -46444619.83849 -36165904.81149  15007804.8574   15007809.3834
  16229127.763   -13928288.18449 -10827738.49049  16229129.9204   16229137.5364
  16241596.171   -25483826.99349 -18615521.19849  16241596.3944   16241601.8884
  15114393.624   -48453626.58449   -138669.81749  15114393.8094   15114400.4504
  14726213.932   -52758878.98349 -41074677.37349  14726216.3794   14726221.7054
 95 12  4 20 17 29.9780000  0  5 25 22 29 15 14
  15001847.728   -46475921.70049 -36190295.88049  15001855.7454   15001848.5924
  16195924.116   -14102782.80749 -10963708.28749  16195911.1964   16195908.3114
  16212962.707   -25634292.27949 -18732766.84549  16212972.6344   16212972.6764
  15110078.771   -48476297.59449   -156335.55249  15110081.5534   15110083.8134
  14695953.897   -52917900.42549 -41198590.15649  14695962.1454   14695959.5834
 95 12  4 20 17 59.9780000  0  5 25 22 29 15 14
  14995951.608   -46506905.99849 -36214439.51659  14995952.1544   14995956.5614
  16162760.136   -14277051.73159 -11099502.24259  16162761.9624   16162767.7474
  16184347.889   -25784670.070 9
  15105844.021   -48498554.81449   -173678.86759  15105844.3034   15105851.0774
  14665741.454   -53076667.94449 -41322305.08659  14665742.9314   14665749.5814
 95 12  4 20 18 29.9780000  0  5 25 22 29 15 14
  14990109.772   -46537592.62549 -36238351.19059  14990112.4964   14990117.5954
  16129638.403   -14451109.37059 -11235131.49559  16129639.9764   16129647.9594
  16155742.955   -25934980.687 9
  15101681.705   -48520420.64249   -190717.19559  15101683.1384   15101690.0254
  14635569.707   -53235220.72649 -41445852.68459  14635571.2254   14635577.6374
 95 12  4 20 18 59.9780000  0  5 25 22 29 15 14
  14984350.533   -46567868.14449 -36261942.52749  14984351.1304   14984356.1014
  16096582.454   -14624836.22149 -11370503.03049  16096581.1794   16096588.3104
  16127172.652   -26085123.944 9
  15097614.851   -48541792.39849   -207370.52449  15097616.2674   15097623.0374
  14605462.504   -53393438.95749 -41569139.60549  14605463.7794   14605469.7024
 95 12  4 20 19 29.9780000  0  5 25 22 29 15 14
  14978650.360   -46597818.97449 -36285280.85149  14978651.9924   14978657.0974
  16063569.873   -14798316.38949 -11505682.33049  16063568.6344   16063577.7354
  16098618.403   -26235180.931 9
  15093624.674   -48562766.60249   -223714.08849  15093625.5034   15093631.5504
  14575406.033   -53551382.77749 -41692212.68649  14575407.2914   14575413.9594
 95 12  4 20 19 59.9780000  0  5 25 22 29 15 14
  14973016.311   -46627427.91749 -36308352.76949  14973017.3484   14973022.1294
  16030605.163   -14971531.67749 -11640655.23949  16030606.9924   16030614.7724
  16070081.413   -26385131.856 9    -79024.38659                  16070089.7634
  15089711.322   -48583329.35449   -239737.03649  15089712.0954   15089718.6954
  14545408.383   -53709023.33149 -41815049.45449  14545409.6894   14545415.8084
 95 12  4 20 20 29.9780000  0  5 25 22 29 15 14
  14967435.837   -46656758.95049 -36331208.12849  14967435.6264   14967440.3814
  15997684.796   -15144550.26349 -11775474.85649  15997682.2984   15997690.3104
  16041552.473   -26535059.73059   -195851.27449  16041553.0344   16041558.2094
  15085862.470   -48603553.85249   -255496.40349  15085863.5634   15085870.2314
  14515456.607   -53866426.42949 -41937701.20349  14515457.1204   14515463.0604
 95 12  4 20 20 59.9770000  0  5 25 22 29 15 14
  14961904.019   -46685814.66149 -36353848.95449  14961906.7164   14961912.3214
  15964800.954   -15317342.40049 -11910118.03549  15964802.1844   15964809.8954
  16013030.687   -26684938.60649   -312639.96349  16013031.8624   16013036.9164
  15082079.422   -48623432.41249   -270986.20549  15082080.6994   15082087.6634
  14485554.338   -54023557.73849 -42060141.15649  14485555.6964   14485562.2194
 95 12  4 20 21 29.9770000  0  5 25 22 29 15 14
  14956433.461   -46714561.91049 -36376249.42849  14956436.2864   14956440.8714
  15931972.847   -15489862.06949 -12044548.88649  15931972.8984   15931980.7424
  15984528.280   -26834724.38149   -429356.13749  15984529.2384   15984534.3204
  15078371.030   -48642916.86349   -286168.91149  15078373.0224   15078380.0054
  14455708.608   -54180398.69749 -42182354.86349  14455709.7354   14455716.2304
 95 12  4 20 21 59.9770000  0  5 25 22 29 15 14
  14951035.755   -46742940.79949 -36398362.84449  14951035.9254   14951041.2214
  15899208.587   -15662030.36749 -12178705.91949  15899209.6354   15899217.9594
  15956055.409   -26984342.31949   -545941.50049  15956057.6754   15956063.0434
  15074751.964   -48661935.67349   -300988.76949  15074753.6744   15074760.6414
  14425925.201   -54336913.75649 -42304314.63949  14425926.6064   14425932.8834
 95 12  4 20 22 29.9770000  0  5 25 22 29 15 14
  14945684.769   -46771051.81149 -36420267.54549  14945686.7604   14945691.2954
  15866498.916   -15833926.98549 -12312651.28449  15866499.5984   15866506.3644
  15927601.823   -27133874.97449   -662460.45349  15927602.5684   15927608.7894
  15071206.981   -48680572.97349   -315511.36249  15071207.2564   15071214.5384
  14396188.726   -54493178.15949 -42426079.09749  14396190.2184   14396196.2374
 95 12  4 20 22 59.9770000  0  5 25 22 29 15 14
  14940392.415   -46798871.70149 -36441945.39449  14940392.1744   14940397.6604
  15833845.521   -16005531.11349 -12446368.73449  15833844.5924   15833850.2534
  15899170.924   -27283286.28049   -778884.80549  15899170.6214   15899176.0384
  15067738.531   -48698799.34249   -329713.75449  15067739.4594   15067746.2604
  14366508.424   -54649158.51049 -42547622.21249  14366508.7854   14366514.0264
 95 12  4 20 23 29.9770000  0  5 25 22 29 15 14
  14935143.983   -46826445.66149 -36463431.60849  14935145.7924   14935150.8114
  15801229.487   -16176917.92149 -12579916.82649  15801230.0614   15801236.6264
  15870745.712   -27432646.34649   -895269.26849  15870747.8894   15870753.6144
  15064335.500   -48716677.66649   -343644.92149  15064337.1554   15064344.1214
  14336864.735   -54804930.58449 -42669003.02649  14336865.5374   14336871.5644
 95 12  4 20 23 59.9770000  0  5 25 22 29 15 14
  14929961.731   -46853684.89949 -36484656.99349  14929962.0084   14929966.7794
  15768670.463   -16348014.23049 -12713238.54749  15768672.0104   15768678.2374
  15842350.633   -27581879.19849  -1011554.56949  15842350.1804   15842355.6164
  15061014.212   -48734130.95849   -357244.90549  15061015.3014   15061022.3164
  14307282.904   -54960387.21249 -42790138.03449  14307282.9174   14307289.0074
 95 12  4 20 24 29.9770000  0  5 25 22 29 15 14
  14924848.223   -46880556.32449 -36505595.76749  14924847.8614   14924853.4594
  15736168.882   -16518806.79149 -12846323.58049  15736170.4824   15736178.0044
  15813975.669   -27730972.32749  -1127730.99649  15813978.5414   15813984.7874
  15057777.110   -48751148.23649   -370505.14949  15057777.4754   15057785.7774
  14277767.700   -55115487.50849 -42910995.38949  14277768.4244   14277774.6024
 95 12  4 20 24 59.9770000  0  5 25 22 29 15 14
  14919790.992   -46907123.11349 -36526297.16649  14919792.4474   14919798.0644
  15703708.999   -16689383.45549 -12979240.38449  15703710.6914   15703718.0884
  15785619.092   -27880006.09349  -1243861.16949  15785618.6354   15785624.5204
  15054601.603   -48767821.88349   -383497.61849  15054604.5154   15054612.1564
  14248300.948   -55270327.73849 -43031650.09349  14248303.7194   14248309.6294
 95 12  4 20 25 29.9770000  0  5 25 22 29 15 14
  14914818.723   -46933256.15349 -36546660.58149  14914820.0044   14914824.7464
  15671317.454   -16859598.90949 -13111875.73149  15671318.9574   15671327.4494
  15757290.003   -28028861.97949  -1359852.73549  15757292.0374   15757297.7984
  15051519.765   -48784032.16749   -396129.03149  15051520.5394   15051527.2644
  14218913.527   -55424771.12449 -43151995.56949  14218914.2284   14218919.7934
 95 12  4 20 25 59.9770000  0  5 25 22 29 15 14
  14909907.609   -46959066.99049 -36566772.92849  14909908.1014   14909912.9874
  15638980.874   -17029535.78249 -13244294.01649  15638981.8444   15638988.7174
  15728981.318   -28177640.46549  -1475783.98149  15728980.4914   15728986.5564
  15048502.309   -48799885.88549   -408482.57949  15048502.7874   15048509.8824
  14189581.869   -55578906.67449 -43272101.17249  14189582.9384   14189589.3304
 95 12  4 20 26 29.9770000  0  5 25 22 29 15 14
  14905065.285   -46984515.65549 -36586603.06749  14905065.1344   14905070.2804
  15606709.369   -17199135.30449 -13376449.43049  15606708.2174   15606714.6724
  15700692.206   -28326293.77349  -1591617.68649  15700693.3234   15700698.2984
  15045561.876   -48815337.53249   -420522.84449  15045562.6024   15045569.8464
  14160318.655   -55732688.04449 -43391930.78949  14160319.1524   14160325.5114
 95 12  4 20 26 59.9770000  0  5 25 22 29 15 14
  14900286.471   -47009623.27049 -36606167.45149  14900287.3064   14900292.5844
  15574500.141   -17368382.76149 -13508330.52349  15574501.3094   15574507.4744
  15672424.618   -28474824.77049  -1707356.10249  15672427.3204   15672434.0624
  15042696.633   -48830388.08249   -432250.55849  15042698.4634   15042706.0484
  14131121.766   -55886110.65749 -43511480.86249  14131124.0404   14131130.3934
 95 12  4 20 27 29.9770000  0  5 25 22 29 15 14
  14895559.107   -47034458.76049 -36625519.79449  14895561.7064   14895566.4164
  15542356.581   -17537307.66749 -13639960.27349  15542355.7034   15542362.4614
  15644175.924   -28623286.35949  -1823040.41849  15644177.0644   15644182.3854
  15039899.586   -48845084.70149   -443702.50049  15039901.8864   15039909.8444
  14101988.844   -56039219.42549 -43630786.36949  14101988.4434   14101994.1514
 95 12  4 20 27 59.9770000  0  5 25 22 29 15 14
  14890890.143   -47059003.92749 -36644645.90649  14890890.8854   14890896.2184
  15510275.726   -17705884.99649 -13771319.19449  15510276.4124   15510283.1384
  15615944.142   -28771645.51049  -1938644.89749  15615944.2964   15615950.4124
  15037177.965   -48859398.71749   -454856.31849  15037178.7604   15037185.6934
  14072915.481   -56191996.03149 -43749833.05149  14072915.6964   14072921.4904
 95 12  4 20 28 29.9770000  0  5 25 22 29 15 14
  14886274.420   -47083257.04649 -36663544.44749  14886275.4194   14886280.8584
  15478263.882   -17874114.58149 -13902407.12749  15478263.2834   15478271.0684
  15587731.470   -28919897.44349  -2054165.85449  15587734.2054   15587738.4834
  15034526.149   -48873327.29449   -465709.74949  15034528.1204   15034535.4274
  14043906.279   -56344436.43449 -43868617.77149  14043906.8094   14043913.7244
 95 12  4 20 28 59.9770000  0  5 25 22 29 15 14
  14881702.622   -47107280.91049 -36682264.35449  14881704.4124   14881710.2204
  15446305.336   -18042056.12149 -14033270.63949  15446305.1894   15446311.8784
  15559530.171   -29068105.82549  -2169652.85949  15559530.0024   15559536.1794
  15031936.699   -48886940.35449   -476317.35549  15031937.3784   15031945.2434
  14014947.574   -56496616.54549 -43987199.66149  14014948.5324   14014954.9244
 95 12  4 20 29 29.9760000  0  5 25 22 29 15 14
  14877196.885   -47130965.30049 -36700719.72849  14877197.8204   14877203.5344
  15414419.602   -18209613.60649 -14163834.87949  15414420.5494   15414427.0694
  15531354.328   -29216162.49049  -2285021.67249  15531355.3884   15531361.7664
  15029423.974   -48900141.36149   -486603.86749  15029425.4384   15029434.1344
  13986058.462   -56648428.25949 -44105494.48749  13986059.6884   13986065.5714
 95 12  4 20 29 59.9760000  0  5 25 22 29 15 14
  14872753.779   -47154311.09349 -36718911.27149  14872754.7264   14872760.7354
  15382598.994   -18376827.00949 -14294131.01649  15382599.8514   15382607.7764
  15503206.022   -29364083.59449  -2400284.83149  15503207.4724   15503212.9974
  15026986.914   -48912942.69349   -496578.94849  15026989.9294   15026997.8254
  13957239.085   -56799880.40449 -44223509.15249  13957239.6834   13957244.6274
 95 12  4 20 30 29.9760000  0  5 25 22 29 15 14
  14868359.799   -47177405.38949 -36736906.82859  14868359.9804   14868366.0114
  15350831.091   -18543778.442 9
  15475066.015   -29511951.59449  -2515506.62159  15475068.4194   15475073.7814
  15024611.198   -48925439.25649                                  15024728.2774
  13928472.668   -56951051.62349 -44341304.88459  13928472.2424   13928478.3544
 95 12  4 20 30 59.9760000  0  5 25 22 29 15 14
  14864024.487   -47200172.86249 -36754647.73349  14864027.0974   14864033.4954
  15319125.800   -18710388.111 9
  15446954.670   -29659689.20349  -2630626.81949  15446955.3954   15446961.0234
  15022304.044   -48937551.291 9
  13899776.533   -57101851.44249 -44458811.21849  13899776.2064   13899782.3904
 95 12  4 20 31 29.9760000  0  5 25 22 29 15 14
  14859738.169   -47222715.59249 -36772213.50159  14859737.5204   14859743.3014
  15287468.600   -18876753.793 9
  15418845.487   -29807389.28649  -2745717.77259  15418849.2224   15418855.0734
  15020052.422   -48949375.998 9
  13871131.332   -57252373.11449 -44576100.82359  13871133.4304   13871138.3414
 95 12  4 20 31 59.9760000  0  5 25 22 29 15 14
  14855497.362   -47244990.00349 -36789570.20449  14855498.7284   14855504.3644
  15255868.388   -19042795.972 9    -55163.73259                  15255878.0244
  15390759.120   -29954998.32049  -2860737.77749  15390760.2144   15390765.9024
  15017871.534   -48960862.317 9
  13842552.620   -57402565.65649 -44693133.96449  13842552.3514   13842558.4794
 95 12  4 20 32 29.9760000  0  5 25 22 29 15 14
  14851310.888   -47266978.04749 -36806703.75049  14851314.8224   14851319.9604
  15224344.031   -19208457.65459   -184250.73649  15224346.1684   15224353.8154
  15362691.745   -30102493.95449  -2975669.42249  15362692.8934   15362698.3254
  15015754.370   -48971986.272 9     -2806.04059                  15015760.9824
  13814036.737   -57552403.77549 -44809890.93249  13814038.5114   13814045.1804
 95 12  4 20 32 59.9760000  0  5 25 22 29 15 14
  14847183.464   -47288693.55249 -36823624.93349  14847182.6434   14847187.8574
  15192888.922   -19373753.77849   -313052.87649  15192890.6634   15192898.7144
  15334642.590   -30249893.55549  -3090526.23449  15334643.3104   15334649.1894
  15013700.651   -48982765.56559    -11205.50449  15013702.2854   15013710.6124
  13785589.674   -57701898.75949 -44926380.50349  13785590.4434   13785597.0134
 95 12  4 20 33 29.9760000  0  5 25 22 29 15 14
  14843110.483   -47310084.67949 -36840293.35149  14843112.1044   14843116.6574
  15161517.230   -19538623.80449   -441522.96449  15161517.5224   15161525.3514
  15306622.713   -30397140.56049  -3205264.15649  15306623.3594   15306627.9234
  15011723.781   -48993156.46149    -19302.33749  15011725.4644   15011732.6424
  13757216.162   -57851004.27549 -45042566.62049  13757216.7984   13757222.9774
 95 12  4 20 33 59.9760000  0  5 25 22 29 15 14
  14839088.853   -47331215.75449 -36856759.12849  14839090.9464   14839095.4214
  15130214.311   -19703128.74249   -569708.59849  15130213.0354   15130220.6344
  15278619.107   -30544298.71849  -3319932.84249  15278620.1104   15278625.6504
  15009810.011   -49003223.91749    -27147.13949  15009810.4004   15009816.2164
  13728907.648   -57999767.47049 -45158485.97849  13728908.1374   13728914.3154
 95 12  4 20 34 29.9760000  0  5 25 22 29 15 14
  14835119.649   -47352071.87449 -36873010.65349  14835122.3234   14835126.3374
  15098978.209   -19867273.46849   -697613.51549  15098977.4874   15098984.6794
  15250633.197   -30691346.87849  -3434515.79249  15250636.6164   15250643.5424
  15007955.146   -49012960.39249    -34734.05649  15007957.0014   15007964.2614
  13700666.664   -58148176.50949 -45274129.36749  13700667.1744   13700673.7224
 95 12  4 20 34 59.9760000  0  5 25 22 29 15 14
  14831188.885   -47372731.21949 -36889108.84549  14831191.1264   14831195.6574
  15067795.504   -20031134.59549   -825297.48149  15067796.6014   15067802.5284
  15222664.547   -30838340.89949  -3549056.58149  15222665.1684   15222671.1224
  15006152.208   -49022440.54549    -42121.21249  15006152.4874   15006159.7894
  13672479.366   -58296295.74149 -45389546.93149  13672480.9354   13672487.4434
 95 12  4 20 35 29.9760000  0  5 25 22 29 15 14
  14827313.103   -47393106.13449 -36904985.41049  14827313.6994   14827318.8914
  15036686.583   -20194607.27049   -952678.74549  15036688.2034   15036695.8214
  15194723.631   -30985178.67049  -3663475.59349  15194723.6724   15194728.3974
  15004412.898   -49031577.76849    -49241.14749  15004413.6574   15004420.4154
  13644366.169   -58444035.78449 -45504669.04349  13644366.6504   13644373.0324
 95 12  4 20 35 59.9760000  0  5 25 22 29 15 14
  14823479.881   -47413247.41949 -36920679.92949  14823480.3264   14823485.5934
  15005647.271   -20357730.96649  -1079788.07949  15005646.3214   15005653.1294
  15166801.190   -31131906.82849  -3777809.18949  15166801.6624   15166806.9424
  15002728.893   -49040424.11549    -56134.43049  15002730.0214   15002737.3254
  13616314.513   -58591441.25349 -45619530.43049  13616316.1304   13616322.3014
 95 12  4 20 36 29.9760000  0  5 25 22 29 15 14
  14819698.797   -47433107.56049 -36936155.35749  14819701.7984   14819706.7854
  14974685.797   -20520443.51349  -1206577.03849  14974683.5614   14974690.5144
  15138910.711   -31278479.53849  -3892021.67149  15138909.8324   15138915.7014
  15001109.331   -49048933.25649    -62764.91149  15001110.7224   15001118.0034
  13588337.270   -58738463.13649 -45734092.92249  13588338.6754   13588344.3154
 95 12  4 20 36 59.9760000  0  5 25 22 29 15 14
  14815972.978   -47452699.49749 -36951421.81149  14815973.3064   14815978.7274
  14943793.957   -20682761.87149  -1333058.81249  14943795.4234   14943802.5384
  15111035.368   -31424936.76049  -4006144.13349  15111039.5854   15111045.4414
  14999551.516   -49057123.03849    -69146.61049  14999552.8884   14999559.2344
  13560429.639   -58885111.49149 -45848364.35249  13560432.7014   13560438.4124
 95 12  4 20 37 29.9760000  0  5 25 22 29 15 14
  14812295.398   -47472004.83449 -36966464.94349  14812299.2644   14812304.2964
  14912981.152   -20844684.79449  -1459232.48149  14912981.9014   14912988.2544
  15083187.153   -31571298.69849  -4120192.37449  15083188.6024   15083192.2174
  14998055.975   -49064992.76849    -75278.89449  14998054.9794   14998062.0894
  13532593.971   -59031390.30049 -45962347.83449  13532596.7014   13532602.7884
 95 12  4 20 37 59.9750000  0  5 25 22 29 15 14
  14808665.515   -47491092.42549 -36981338.40749  14808666.8264   14808673.0194
  14882232.831   -21006269.60549  -1585142.70949  14882233.9604   14882240.0234
  15055336.210   -31717650.55949  -4234232.75049  15055337.4724   15055343.5504
  14996605.030   -49072604.58649    -81210.19849  14996607.1494   14996613.4854
  13504819.023   -59177353.84149 -46076085.64449  13504821.3734   13504827.7064
 95 12  4 20 38 29.9750000  0  5 25 22 29 15 14
  14805079.683   -47509945.36949 -36996029.02049  14805078.9794   14805084.8904
  14851549.521   -21167526.79349  -1710797.61749  14851547.3314   14851554.5084
  15027488.640   -31863994.12549  -4348266.67949  15027489.8904   15027495.2184
  14995209.886   -49079945.36549    -86930.31549  14995210.2354   14995216.9524
  13477103.412   -59323005.75249 -46189580.62349  13477104.5214   13477110.9754
 95 12  4 20 38 59.9750000  0  5 25 22 29 15 14
  14801543.658   -47528516.65349 -37010500.17149  14801546.1994   14801551.5304
  14820931.009   -21328415.92949  -1836165.74549  14820931.0254   14820937.4644
  14999652.075   -32010275.25249  -4462251.93949  14999654.0574   14999659.0154
  14993870.824   -49086978.03549    -92410.34149  14993871.9204   14993878.9484
  13449455.832   -59468302.03249 -46302798.49549  13449455.4144   13449461.3974
 95 12  4 20 39 29.9750000  0  5 25 22 29 15 14
  14798066.200   -47546788.32549 -37024737.84749  14798069.3754   14798074.5914
  14790392.982   -21488890.92749  -1961211.17149  14790394.0394   14790400.5344
  14971836.041   -32156445.08749  -4576150.48349  14971837.8134   14971843.5484
  14992597.645   -49093673.29349    -97627.44749  14992598.0974   14992604.7914
  13421882.337   -59613196.34649 -46415703.14849  13421883.0524   13421888.2104
 95 12  4 20 39 59.9750000  0  5 25 22 29 15 14
  14794636.758   -47564826.72149 -37038793.76749  14794636.4474   14794642.0844
  14759928.359   -21648996.49949  -2085968.75849  14759926.8064   14759933.2294
  14944039.211   -32302523.65849  -4689977.92449  14944040.8244   14944045.5754
  14991377.141   -49100076.85749   -102617.25749  14991379.8064   14991386.1584
  13394380.678   -59757715.21449 -46528315.23549  13394381.7214   13394387.8924
 95 12  4 20 40 29.9750000  0  5 25 22 29 15 14
  14791253.385   -47582601.24349 -37052644.05349  14791254.3924   14791259.5534
  14729534.735   -21808701.78849  -2210414.41749  14729535.2784   14729542.8644
  14916269.704   -32448450.62249  -4803687.21649  14916271.3174   14916276.5464
  14990220.993   -49106161.07849   -107358.22549  14990220.9284   14990228.8014
  13366958.771   -59901815.18149 -46640600.91149  13366960.3104   13366965.9684
 95 12  4 20 40 59.9750000  0  5 25 22 29 15 14
  14787908.506   -47600185.38649 -37066345.99549  14787908.2354   14787913.1754
  14699213.625   -21968047.00149  -2334579.49349  14699212.9164   14699219.8294
  14888520.733   -32594280.93549  -4917321.22449  14888520.9154   14888526.1294
  14989111.523   -49111986.85649   -111897.82349  14989112.4144   14989120.1704
  13339609.957   -60045537.48949 -46752592.31549  13339611.3174   13339616.6024
 95 12  4 20 41 29.9750000  0  5 25 22 29 15 14
  14784602.098   -47617552.30649 -37079878.66749  14784602.9884   14784608.5644
  14668967.930   -22126981.72449  -2458424.70949  14668968.9694   14668975.8394
  14860794.861   -32739974.83549  -5030848.91249  14860796.8754   14860801.3144
  14988057.907   -49117517.93249   -116207.78049  14988060.0504   14988066.7574
  13312338.581   -60188848.96049 -46864263.57549  13312340.1564   13312345.4534
 95 12  4 20 41 59.9750000  0  5 25 22 29 15 14
  14781337.618   -47634705.42049 -37093244.73649  14781338.8924   14781344.4334
  14638799.542   -22285519.14749  -2581960.34549  14638799.8694   14638807.6424
  14833094.792   -32885545.56049  -5144280.61649  14833095.0764   14833100.3104
  14987059.707   -49122770.51249   -120300.72749  14987060.6374   14987067.6074
  13285140.822   -60331776.06749 -46975635.35149  13285141.8744   13285147.5984
 95 12  4 20 42 29.9750000  0  5 25 22 29 15 14
  14778124.167   -47651597.04549 -37106407.04949  14778124.9564   14778129.6014
  14608715.883   -22443620.35649  -2705156.05749  14608714.4764   14608721.8314
  14805422.303   -33030977.55449  -5257604.24749  14805421.0334   14805425.2134
  14986117.497   -49127721.38649   -124158.57949  14986118.6564   14986126.0484
  13258018.882   -60474300.70849 -47086693.49849  13258020.2434   13258025.9714
 95 12  4 20 42 59.9750000  0  6 25 22 18 29 15 14
  14774958.938   -47668220.45449 -37119360.36449  14774960.8694   14774966.7094
  14578712.971   -22601282.20549  -2828009.42549  14578712.9314   14578719.3944
  17201045.016    -9625282.98059  -7481751.85559  17201044.8734   17201050.8084
  14777770.008   -33176275.62749  -5370823.50649  14777770.5584   14777776.1454
  14985233.257   -49132373.36649   -127783.53049  14985233.0244   14985240.7494
  13230972.825   -60616431.80949 -47197444.99349  13230973.8854   13230980.0844
 95 12  4 20 43 29.9750000  0  6 25 22 18 29 15 14
  14771842.257   -47684599.91249 -37132123.59449  14771844.3574   14771849.4834
  14548785.886   -22758547.01449  -2950553.38349  14548786.1464   14548793.3834
  17168127.227    -9798244.57649  -7616526.97449  17168129.2204   17168139.1734
  14750138.294   -33321476.29149  -5483966.87049  14750139.9014   14750145.2094
  14984398.580   -49136764.58449   -131205.30549  14984397.9634   14984405.1904
  13203993.443   -60758200.78949 -47307914.32049  13203995.5714   13204002.3304
 95 12  4 20 43 59.9750000  0  6 25 22 18 29 15 14
  14768776.087   -47700724.92749 -37144688.54649  14768775.8714   14768780.4824
  14518934.170   -22915412.38349  -3072786.11349  14518935.3604   14518941.8434
  17135217.905    -9971187.76849  -7751287.81049  17135217.8474   17135225.8694
  14722526.524   -33466575.09549  -5597030.85149  14722528.5174   14722534.3874
  14983611.185   -49140890.22949   -134420.10949  14983611.8294   14983620.6114
  13177091.851   -60899578.17149 -47418078.49849  13177092.0634   13177098.2014
 95 12  4 20 44 29.9750000  0  6 25 22 18 29 15 14
  14765751.647   -47716611.45449 -37157067.67049  14765753.1094   14765757.5474
  14489163.540   -23071879.29149  -3194708.35149  14489161.0774   14489167.6814
  17102309.509   -10144131.96349  -7886049.36249  17102309.3274   17102318.9264
  14694932.407   -33611580.07149  -5710021.71749  14694934.5314   14694939.9144
  14982875.530   -49144759.30249   -137434.99749  14982875.6214   14982883.4334
  13150262.548   -61040566.87949 -47527939.81149  13150263.0494   13150269.7784
 95 12  4 20 44 59.9750000  0  6 25 22 18 29 15 14
  14762776.583   -47732241.89949 -37169247.24449  14762778.6654   14762783.3804
  14459467.243   -23227911.31949  -3316291.70349  14459468.7404   14459475.3404
  17069403.559   -10317052.31249  -8020792.39149  17069405.4204   17069411.9544
  14667363.714   -33756462.21949  -5822916.87949  14667365.1714   14667370.1944
  14982194.381   -49148335.01249   -140221.27749  14982194.7824   14982203.0414
  13123515.583   -61181120.46949 -47637462.08549  13123516.8584   13123522.9904
 95 12  4 20 45 29.9750000  0  6 25 22 18 29 15 14
  14759833.223   -47747717.07749                                  14760016.4694
  14429844.458   -23383589.20149  -3437599.09859  14429844.0764   14429851.5674
  17036487.432   -10490041.08249  -8155588.75049  17036486.0894   17036492.6474
  14639798.223   -33901313.02749  -5935787.61559  14639800.3824   14639805.5334
  14981552.773   -49151709.48349   -142850.76159  14981553.6264   14981561.8444
  13096837.747   -61321320.15649 -47746708.58359  13096837.3684   13096844.3064
 95 12  4 20 45 59.9750000  0  6 25 22 18 29 15 14
  14756934.401   -47762939.664 9
  14400306.719   -23538806.54249  -3558547.62659  14400308.3714   14400314.2084
  17003576.069   -10662988.66249  -8290352.98749  17003575.5034   17003584.4754
  14612260.097   -34046033.59149  -6048556.87259  14612261.5804   14612267.1894
  14980967.158   -49154785.461 9
  13070240.308   -61461075.94349 -47855609.18559  13070242.7004   13070250.6984
 95 12  4 20 46 29.9740000  0  6 25 22 18 29 15 14
  14754085.412   -47777913.54258                                  14754354.1714
  14370864.565   -23693541.06049  -3679119.94249  14370877.9834   14370861.1944
  16970673.643   -10835877.59649  -8425071.49949  16970673.6014   16970681.0874
  14584743.449   -34190622.03349  -6161223.13849  14584763.2254   14584764.5774
  14980441.504   -49157558.25859                                  14980418.3134
  13043729.061   -61600389.24849 -47964165.00949  13043750.4254   13043737.7054
 95 12  4 20 46 59.9740000  0  6 25 22 18 29 15 14
  14751274.460   -47792688.533 9     -6034.55659                  14751280.6504
  14341498.904   -23847844.863 9
  16937773.622   -11008765.29449  -8559789.05649  16937772.2154   16937783.2464
  14557244.188   -34335137.71449  -6273832.76359  14557246.0924   14557252.8164
  14979961.969   -49160083.530 9
  13017298.085   -61739302.44449 -48072409.04459  13017297.9664   13017304.5344
 95 12  4 20 47 29.9740000  0  6 25 22 18 29 15 14
  14748501.611   -47807250.35359    -17381.45249  14748505.2604   14748509.7134
  14312220.939   -24001707.318 9
  16904879.628   -11181627.17349  -8694486.54449  16904880.2674   16904886.8424
  14529761.957   -34479559.54349  -6386369.23049  14529764.4314   14529769.6604
  14979526.999   -49162362.557 9     -1125.97959                  14979533.6134
  12990942.206   -61877796.75549 -48180326.68349  12990943.2144   12990949.8794
 95 12  4 20 47 59.9740000  0  6 25 22 18 29 15 14
  14745782.792   -47821527.69749    -28506.66959  14745787.5964   14745793.0674
  14283039.566   -24155061.609 9
  16872001.537   -11354391.38749  -8829107.90749  16872001.8374   16872010.9034
  14502310.643   -34623821.09749  -6498780.80959  14502311.2904   14502317.2634
  14979151.776   -49164328.34859     -2657.78759  14979152.8684   14979159.7114
  12964680.452   -62015795.87249 -48287858.46559  12964682.9424   12964689.8604
 95 12  4 20 48 29.9740000  0  6 25 22 18 29 15 14
  14743098.074   -47835650.54349    -39511.49049  14743100.4254   14743105.7024
  14253929.279   -24308021.709 9
  16839120.079   -11527175.06149  -8963744.43449  16839125.8164   16839133.3744
  14474867.330   -34768037.24149  -6611157.01249  14474868.3934   14474873.9384
  14978813.492   -49166107.07249     -4043.84949  14978813.0104   14978821.3454
  12938496.048   -62153407.32849 -48395088.15449  12938496.2894   12938502.8904
 95 12  4 20 48 59.9740000  0  6 25 22 18 29 15 14
  14740462.106   -47849511.45049    -50312.22349  14740458.1844   14740480.2304
  14224914.643   -24460502.283 9
  16806261.665   -11699875.91949  -9098316.45649  16806259.8294   16806268.3024
  14447451.476   -34912108.72049  -6723420.49149  14447460.5594   14447451.8864
  14978525.443   -49167611.95049                                  14978541.7624
  12912400.552   -62290539.69649 -48501944.48049  12912407.6104   12912415.7654
 95 12  4 20 49 29.9740000  0  6 25 22 18 29 15 14
  14737878.446   -47863093.55249                                  14737726.2064
  14195994.124   -24612497.720 9
  16773415.283   -11872476.90949                  16773414.6964
  14420067.028   -35056020.94649  -6835559.85259  14420071.8844   14420071.6894
  14978293.808   -49168834.11149                                  14978452.4764
  12886394.260   -62427203.63749                                  12886242.1334
 95 12  4 20 49 59.9740000  0  6 25 22 18 29 15 14
  14735315.294   -47876557.60749                                  14735326.7374
  14167130.615   -24764152.236 9
  16740556.714   -12045133.602 9
  14392679.866   -35199937.35449  -6947702.52849  14392683.7814   14392681.5644
  14978085.165   -49169931.10448                                  14977796.1144
  12860445.512   -62563562.19849                                  12860727.7794
 95 12  4 20 50 29.9740000  0  6 25 22 18 29 15 14
  14732806.729   -47889723.483 9
  14138373.093   -24915275.701 9
  16707732.155   -12217661.818 9
  14365327.899   -35343675.52759  -7059706.26259  14365328.0264   14365334.7204
  14977932.880   -49170727.161 9
  12834584.807   -62699449.949 9
 95 12  4 20 50 59.9740000  0  6 25 22 18 29 15 14
  14730332.150   -47902728.993 9     -9038.43359                  14730341.0264
  14109693.099   -25066008.769 9
  16674892.732   -12390215.11259  -9636242.82159  16674894.9624   16674901.7734
  14337980.859   -35487372.98549  -7171678.27849  14337983.2954   14337988.9934
  14977814.581   -49171361.376 9      -461.26859                  14977821.6534
  12808791.181   -62835004.803 9    -60861.03359                  12808799.2564
 95 12  4 20 51 29.9740000  0  6 25 22 18 29 15 14
  14727893.610   -47915550.36359    -19029.12549  14727896.1614   14727901.7704
  14081089.953   -25216290.22459   -128016.29859  14081092.4234   14081099.9004
  16642058.786   -12562762.06849  -9770694.92949  16642060.9144   16642065.7774
  14310656.087   -35630971.40549  -7283573.12649  14310657.2244   14310662.9674
  14977734.312   -49171783.99859      -790.63549  14977734.1994   14977740.8084
  12783071.934   -62970158.81159   -166175.83549  12783074.0054   12783080.2724
 95 12  4 20 51 59.9740000  0  6 25 22 18 29 15 14
  14725485.081   -47928216.03249    -28898.49149  14725485.6054   14725491.6244
  14052580.791   -25366122.53549   -244768.72049  14052580.8204   14052587.9174
  16609226.777   -12735316.90149  -9905153.19649  16609223.8324   16609229.4664
  14283348.172   -35774480.25949  -7395398.19049  14283348.4794   14283354.1424
  14977691.730   -49172007.56549      -964.87149  14977691.6484   14977699.6004
  12757431.750   -63104903.40449   -271171.62149  12757432.7224   12757439.0214
 95 12  4 20 52 29.9740000  0  6 25 22 18 29 15 14
  14723116.203   -47940658.66149    -38594.06449  14723118.1774   14723122.8894
  14024168.605   -25515435.07149   -361116.09649  14024166.8064   14024173.9184
  16576397.028   -12907815.24549 -10039567.42649  16576399.2024   16576405.0134
  14256068.489   -35917822.56549  -7507093.45849  14256070.9414   14256077.0294
  14977698.075   -49171962.80249      -930.02049  14977700.5684   14977707.0474
  12731883.067   -63239166.04649   -375791.85149  12731884.0444   12731889.9984
 95 12  4 20 52 59.9740000  0  6 25 22 18 29 15 14
  14720785.846   -47952905.23149    -48136.86859  14720787.6124   14720793.0994
  13995845.504   -25664259.77349   -477083.35659  13995846.6474   13995853.6104
  16543574.208   -13080290.07149 -10173963.36149  16543576.5304   16543583.8104
  14228820.803   -36061023.41249  -7618678.50759  14228821.2184   14228826.8654
  14977754.027   -49171679.47649      -709.27859  14977754.0974   14977760.9554
  12706422.894   -63372953.62449   -480041.90959  12706424.6884   12706430.7514
 95 12  4 20 53 29.9740000  0  6 25 22 18 29 15 14
  14718495.129   -47964943.58249    -57517.43059  14718496.8934   14718502.0454
  13967624.334   -25812575.17249                                  13967739.5074
  16510767.704   -13252704.76249 -10308312.47249  16510766.7884   16510773.5324
  14201597.212   -36204082.63549  -7730153.19259  14201597.3484   14201603.2674
  14977853.137   -49171146.45449      -293.95759  14977856.6184   14977862.5434
  12681056.535   -63506252.48149   -583911.12859  12681058.8514   12681065.5784
 95 12  4 20 53 59.9740000  0  6 25 22 18 29 15 14
  14716238.206   -47976801.22649    -66757.17859  14716240.0804   14716246.1424
  13939488.218   -25960425.377 9
  16477963.621   -13425092.01049 -10442640.17149  16477963.3734   16477969.0084
  14174388.608   -36347062.14649  -7841565.77159  14174389.8294   14174395.5264
  14977993.903   -49170411.86149       278.42159  14977995.7314   14978002.2644
  12655773.895   -63639123.27649   -687446.80659  12655774.1134   12655780.2504
 95 12  4 20 54 29.9730000  0  6 25 22 18 29 15 14
  14714003.866   -47988546.38949    -75909.28449  14714004.9934   14714011.2694
  13911427.595   -26107874.813 9
  16445147.365   -13597520.68949 -10577000.13649  16445150.8954   16445156.3994
  14147184.209   -36490030.84149  -7952969.91649  14147183.9704   14147188.9374
  14978159.429   -49169549.74149       950.17549  14978159.4254   14978166.0224
  12630558.222   -63771631.58649   -790700.01549  12630558.1784   12630564.6694
 95 12  4 20 54 59.9730000  0  6 25 22 18 29 15 14
  14711803.826   -48000129.15649    -84934.84149  14711801.6934   14711806.9004
  13883457.899   -26254870.832 9
  16412340.728   -13769939.69849 -10711352.59249  16412338.0024   16412346.0334
  14119987.935   -36632941.94749  -8064329.19749  14119988.9834   14119994.4464
  14978358.387   -49168507.05049      1762.63849  14978357.9254   14978365.3784
  12605422.076   -63903721.23749   -893627.01749  12605423.0584   12605429.0124
 95 12  4 20 55 29.9730000  0  6 25 22 18 29 15 14
  14709646.327   -48011463.41749    -93766.75549  14709644.5214   14709649.8104
  13855590.343   -26401309.826 9    -96161.88659                  13855597.3864
  16379547.857   -13942251.34349 -10845621.37349  16379549.3254   16379557.3234
  14092822.241   -36775700.85949  -8175569.88849  14092822.5464   14092828.4024
  14978604.502   -49167197.70549      2782.87549  14978607.1744   14978614.4854
  12580380.163   -64035310.04349   -996163.75049  12580381.8374   12580389.1014
 95 12  4 20 55 59.9730000  0  6 25 22 18 29 15 14
  14707506.193   -48022693.59849   -102517.56849  14707507.5304   14707512.9234
  13827804.182   -26547341.49559   -209952.76449  13827801.2754   13827807.3684
  16346748.873   -14114609.70949 -10979926.51949  16346750.2854   16346757.4794
  14065660.355   -36918422.37549  -8286781.44249  14065662.9884   14065669.1414
  14978875.444   -49165772.36449      3893.49249  14978878.2384   14978886.2834
  12555407.196   -64166541.72649  -1098422.19449  12555409.2874   12555416.6804
 95 12  4 20 56 29.9730000  0  6 25 22 18 29 15 14
  14705413.026   -48033676.35849   -111075.59649  14705416.9364   14705422.8834
  13800113.262   -26692834.68849   -323324.05649  13800114.6474   13800122.4044
  16313972.262   -14286868.79049 -11114154.28349  16313971.8144   16313978.8234
  14038539.814   -37060941.74149  -8397835.47849  14038542.3244   14038548.5554
  14979196.741   -49164093.00349      5202.06149  14979197.6844   14979205.8574
  12530535.051   -64297258.86249  -1200279.69049  12530534.7914   12530541.1084
 95 12  4 20 56 59.9730000  0  6 25 22 18 29 15 14
  14703361.614   -48044460.91049   -119479.16449  14703365.4824   14703370.5154
  13772521.199   -26837843.80849   -436318.14749  13772520.9764   13772527.4844
  16281201.907   -14459085.23449 -11248348.85449  16281200.4794   16281206.2274
  14011449.792   -37203317.08549  -8508777.29449  14011449.8774   14011455.1344
  14979554.240   -49162219.98349      6661.52149  14979554.3264   14979562.9034
  12505747.368   -64427515.93149  -1301778.70149  12505747.9034   12505753.9854
 95 12  4 20 57 29.9730000  0  6 25 22 18 29 15 14
  14701341.121   -48055112.32549   -127778.98349  14701338.4974   14701343.5024
  13745003.951   -26982447.08549   -548995.99349  13745004.1624   13745010.7494
  16248419.730   -14631331.29249 -11382566.48949  16248422.8464   16248429.2444
  13984371.093   -37345612.64849  -8619656.94149  13984372.1354   13984377.3484
  14979934.213   -49160222.71749      8217.80849  14979934.5284   14979942.1464
  12481033.778   -64557377.68949  -1402969.67749  12481035.3354   12481041.8684
 95 12  4 20 57 59.9730000  0  6 25 22 18 29 15 14
  14699332.789   -48065638.92949   -135981.54349  14699334.8324   14699341.1134
  13717562.723   -27126650.76749   -661362.45749  13717562.3864   13717569.8094
  16215638.605   -14803597.18649 -11516799.57349  16215640.1694   16215649.4544
  13957308.148   -37487826.01749  -8730472.53949  13957309.8454   13957315.1144
  14980337.487   -49158102.60649      9869.81749  14980337.8304   14980345.0634
  12456400.123   -64686824.89249  -1503837.61949  12456402.1564   12456409.6644
 95 12  4 20 58 29.9730000  0  6 25 22 18 29 15 14
  14697375.967   -48075925.00849   -143996.66849  14697377.0464   14697383.5354
  13690224.536   -27270326.52449   -773317.55849  13690222.4374   13690228.5494
  16182876.309   -14975781.86749 -11650969.35549  16182876.0584   16182883.4054
  13930278.719   -37629869.54849  -8841155.80249  13930279.7664   13930284.9984
  14980782.997   -49155748.18149     11704.39849  14980785.4794   14980793.6254
  12431871.274   -64815736.17349  -1604287.96849  12431872.2144   12431878.4994
 95 12  4 20 58 59.9730000  0  6 25 22 18 29 15 14
  14695461.492   -48085972.93949   -151826.23649  14695465.5534   14695471.5434
  13662985.721   -27413446.44249   -884839.52549  13662987.3314   13662993.3224
  16150128.544   -15147880.92049 -11785072.43949  16150127.5144   16150132.8634
  13903281.298   -37771748.82649  -8951711.07549  13903280.9254   13903285.9924
  14981280.636   -49153153.02049     13726.55349  14981280.6534   14981288.2144
  12407443.306   -64944109.32149  -1704318.97649  12407443.4094   12407449.9164
 95 12  4 20 59 29.9730000  0  6 25 22 18 29 15 14
  14693575.204   -48095889.95049   -159553.78849  14693577.8904   14693584.6294
  13635843.148   -27556103.56949   -996000.88749  13635841.1104   13635846.3094
  16117370.297   -15319987.90049 -11919181.68149  16117375.0744   16117382.0124
  13876294.415   -37913558.77849  -9062212.31949  13876295.3354   13876300.7544
  14981798.015   -49150419.75749     15856.33749  14981800.4524   14981807.9414
  12383096.211   -65072049.96449  -1804012.97949  12383096.6924   12383103.2964
 95 12  4 20 59 59.9730000  0  6 25 22 18 29 15 14
  14691741.105   -48105558.90349   -167088.06349  14691737.3564   14691745.1294
  13608806.865   -27698162.88949  -1106696.42549  13608807.2764   13608813.4624
  16084647.219   -15491979.73149 -12053201.19349  16084647.1794   16084652.2834
  13849343.485   -38055182.18949  -9172568.21449  13849345.0954   13849350.7674
  14982366.930   -49147434.51749     18182.42649  14982368.4584   14982375.9304
  12358853.189   -65199444.25849  -1903281.25649  12358854.5554   12358861.4174
 95 12  4 21  0 29.9730000  0  6 25 22 18 29 15 14
  14689927.216   -48115060.53949   -174491.94449  14689929.9974   14689935.9204
  13581874.684   -27839693.17249  -1216979.71149  13581875.0614   13581881.9014
  16051918.476   -15663962.74549 -12187213.84449  16051918.4114   16051925.9674
  13822411.535   -38196714.15049  -9282852.84649  13822412.6534   13822417.8344
  14982968.999   -49144289.85249     20632.77149  14982966.4484   14982975.2094
  12334694.391   -65326398.82449  -2002206.88349  12334695.9464   12334702.2044
 95 12  4 21  0 59.9730000  0  6 25 22 18 29 15 14
  14688152.455   -48124404.47049   -181772.93749  14688152.2944   14688158.6384
  13555043.634   -27980693.02449  -1326849.67349  13555044.1434   13555050.1904
  16019197.642   -15835914.04649 -12321201.79249  16019197.9274   16019204.3034
  13795496.467   -38338147.75049  -9393060.83049  13795498.5734   13795504.0964
  14983596.499   -49140980.80349     23211.19149  14983597.2814   14983604.0064
  12310620.843   -65452913.28049  -2100789.57449  12310621.3874   12310628.0024
 95 12  4 21  1 29.9730000  0  6 25 22 18 29 15 14
  14686397.526   -48133598.57549   -188937.17249  14686402.4064   14686409.3754
  13528309.702   -28121176.45249  -1436317.22249  13528310.6474   13528316.3644
  15986480.299   -16007837.98549 -12455168.44349  15986481.0784   15986488.4874
  13768601.798   -38479491.98249  -9503199.18549  13768602.2594   13768606.7354
  14984251.008   -49137519.75149     25908.10249  14984253.9734   14984262.1274
  12286629.842   -65578984.13449  -2199026.61749  12286630.4394   12286637.0714
 95 12  4 21  1 59.9730000  0  6 25 22 18 29 15 14
  14684679.313   -48142657.73349   -195996.26449  14684678.5484   14684685.4174
  13501672.746   -28261161.57849  -1545396.49649  13501672.1724   13501678.2854
  15953765.579   -16179753.24249 -12589128.30949  15953765.8474   15953774.7014
  13741716.484   -38620775.42249  -9613290.15949  13741716.4604   13741721.9274
  14984934.336   -49133926.78149     28707.76449  14984937.1174   14984945.8564
  12262721.453   -65704617.46049  -2296922.70549  12262722.6844   12262729.8544
 95 12  4 21  2 29.9730000  0  6 25 22 18 29 15 14
  14682976.898   -48151577.70349   -202946.90049  14682980.8174   14682987.5674
  13475130.084   -28400640.28449  -1654081.16849  13475130.7044   13475136.5024
  15921054.674   -16351655.23049 -12723077.85949  15921055.9214   15921063.1194
  13714841.049   -38761998.39449  -9723334.02049  13714842.5984   13714847.7784
  14985646.488   -49130199.10149     31612.40749  14985646.3404   14985655.8914
  12238900.328   -65829801.49249  -2394468.70849  12238901.1254   12238908.3694
 95 12  4 21  2 59.9720000  0  6 25 22 18 29 15 14
  14681312.533   -48160354.74649   -209786.15749  14681310.5704   14681317.0994
  13448684.087   -28539611.56149  -1762370.44449  13448685.3534   13448691.2314
  15888349.305   -16523510.48249 -12856990.98449  15888352.1714   15888360.0524
  13687982.773   -38903141.91849  -9833315.96549  13687983.8134   13687989.0554
  14986382.744   -49126329.56049     34627.60949  14986383.0074   14986391.5224
  12215169.897   -65954507.92149  -2491642.55849  12215170.6324   12215177.2654
 95 12  4 21  3 29.9720000  0  6 25 22 18 29 15 14
  14679668.642   -48168972.37949   -216501.20549  14679670.6824   14679677.3984
  13422336.732   -28678068.75649  -1870259.12449  13422337.5814   13422343.9614
  15855654.121   -16695329.87649 -12990876.17449  15855657.0544   15855663.9544
  13661142.217   -39044196.41649  -9943228.54549  13661142.1734   13661147.5774
  14987144.766   -49122317.82249     37753.59949  14987146.0624   14987154.8894
  12191530.160   -66078732.39049  -2588440.83949  12191531.2934   12191537.9874
 95 12  4 21  3 59.9720000  0  6 25 22 18 29 15 14
  14678052.783   -48177471.54949   -223123.94649  14678053.9524   14678060.1974
  13396081.075   -28816038.08649  -1977767.65449  13396082.7414   13396089.2494
  15822958.863   -16867145.48649 -13124758.39649  15822959.9394   15822967.4084
  13634312.004   -39185185.33149 -10053090.02149  13634312.9404   13634317.8984
  14987929.035   -49118206.18149     40957.45949  14987929.8594   14987937.0824
  12167974.374   -66202519.00349  -2684897.93649  12167975.7914   12167982.6934
 95 12  4 21  4 29.9720000  0  6 25 22 18 29 15 14
  14676471.478   -48185792.15449   -229607.54449  14676470.6394   14676476.6414
  13369930.868   -28953459.57449  -2084849.29649  13369932.1304   13369938.9394
  15790283.252   -17038882.52149 -13258579.40549  15790281.6514   15790287.4184
  13607511.221   -39326023.86849 -10162834.31649  13607512.2354   13607517.4474
  14988744.905   -49113927.79349     44291.21949  14988744.8304   14988752.2434
  12144514.999   -66325798.51449  -2780959.89349  12144516.2424   12144523.5304
 95 12  4 21  4 59.9720000  0  6 25 22 18 29 15 14
  14674917.517   -48193949.30649   -235963.77349  14674918.4794   14674924.3314
  13343887.192   -29090336.26349  -2191506.41049  13343885.0064   13343891.7864
  15757612.852   -17210542.23049 -13392340.13749  15757613.4014   15757619.7634
  13580736.995   -39466711.50049 -10272461.01649  13580739.6524   13580745.2234
  14989587.345   -49109487.60849     47751.06549  14989589.5844   14989597.6174
  12121153.016   -66448567.74949  -2876624.22549  12121153.9934   12121160.7994
 95 12  4 21  5 29.9720000  0  6 25 22 18 29 15 14
  14673389.712   -48201990.50349   -242229.65749  14673388.3104   14673394.4484
  13317934.812   -29226702.23849  -2297765.57049  13317935.9504   13317942.1344
  15724953.206   -17382169.90149 -13526075.92549  15724955.2884   15724960.9504
  13553991.663   -39607269.74949 -10381986.90649  13553992.4364   13553997.8684
  14990456.303   -49104925.00049     51306.31049  14990457.8094   14990465.8184
  12097882.380   -66570858.90249  -2971916.03549  12097883.2454   12097889.4824
 95 12  4 21  5 59.9720000  0  6 25 22 18 29 15 14
  14671865.106   -48209967.77149   -248445.71549  14671869.6224   14671876.0674
  13292075.418   -29362602.56949  -2403661.89349  13292075.2034   13292081.0344
  15692298.265   -17553799.30749 -13659813.05049  15692296.1264   15692300.6474
  13527262.634   -39747737.20149 -10491442.03849  13527262.6324   13527267.5964
  14991340.765   -49100277.13849     54927.97649  14991341.6944   14991350.4534
  12074695.924   -66692704.18549  -3066860.40849  12074697.0504   12074703.0784
 95 12  4 21  6 29.9720000  0  6 25 22 18 29 15 14
  14670387.234   -48217772.55349   -254527.39249  14670385.5254   14670391.3554
  13266320.909   -29497929.72049  -2509111.56649  13266322.5794   13266329.4794
  15659649.175   -17725335.83449 -13793477.79549  15659653.4184   15659659.0654
  13500566.928   -39888013.30049 -10600748.05849  13500568.6744   13500573.7374
  14992261.885   -49095438.16149     58698.56049  14992263.4564   14992269.7574
  12051616.777   -66813985.09249  -3161365.01249  12051617.9414   12051624.0114
 95 12  4 21  6 59.9720000  0  6 25 22 18 29 15 14
  14668922.438   -48225447.57149   -260507.95049  14668924.5634   14668930.1624
  13240673.627   -29632719.63949  -2614142.61649  13240673.6344   13240680.1634
  15627015.542   -17896846.77749 -13927122.62449  15627015.2714   15627020.2304
  13473899.974   -40028154.61449 -10709949.05649  13473900.9784   13473906.0124
  14993205.935   -49090467.12949     62572.06249  14993208.4524   14993217.0194
  12028636.214   -66934748.39049  -3255466.28649  12028637.1264   12028643.7084
 95 12  4 21  7 29.9720000  0  6 25 22 18 29 15 14
  14667493.230   -48232949.82949   -266353.87449  14667496.6194   14667503.1034
  13215130.726   -29766944.63149  -2718733.45649  13215131.2934   13215137.1494
  15594385.858   -18068314.67749 -14060733.89349  15594386.4044   15594391.7404
  13447261.586   -40168142.02749 -10819030.12549  13447262.1244   13447267.3604
  14994182.318   -49085347.24949     66561.53449  14994183.3404   14994191.4934
  12005757.009   -67054978.17249  -3349151.83449  12005758.2564   12005764.3644
 95 12  4 21  7 59.9720000  0  6 25 22 18 29 15 14
  14666095.766   -48240320.70349   -272097.44649  14666094.2424   14666101.0824
  13189685.300   -29900660.85949  -2822927.86549  13189685.6474   13189692.4194
  15561748.170   -18239805.59249 -14194363.08949  15561751.0454   15561758.6844
  13420634.118   -40308068.75849 -10928063.91749  13420634.9884   13420640.0924
  14995173.527   -49080145.04149     70615.14849  14995173.0254   14995180.9154
  11982965.027   -67174748.27449  -3442479.17749  11982966.2664   11982973.0264
 95 12  4 21  8 29.9720000  0  6 25 22 18 29 15 14
  14664718.968   -48247540.90349   -277723.59949  14664720.7954   14664725.9704
  13164338.117   -30033853.57649  -2926714.33949  13164339.5544   13164346.6254
  15529111.290   -18411325.09849 -14328014.57649  15529112.4274   15529119.0754
  13394019.269   -40447929.59549 -11037046.35349  13394020.2734   13394025.6884
  14996180.289   -49074854.75549     74737.41749  14996180.3744   14996188.9464
  11960262.397   -67294050.99949  -3535442.33749  11960263.7964   11960270.4894
 95 12  4 21  8 59.9720000  0  6 25 22 18 29 15 14
  14663361.127   -48254674.47849   -283282.25349  14663362.4134   14663370.2704
  13139086.245   -30166556.11349  -3030118.85449  13139086.8474   13139094.0694
  15496459.970   -18582905.27249 -14461713.32149  15496461.0794   15496470.4184
  13367408.859   -40587770.45449 -11146013.23549  13367409.6814   13367414.6514
  14997191.216   -49069530.23349     78886.34449  14997192.8354   14997201.2104
  11937638.507   -67412942.85849  -3628085.33549  11937639.9254   11937645.6194
 95 12  4 21  9 29.9720000  0  6 25 22 18 29 15 14
  14662038.327   -48261630.26349   -288702.35949  14662039.9544   14662046.7004
  13113944.328   -30298680.69349  -3133073.02549  13113944.7834   13113951.3394
  15463816.003   -18754429.50949 -14595368.48549  15463820.5424   15463828.0934
  13340819.976   -40727494.80249 -11254889.32549  13340820.9674   13340825.7204
  14998229.930   -49064070.15549     83140.89749  14998231.9084   14998239.8034
  11915110.926   -67531328.48749  -3720333.87349  11915111.8994   11915117.9274
 95 12  4 21  9 59.9720000  0  6 25 22 18 29 15 14
  14660744.793   -48268426.69449   -293998.29749  14660745.9654   14660752.4654
  13088911.703   -30430225.58049  -3235575.49249  13088912.5064   13088918.9654
  15431194.320   -18925888.73149 -14728972.99849  15431194.3074   15431201.2884
  13314256.160   -40867084.31249 -11363660.35549  13314257.9844   13314262.7924
  14999293.666   -49058469.80349     87504.75649  14999298.4044   14999306.7314
  11892681.603   -67649193.30849  -3812176.58749  11892683.1134   11892689.2174
 95 12  4 21 10 29.9720000  0  6 25 22 18 29 15 14
  14659462.096   -48275161.35749   -299246.09749  14659464.8114   14659470.8284
  13063976.086   -30561262.37749  -3337682.04549  13063976.8584   13063982.8934
  15398563.507   -19097350.15049 -14862579.23149  15398565.5614   15398574.2854
  13287710.436   -41006594.52849 -11472369.58849  13287709.6054   13287714.8894
  15000374.153   -49052809.24749     91915.52749  15000375.9634   15000384.6614
  11870339.570   -67766605.69749  -3903666.74549  11870339.7744   11870345.7254
 95 12  4 21 10 59.9720000  0  6 25 22 18 29 15 14
  14658205.123   -48281764.78049   -304391.64649  14658207.7234   14658213.9214
  13039150.313   -30691721.84149  -3439338.74549  13039151.6164   13039157.2924
  15365954.250   -19268713.37649 -14996108.92749  15365956.4334   15365962.8714
  13261189.246   -41145950.95749 -11580959.00049  13261190.8394   13261196.3464
  15001477.321   -49047019.35649     96427.08049  15001477.8684   15001486.1224
  11848096.970   -67883490.07149  -3994745.47649  11848097.7994   11848103.5824
 95 12  4 21 11 29.9710000  0  6 25 22 18 29 15 14
  14656957.330   -48288344.31049   -309518.57349  14656955.3244   14656962.5344
  13014409.822   -30821737.94249  -3540649.96249  13014410.3764   13014416.2054
  15333339.664   -19440101.43349 -15129658.00149  15333342.5104   15333348.7224
  13234679.049   -41285269.08449 -11689518.54949  13234679.7004   13234684.8444
  15002581.800   -49041217.70049    100947.79649  15002581.3664   15002590.4244
  11825933.729   -67999953.27449  -4085496.01249  11825935.4054   11825941.9444
 95 12  4 21 11 59.9710000  0  6 25 22 18 29 15 14
  14655731.892   -48294754.58249   -314513.60849  14655735.9544   14655741.6484
  12989782.898   -30951147.19849  -3641488.32049  12989784.6894   12989790.3554
  15300749.719   -19611373.55349 -15263116.74849  15300749.7074   15300756.2414
  13208202.856   -41424396.33549 -11797929.36749  13208204.3374   13208209.7734
  15003713.544   -49035253.29749    105595.33749  15003716.1584   15003724.8174
  11803880.607   -68115844.56549  -4175800.90249  11803882.2234   11803888.3774
 95 12  4 21 12 29.9710000  0  6 25 22 18 29 15 14
  14654535.063   -48301047.70249   -319417.32849  14654538.5854   14654543.7154
  12965264.319   -31080003.41649  -3741895.74649  12965264.0164   12965269.9474
  15268169.026   -19782576.01049 -15396521.19949  15268172.6894   15268179.0204
  13181753.126   -41563400.10449 -11906243.97649  13181753.1544   13181758.1784
  15004867.268   -49029189.56049    110320.27749  15004869.3474   15004878.4794
  11781926.352   -68231215.66349  -4265700.45249  11781927.5714   11781933.9084
 95 12  4 21 12 59.9710000  0  6 25 22 18 29 15 14
  14653375.942   -48307171.85649   -324189.41749  14653373.5234   14653379.1914
  12940855.524   -31208269.48749  -3841843.32549  12940855.4664   12940862.0504
  15235611.851   -19953680.23949 -15529849.10249  15235612.7344   15235618.2404
  13155330.225   -41702243.12649 -12014433.31549  13155332.0794   13155337.0254
  15006051.625   -49022990.77549    115150.43549  15006049.4174   15006059.5814
  11760080.057   -68346020.21949  -4355158.53949  11760081.2834   11760087.2334
 95 12  4 21 13 29.9710000  0  6 25 22 18 29 15 14
  14652235.117   -48313129.38949   -328831.67049  14652239.7684   14652245.5964
  12916560.280   -31335929.95149  -3941319.00249  12916561.9944   12916569.3214
  15203066.331   -20124702.68449 -15663113.29549  15203067.7534   15203073.8984
  13128940.094   -41840922.65049 -12122495.26049  13128942.1734   13128947.8484
  15007256.657   -49016659.70349    120083.66449  15007254.4824   15007262.7084
  11738341.702   -68460254.38949  -4444172.17449  11738343.0824   11738349.4164
 95 12  4 21 13 59.9710000  0  6 25 22 18 29 15 14
  14651138.672   -48318927.99849   -333350.06549  14651136.2544   14651142.1384
  12892383.717   -31462982.60849  -4040321.05249  12892385.0524   12892391.9484
  15170535.069   -20295647.69449 -15796317.14949  15170536.8684   15170544.8244
  13102581.184   -41979446.02549 -12230435.53449  13102582.1134   13102587.6134
  15008480.938   -49010213.25949    125106.80049  15008480.8524   15008489.8944
  11716711.543   -68573923.79349  -4532745.72449  11716712.6194   11716718.6124
 95 12  4 21 14 29.9710000  0  6 25 22 18 29 15 14
  14650061.720   -48324563.98649   -337741.75549  14650063.5864   14650070.5124
  12868317.462   -31589450.22949  -4138867.22049  12868319.2694   12868326.3884
  15138015.406   -20466539.53849 -15929479.57249  15138017.8884   15138024.5544
  13076248.033   -42117828.56749 -12338266.07549  13076248.4174   13076254.2644
  15009728.267   -49003662.84249    130210.96949  15009728.7724   15009736.5304
  11695188.277   -68687031.04349  -4620881.23149  11695189.1214   11695194.8134
 95 12  4 21 14 59.9710000  0  6 25 22 18 29 15 14
  14649015.889   -48330049.84149   -342016.47049  14649019.4884   14649025.7604
  12844361.748   -31715338.73949  -4236962.15749  12844363.1024   12844369.6274
  15105506.061   -20637394.86149 -16062613.52249  15105506.0824   15105513.9434
  13049942.884   -42256065.87449 -12445983.43649  13049943.0454   13049948.1304
  15010992.321   -48997025.81349    135382.61449  15010991.6934   15010999.0664
  11673767.500   -68799591.28649  -4708590.50549  11673769.2694   11673775.2944
 95 12  4 21 15 29.9710000  0  6 25 22 18 29 15 14
  14648000.376   -48335398.85649   -346184.55649  14648002.5174   14648008.6564
  12820519.199   -31840647.56249  -4334605.37049  12820517.8814   12820523.7344
  15073001.785   -20808204.14549 -16195711.63749  15073001.6304   15073008.8474
  13023663.307   -42394158.60549 -12553588.13449  13023664.3994   13023670.2234
  15012270.242   -48990306.17149    140618.66649  15012270.6854   15012277.7944
  11652449.811   -68911620.92249  -4795886.31249  11652451.0294   11652456.8664
 95 12  4 21 15 59.9710000  0  6 25 22 18 29 15 14
  14647007.991   -48340624.08249   -350256.19349  14647007.2044   14647013.2904
  12796776.540   -31965402.80849  -4431817.25249  12796777.2624   12796783.8304
  15040501.092   -20978988.62249 -16328790.38749  15040501.1674   15040509.8724
  12997407.957   -42532128.68049 -12661097.26549  12997410.0414   12997415.4854
  15013560.770   -48983521.17049    145905.61949  15013561.6084   15013568.8564
  11631228.660   -69023137.47849  -4882782.31849  11631230.0184   11631236.3274
 95 12  4 21 16 29.9710000  0  6 25 22 18 29 15 14
  14646033.334   -48345738.34649   -354241.37349  14646034.0054   14646040.1694
  12773142.554   -32089597.85649  -4528592.58149  12773144.5094   12773150.6714
  15008007.916   -21149743.91349 -16461846.40249  15008007.2634   15008013.3154
  12971176.845   -42669983.73149 -12768516.76049  12971177.3944   12971182.3324
  15014861.940   -48976676.08449    151239.38649  15014864.4464   15014871.7394
  11610103.928   -69134150.38949  -4969285.87249  11610105.0204   11610110.8764
 95 12  4 21 16 59.9710000  0  6 25 22 18 29 15 14
  14645074.297   -48350761.25449   -358155.35849  14645077.6234   14645085.5774
  12749619.404   -32213223.39249  -4624924.15149  12749618.4944   12749624.7284
  14975519.386   -21320459.47449 -16594871.48149  14975522.1614   14975528.4614
  12944962.278   -42807732.38449 -12875853.34349  12944964.4184   12944969.6074
  15016176.997   -48969784.16249    156609.64449  15016176.7784   15016182.4454
  11589070.490   -69244681.49749  -5055413.99249  11589071.5704   11589077.6674
 95 12  4 21 17 29.9710000  0  6 25 22 18 29 15 14
  14644137.013   -48355709.18949   -362010.92549  14644137.0764   14644142.5064
  12726203.058   -32336282.81949  -4720814.57749  12726201.3694   12726206.6294
  14943043.051   -21491140.76649 -16727869.85149  14943042.5114   14943050.5464
  12918766.964   -42945393.52149 -12983121.72949  12918768.4164   12918773.2644
  15017495.391   -48962849.72649    162013.05449  15017496.7004   15017502.2684
  11568128.352   -69354731.85149  -5141167.50549  11568129.5654   11568135.7134
 95 12  4 21 17 59.9710000  0  6 25 22 18 29 15 14
  14643203.686   -48360589.12549   -365813.49749  14643208.9404   14643214.2884
  12702890.495   -32458771.34449  -4816260.16449  12702892.2264   12702898.9984
  14910569.805   -21661792.56649 -16860845.22249  14910567.9244   14910576.8874
  12892587.984   -43082964.97649 -13090320.24549  12892589.2894   12892594.2364
  15018821.054   -48955875.86449    167447.17149  15018821.2614   15018829.8224
  11547282.672   -69464281.19449  -5226530.62449  11547283.3214   11547289.1014
 95 12  4 21 18 29.9710000  0  6 25 22 18 29 15 14
  14642289.070   -48365411.29749   -369571.06749  14642290.7164   14642296.6264
  12679695.775   -32580675.85049  -4911250.66249  12679696.2564   12679701.2824
  14878104.718   -21832397.44249 -16993784.02749  14878103.4074   14878111.2604
  12866428.811   -43220431.11449 -13197436.68149  12866430.0354   12866435.4914
  15020152.549   -48948865.59249    172909.66949  15020155.8434   15020162.5694
  11526531.127   -69573326.95649  -5311501.33949  11526532.4854   11526538.3624
 95 12  4 21 18 59.9710000  0  6 25 22 18 29 15 14
  14641388.010   -48370146.78649   -373261.07449  14641390.1974   14641394.9624
  12656609.532   -32701981.21349  -5005774.27649  12656612.2114   12656616.8094
  14845651.723   -22002943.34049 -17126676.86949  14845650.3534   14845656.9114
  12840296.706   -43357754.91049 -13304442.21849  12840298.2574   12840303.2374
  15021498.166   -48941796.43649    178418.03549  15021500.1674   15021508.4684
  11505882.320   -69681837.03549  -5396054.63649  11505883.5444   11505889.8384
 95 12  4 21 19 29.9710000  0  6 25 22 18 29 15 14
  14640503.309   -48374821.00949   -376903.36549  14640500.4144   14640505.0174
  12633635.931   -32822717.10749  -5099854.16349  12633636.0634   12633642.2224
  14813200.907   -22173466.18449 -17259551.75749  14813199.6914   14813207.4984
  12814187.283   -43494960.29349 -13411355.47049  12814188.5694   12814194.5634
  15022850.043   -48934695.40349    183951.23649  15022852.3054   15022860.3294
  11485334.277   -69789821.41049  -5480198.30149  11485335.2034   11485340.8734
 95 12  4 21 19 59.9700000  0  6 25 22 18 29 15 14
  14639622.298   -48379420.85049   -380487.67149  14639625.8804   14639630.4424
  12610771.643   -32942879.88949  -5193487.46249  12610768.9194   12610776.1604
  14780753.638   -22343957.34949 -17392401.94349  14780755.2624   14780764.0044
  12788103.275   -43632034.26849 -13518166.34149  12788104.4614   12788109.6594
  15024210.526   -48927565.68949    189506.78049  15024207.8944   15024217.0574
  11464886.405   -69897274.35249  -5563927.85949  11464886.9114   11464892.9964
 95 12  4 21 20 29.9700000  0  6 25 22 18 29 15 14
  14638767.300   -48383935.79149   -384005.83949  14638765.8284   14638770.4284
  12588011.849   -33062473.39749  -5286677.16949  12588011.4634   12588017.5724
  14748317.242   -22514432.86549 -17525239.96649  14748315.6264   14748322.7194
  12762040.478   -43768992.59349 -13624887.09549  12762042.6434   12762047.4694
  15025568.065   -48920409.42749    195083.01849  15025570.4634   15025580.0194
  11444537.079   -70004205.79349  -5647251.04849  11444538.7534   11444544.6024
 95 12  4 21 20 59.9700000  0  6 25 22 18 29 15 14
  14637923.271   -48388346.62049   -387442.87249  14637926.4174   14637933.1174
  12565367.175   -33181472.71349  -5379403.87149  12565367.2094   12565372.6574
  14715877.032   -22684888.48949 -17658062.47449  14715879.7964   14715886.1354
  12736004.388   -43905820.04549 -13731505.86449  12736005.0594   12736010.1984
  15026940.494   -48913212.35649    200691.06549  15026940.6094   15026950.3144
  11424293.671   -70110588.12249  -5730146.36049  11424294.8094   11424300.7284
 95 12  4 21 21 29.9700000  0  6 25 22 18 29 15 14
  14637105.222   -48392660.81549   -390804.60449  14637106.8564   14637111.0364
  12542835.328   -33299872.09049  -5471663.08449  12542836.1384   12542841.9034
  14683447.786   -22855313.83449 -17790861.37849  14683448.2054   14683454.7624
  12709989.789   -44042525.75749 -13838029.76449  12709991.1734   12709996.1004
  15028315.007   -48905974.27149    206331.08749  15028318.0254   15028326.7804
  11404155.683   -70216414.64049  -5812608.57349  11404156.4824   11404162.5684
 95 12  4 21 21 59.9700000  0  6 25 22 18 29 15 14
  14636298.189   -48396894.45449   -394103.54549  14636299.5634   14636305.7524
  12520411.587   -33417700.77249  -5563477.59049  12520413.9474   12520420.3224
  14651020.931   -23025721.91049 -17923646.85649  14651021.7604   14651027.0884
  12683996.213   -44179129.18749 -13944473.98249  12683996.0904   12684000.8704
  15029695.815   -48898718.85249    211984.62449  15029698.4884   15029707.0874
  11384119.779   -70321701.24049  -5894650.06749  11384121.4904   11384127.4724
 95 12  4 21 22 29.9700000  0  6 25 22 18 29 15 14
  14635509.053   -48401055.38449   -397345.82949  14635508.7844   14635513.4164
  12498104.118   -33534952.71849  -5654842.69849  12498102.2444   12498108.3084
  14618594.361   -23196102.13249 -18056410.60049  14618597.8574   14618604.6144
  12658018.645   -44315631.15049 -14050839.13049  12658020.9384   12658025.2344
  15031082.947   -48891441.32949    217655.38049  15031083.2874   15031092.7214
  11364189.439   -70426439.55349  -5976264.32849  11364190.4904   11364196.1124
 95 12  4 21 22 59.9700000  0  6 25 22 18 29 15 14
  14634729.219   -48405145.54949   -400532.97049  14634729.4454   14634734.8364
  12475895.572   -33651641.22749  -5745768.75249  12475897.2264   12475902.8094
  14586182.675   -23366434.17649 -18189136.81249  14586184.6364   14586191.4514
  12632063.785   -44452020.25649 -14157116.34149  12632066.4654   12632071.6024
  15032473.059   -48884140.73449    223344.10049  15032472.9204   15032481.2104
  11344362.490   -70530629.44449  -6057451.25349  11344363.7264   11344369.8234
 95 12  4 21 23 29.9700000  0  6 25 22 18 29 15 14
  14633962.507   -48409172.36249   -403670.76349  14633963.7864   14633968.8354
  12453796.056   -33767786.56649  -5836271.57249  12453795.4674   12453801.2794
  14553782.254   -23536702.65949 -18321813.48349  14553783.1644   14553790.2034
  12606131.412   -44588302.67949 -14263310.41349  12606132.9024   12606137.7554
  15033864.748   -48876830.12649    229040.61649  15033863.9894   15033872.5294
  11324638.027   -70634285.40049  -6138222.12349  11324638.6734   11324644.6874
 95 12  4 21 23 59.9700000  0  6 25 22 18 29 15 14
  14633207.440   -48413129.29149   -406754.08149  14633210.3634   14633215.3034
  12431798.796   -33883382.25849  -5926346.09549  12431798.5824   12431804.1004
  14521396.475   -23706905.25249 -18454438.83949  14521394.2654   14521402.8874
  12580219.081   -44724469.18249 -14369414.14849  12580220.9004   12580226.3754
  15035257.543   -48869512.22649    234742.82049  15035255.1634   15035265.0074
  11305011.996   -70737418.72049  -6218585.74849  11305012.9634   11305019.3014
 95 12  4 21 24 29.9700000  0  6 25 22 18 29 15 14
  14632471.719   -48417027.98749   -409792.06549  14632469.0034   14632474.6764
  12409905.741   -33998421.43349  -6015986.96449  12409906.5234   12409912.4814
  14489012.716   -23877060.16349 -18587027.02749  14489015.4054   14489021.3624
  12554330.754   -44860522.55349 -14475429.74749  12554331.2564   12554335.9694
  15036644.608   -48862197.01249    240442.93249  15036647.2304   15036657.8634
  11285481.852   -70840049.61149  -6298557.86349  11285483.4024   11285489.0484
 95 12  4 21 24 59.9700000  0  6 25 22 18 29 15 14
  14631739.095   -48420848.88749   -412769.38949  14631741.5254   14631748.4094
  12388127.041   -34112875.00449  -6105171.52949  12388127.4554   12388132.4624
  14456648.954   -24047159.78049 -18719572.12249  14456646.3904   14456654.6014
  12528463.234   -44996444.77349 -14581343.13349  12528465.7494   12528471.1064
  15038038.704   -48854880.52249    246144.03849  15038039.4374   15038048.2754
  11266047.436   -70942174.64149  -6378135.79349  11266049.1294   11266055.4034
 95 12  4 21 25 29.9700000  0  6 25 22 18 29 15 14
  14631026.647   -48424577.30749   -415674.66149  14631031.9494   14631037.7294
  12366464.267   -34226713.46249  -6193876.78549  12366464.7404   12366470.2424
  14424284.914   -24217211.02149 -18852079.53249  14424287.1364   14424294.9274
  12502624.524   -45132230.28049 -14687150.00849  12502626.9094   12502632.0534
  15039435.179   -48847556.81649    251850.76849  15039435.3544   15039442.2334
  11246710.925   -71043792.93649  -6457318.87449  11246712.1014   11246717.8984
 95 12  4 21 25 59.9700000  0  6 25 22 18 29 15 14
  14630336.950   -48428218.83349   -418512.24249  14630338.1994   14630345.3974
  12344920.331   -34339929.97249  -6282097.41549  12344920.5904   12344926.1464
  14391934.416   -24387238.44249 -18984568.39549  14391933.4194   14391938.7614
  12476811.679   -45267885.19849 -14792855.11549  12476812.4054   12476817.3284
  15040827.483   -48840224.94149    257563.85649  15040830.4534   15040838.0604
  11227472.378   -71144892.69049  -6536097.89649  11227473.2724   11227479.3304
 95 12  4 21 26 29.9700000  0  6 25 22 18 29 15 14
  14629657.784   -48431801.02349   -421303.57349  14629656.5414   14629663.2034
  12323492.393   -34452540.74649  -6369846.04449  12323490.9584   12323496.7454
  14359576.134   -24557265.62549 -19117057.06749  14359577.6504   14359584.5884
  12451018.567   -45403427.33149 -14898472.35049  12451019.9644   12451024.6274
  15042222.771   -48832907.59549    263265.65249  15042222.4364   15042230.8424
  11208331.260   -71245477.39949  -6614475.58649  11208332.6574   11208338.4574
 95 12  4 21 26 59.9700000  0  6 25 22 18 29 15 14
  14628991.747   -48435312.47349   -424039.77949  14628989.5904   14628995.5894
  12302178.168   -34564534.34849  -6457113.76649  12302179.1204   12302185.5764
  14327229.872   -24727258.29349 -19249518.81449  14327228.4904   14327234.3084
  12425249.708   -45538845.38849 -15003992.88749  12425250.8034   12425255.3564
  15043616.285   -48825588.30249    268968.90349  15043615.9444   15043623.5884
  11189295.715   -71345512.95149  -6692425.35549  11189296.7504   11189302.6854
 95 12  4 21 27 29.9700000  0  6 25 22 18 29 15 14
  14628327.142   -48438773.57849   -426736.75949  14628330.8994   14628336.9034
  12280979.415   -34675941.56549  -6543924.56449  12280978.9954   12280984.9864
  14294888.087   -24897219.16449 -19381955.82149  14294886.9754   14294892.9084
  12399502.536   -45674146.31449 -15109422.16749  12399503.9654   12399508.6884
  15045008.310   -48818271.54449    274670.21349  15045008.3744   15045015.4444
  11170368.041   -71444980.85949  -6769932.80449  11170368.8194   11170373.9464
 95 12  4 21 27 59.9690000  0  6 25 22 18 29 15 14
  14627665.855   -48442238.54649   -429436.74249  14627670.4234   14627678.0924
  12259882.714   -34786806.73049  -6630312.99549  12259882.2984   12259888.3434
  14262547.603   -25067164.58249 -19514380.77249  14262546.4624   14262552.7654
  12373771.235   -45809364.37649 -15214786.86349  12373772.4574   12373777.4294
  15046391.763   -48810999.94549    280336.32349  15046391.9084   15046399.5364
  11151544.485   -71543893.50149  -6847007.57749  11151546.3594   11151551.9884
 95 12  4 21 28 29.9690000  0  6 25 22 18 29 15 14
  14626991.680   -48445791.16949   -432205.05249  14626995.7414   14626997.7824
  12238871.969   -34897219.55649  -6716348.94849  12238871.3644   12238877.2574
  14230195.428   -25237168.22949 -19646851.09649  14230195.0734   14230202.4584
  12348040.385   -45944585.03649 -15320153.59749  12348041.0514   12348045.5824
  15047748.587   -48803867.02149    285894.39549  15047749.5954   15047758.8524
  11132806.941   -71642361.00949  -6923735.49449  11132808.3214   11132814.1744
 95 12  4 21 28 59.9690000  0  6 25 22 18 29 15 14
  14626313.494   -48449379.56049   -435001.22549  14626313.4554   14626318.2954
  12217953.588   -35007140.83249  -6802001.87249  12217953.8574   12217960.0864
  14197846.783   -25407176.86249 -19779325.31749  14197844.3074   14197851.0904
  12322316.523   -46079763.06749 -15425487.10449  12322317.2164   12322321.7714
  15049087.861   -48796832.87949    291375.49249  15049088.0404   15049096.1144
  11114162.525   -71740344.72949  -7000086.43249  11114162.7714   11114168.6784
 95 12  4 21 29 29.9690000  0  6 25 22 18 29 15 14
  14625639.879   -48452922.15949   -437761.72449  14625637.9174   14625643.8134
  12197143.741   -35116488.73949  -6887208.01949  12197145.7024   12197151.9594
  14165505.380   -25577127.37649 -19911754.26049  14165503.2074   14165511.0964
  12296614.046   -46214821.27649 -15530727.24749  12296616.2374   12296621.0154
  15050419.016   -48789829.76249    296832.41549  15050419.6494   15050429.1924
  11095621.318   -71837779.05949  -7076009.27749  11095621.8054   11095627.5384
 95 12  4 21 29 59.9690000  0  6 25 22 18 29 15 14
  14624960.189   -48456473.18149   -440528.76859  14624963.1044   14624967.6084
  12176439.509   -35225307.68949  -6972001.99449  12176437.9924   12176443.9614
  14133162.686   -25747083.88749 -20044187.85549  14133160.8854   14133168.6754
  12270926.629   -46349824.52149 -15635924.56349  12270926.2874   12270930.8044
  15051733.616   -48782926.67749    302211.37149  15051734.7904   15051742.6064
  11077166.444   -71934748.23449  -7151569.66549  11077168.7344   11077174.4234
 95 12  4 21 30 29.9690000  0  6 25 22 18 29 15 14
  14624286.582   -48460012.51749   -443286.72059  14624290.2544   14624294.2664
  12155834.365   -35333580.35949  -7056370.29449  12155834.3464   12155840.3554
  14100818.819   -25917051.57149 -20176630.16049  14100817.6904   14100825.0814
  12245249.073   -46484750.87849 -15741061.95549  12245250.3404   12245255.6384
  15053032.087   -48776111.24149    307522.00549  15053030.7134   15053040.2044
  11058805.574   -72031244.85849  -7226761.81949  11058806.2304   11058811.7984
 95 12  4 21 30 59.9690000  0  6 25 22 18 29 15 14
  14623620.210   -48463517.480 9   -446017.89459                  14623627.5994
  12135341.913   -35441278.47249  -7140290.88849  12135340.9894   12135346.1454
  14068473.708   -26087026.27949 -20309077.93749  14068474.1814   14068479.4164
  12219593.144   -46619577.28349 -15846121.47149  12219594.1114   12219598.6954
  15054316.402   -48769355.04149    312786.51449  15054317.4684   15054325.7944
  11040541.776   -72127218.77449  -7301546.68849  11040542.9164   11040548.9184
 95 12  4 21 31 29.9690000  0  6 25 22 18 29 15 14
  14622957.369   -48466976.855 9
  12114960.621   -35548368.58049  -7223737.70049  12114961.6834   12114967.9414
  14036126.536   -26256991.42649 -20441518.25849  14036129.1304   14036136.9514
  12193961.602   -46754277.43349 -15951082.61049  12193961.0744   12193966.1504
  15055594.941   -48762636.84749    318021.39349  15055595.9064   15055604.2744
  11022383.415   -72222640.61949  -7375901.36249  11022384.8434   11022390.9174
 95 12  4 21 31 59.9690000  0  6 25 22 18 29 15 14
  14622310.040   -48470402.461 9   -451382.84759                  14622316.6994
  12094698.780   -35654851.17049  -7306711.12849  12094698.6784   12094705.0334
  14003786.647   -26426953.68949 -20573956.33749  14003787.4214   14003794.3244
  12168353.326   -46888841.33549 -16055937.56849  12168354.6474   12168359.7054
  15056865.006   -48755960.08749    323223.99549  15056866.0914   15056874.8044
  11004329.425   -72317521.80749  -7449834.75249  11004329.9034   11004335.5894
 95 12  4 21 32 29.9690000  0  6 25 22 18 29 15 14
  14621670.793   -48473777.906 9
  12074553.037   -35760712.35449  -7389200.33849  12074553.9044   12074560.1634
  13971443.570   -26596904.82349 -20706385.74249  13971446.3474   13971453.8764
  12142776.481   -47023248.46649 -16160670.36749  12142777.5024   12142782.9974
  15058128.669   -48749313.81149    328402.85249  15058130.8234   15058139.1284
  10986378.390   -72411846.87449  -7523334.79249  10986380.2704   10986385.8804
 95 12  4 21 32 59.9690000  0  6 25 22 18 29 15 14
  14621037.373   -48477092.68259   -456596.04259  14621037.8374   14621046.1314
  12054527.951   -35865941.16649  -7471196.79049  12054529.4014   12054535.8344
  13939115.427   -26766814.28049 -20838782.67049  13939115.5334   13939120.2964
  12117228.081   -47157497.26649 -16265279.79649  12117230.7784   12117235.9134
  15059389.836   -48742688.67449    333565.24049  15059390.7664   15059400.6524
  10968536.226   -72505612.58749  -7596398.98249  10968537.2304   10968543.1794
 95 12  4 21 33 29.9690000  0  6 25 22 18 29 15 14
  14620415.021   -48480347.83649   -459132.54959  14620419.6024   14620424.4104
  12034626.213   -35970534.41049  -7552697.99849  12034626.0724   12034632.3484
  13906793.875   -26936656.80249 -20971127.44849  13906795.1194   13906799.9544
  12091712.169   -47291590.14749 -16369767.73049  12091713.8934   12091718.8884
  15060646.743   -48736090.44049    338706.65449  15060647.0684   15060655.5214
  10950797.031   -72598827.61549  -7669034.06449  10950798.4324   10950805.1144
 95 12  4 21 33 59.9690000  0  6 25 22 18 29 15 14
  14619805.812   -48483561.35849   -461636.60949  14619807.8024   14619814.3604
  12014840.588   -36074514.34049  -7633721.28549  12014839.4084   12014845.4164
  13874485.813   -27106428.93849 -21103417.37449  13874487.2444   13874493.8054
  12066220.668   -47425551.78849 -16474153.39649  12066221.6444   12066226.8724
  15061891.370   -48729541.92649    343809.32449  15061892.8904   15061902.9494
  10933160.334   -72691510.17049  -7741254.23249  10933161.7244   10933167.9324
 95 12  4 21 34 29.9690000  0  6 25 22 18 29 15 14
  14619218.687   -48486658.18849   -464049.73349  14619218.9724   14619222.4844
  11995181.732   -36177813.13449  -7714213.81549  11995182.2034   11995188.5824
  13842206.282   -27276037.64949 -21235579.97349  13842210.8034   13842217.8744
  12040765.336   -47559322.94049 -16578390.64349  12040766.5504   12040770.5384
  15063143.235   -48722965.48149    348933.76149  15063143.9664   15063153.1624
  10915643.886   -72783562.14149  -7812983.03549  10915644.8374   10915651.5604
 95 12  4 21 34 59.9690000  0  6 25 22 18 29 15 14
  14618661.731   -48489585.71349   -466330.95149  14618661.6124   14618668.0844
  11975666.464   -36280368.85049  -7794127.32749  11975666.2194   11975672.4124
  13809977.914   -27445415.22349 -21367562.47049  13809981.0734   13809987.2724
  12015353.757   -47692852.13249 -16682439.34049  12015356.1954   12015361.1624
  15064412.195   -48716297.64749    354129.39849  15064412.5154   15064421.6964
  10898262.003   -72874904.79249  -7884159.12849  10898262.9824   10898269.0064
 95 12  4 21 35 29.9690000  0  6 25 22 18 29 15 14
  14618121.908   -48492418.33049   -468538.19749  14618122.3614   14618127.9394
  11956278.826   -36382247.27949  -7873513.08149  11956279.3784   11956285.8074
  13777772.931   -27614644.31249 -21499429.24749  13777776.3684   13777782.7974
  11989977.919   -47826213.21149 -16786357.03849  11989979.0854   11989983.4484
  15065685.107   -48709618.43149    359333.90249  15065684.2184   15065693.6524
  10881001.600   -72965607.43249  -7954836.50349  10881002.7234   10881009.3454
 95 12  4 21 35 59.9690000  0  6 25 22 18 29 15 14
  14617596.258   -48495180.56449   -470690.59149  14617597.5364   14617602.5744
  11937013.103   -36483480.72949  -7952396.25449  11937015.3884   11937021.8904
  13745594.644   -27783772.08549 -21631217.07249  13745594.2224   13745600.6734
  11964627.752   -47959424.70349 -16890158.18549  11964629.1344   11964633.6754
  15066952.491   -48702955.79449    364525.48249  15066952.3864   15066961.4244
  10863857.157   -73055700.68949  -8025039.04949  10863858.8564   10863865.1294
 95 12  4 21 36 29.9680000  0  6 25 22 18 29 15 14
  14617085.973   -48497868.99249   -472785.48549  14617086.0454   14617092.6884
  11917873.939   -36584066.59749  -8030774.82749  11917874.3644   11917880.8214
  13713424.527   -27952814.55049 -21762938.43949  13713425.6574   13713432.5004
  11939309.971   -48092468.98049 -16993829.03449  11939311.9174   11939316.3404
  15068216.992   -48696311.10649    369703.11649  15068216.3734   15068225.0034
  10846828.995   -73145186.00549  -8094767.86849  10846830.4864   10846836.9244
 95 12  4 21 36 59.9680000  0  6 25 22 18 29 15 14
  14616582.955   -48500507.48349   -474841.44649  14616584.3494   14616589.7244
  11898855.121   -36684023.41949  -8108663.22849  11898853.1184   11898860.0744
  13681265.915   -28121820.98849 -21894631.70749  13681265.1734   13681271.2234
  11914021.010   -48225359.88349 -17097380.36549  11914023.1184   11914028.4704
  15069468.928   -48689723.49049    374836.26849  15069470.5444   15069478.1334
  10829906.060   -73234116.31249  -8164064.21349  10829907.1394   10829914.0224
 95 12  4 21 37 29.9680000  0  6 25 22 18 29 15 14
  14616085.764   -48503111.75649   -476870.76049  14616087.4424   14616094.6614
  11879946.883   -36783374.50949  -8186079.63549  11879947.1484   11879953.9154
  13649107.679   -28290799.13449 -22026302.95949  13649108.7214   13649115.5564
  11888763.798   -48358098.39949 -17200812.95949  11888764.3574   11888769.0264
  15070706.834   -48683222.10949    379902.20449  15070708.1744   15070716.4224
  10813081.624   -73322528.10849  -8232956.52049  10813083.0244   10813089.7504
 95 12  4 21 37 59.9680000  0  6 25 22 18 29 15 14
  14615596.844   -48505681.94149   -478873.53249  14615597.5574   14615605.3944
  11861155.297   -36882134.07149  -8263035.11049  11861154.1224   11861160.6194
  13616957.305   -28459745.79349 -22157949.65549  13616959.4324   13616966.5634
  11863535.363   -48490670.55349 -17304115.91549  11863535.9724   11863541.6504
  15071927.902   -48676802.23449    384904.63249  15071928.5464   15071937.1594
  10796357.622   -73410418.52849  -8301442.56749  10796358.0024   10796364.9534
 95 12  4 21 38 29.9680000  0  6 25 22 18 29 15 14
  14615111.376   -48508223.14949   -480853.70449  14615115.3084   14615121.4134
  11842472.305   -36980304.71449  -8339531.69549  11842473.4544   11842478.9134
  13584817.196   -28628652.32849 -22289565.09549  13584818.7484   13584823.7364
  11838336.564   -48623090.17149 -17407300.01849  11838337.1184   11838342.6934
  15073134.472   -48670469.88449    389838.84949  15073134.8434   15073143.0584
  10779731.697   -73497783.15349  -8369518.90049  10779733.0624   10779739.7904
 95 12  4 21 38 59.9680000  0  6 25 22 18 29 15 14
  14614637.274   -48510723.43349   -482802.00049  14614638.9484   14614644.1444
  11823904.412   -37077870.79049  -8415557.19149  11823906.0304   11823912.3384
  13552688.866   -28797492.10249 -22421128.51049  13552688.3314   13552694.6974
  11813164.929   -48755360.19349 -17510367.55149  11813166.8624   11813172.0614
  15074324.440   -48664211.27149    394715.60749  15074325.5734   15074333.7184
  10763210.964   -73584601.24949  -8437169.36449  10763211.9844   10763218.7174
 95 12  4 21 39 29.9680000  0  6 25 22 18 29 15 14
  14614166.565   -48513213.11249   -484742.03049  14614166.2254   14614170.9164
  11805446.211   -37174880.02349  -8491148.78049  11805446.1074   11805452.3014
  13520569.204   -28966280.58849 -22552651.98849  13520569.4844   13520575.2654
  11788015.247   -48887528.08749 -17613355.48849  11788016.1264   11788021.8214
  15075497.659   -48658045.61449    399519.92149  15075499.5614   15075507.4004
  10746791.734   -73670882.67649  -8504401.64649  10746793.1874   10746800.2074
 95 12  4 21 39 59.9680000  0  6 25 22 18 29 15 14
  14613676.028   -48515780.47849   -486742.63149  14613677.7674   14613682.5674
  11787080.820   -37271396.05149  -8566356.05949  11787080.1864   11787085.5364
  13488442.832   -29135102.44549 -22684201.44449  13488443.7054   13488449.2014
  11762869.689   -49019675.61649 -17716327.57349  11762870.4134   11762874.7684
  15076640.195   -48652047.98249    404193.29849  15076641.0764   15076649.3864
  10730464.164   -73756680.62349  -8571257.18649  10730465.9464   10730473.2044
 95 12  4 21 40 29.9680000  0  6 25 22 18 29 15 14
  14613170.662   -48518408.42249   -488790.40549  14613176.9984   14613182.2754
  11768819.217   -37367364.58449  -8641136.71649  11768818.0594   11768823.3234
  13456316.729   -29303938.45449 -22815761.94849  13456314.9304   13456322.0604
  11737732.032   -49151778.90149 -17819265.17949  11737731.3474   11737736.2414
  15077757.040   -48646195.71049    408753.41249  15077755.9354   15077762.1694
  10714236.021   -73841964.47649  -8637712.13649  10714237.3824   10714244.4954
 95 12  4 21 40 59.9680000  0  6 25 22 18 29 15 14
  14612675.678   -48521071.31149   -490865.40949  14612670.0714   14612675.8914
  11750665.848   -37462753.46149  -8715465.68449  11750665.8394   11750671.4534
  13424187.050   -29472761.82949 -22947312.58849  13424188.4584   13424195.5704
  11712611.056   -49283787.21749 -17922128.79049  11712611.4854   11712615.5694
  15078844.963   -48640458.83449    413223.59349  15078847.2394   15078854.7214
  10698113.043   -73926695.18349  -8703736.06849  10698113.8164   10698120.7294
 95 12  4 21 41 29.9680000  0  6 25 22 18 29 15 14
  14612164.915   -48523753.51249   -492955.48149  14612160.5174   14612165.5694
  11732628.521   -37557534.73549  -8789321.19649  11732629.7394   11732635.5794
  13392064.071   -29641561.96649 -23078845.11749  13392066.7194   13392074.3164
  11687517.567   -49415658.60649 -18024885.70149  11687517.0594   11687521.5724
  15079917.285   -48634826.06449    417612.67749  15079919.1164   15079924.2674
  10682098.738   -74010848.75649  -8769310.28549  10682099.6104   10682106.4954
 95 12  4 21 41 59.9680000  0  6 25 22 18 29 15 14
  14611648.756   -48526451.07449   -495057.49749  14611647.1274   14611652.8944
  11714713.967   -37651678.61449  -8862680.04149  11714714.8094   11714720.3454
  13359944.138   -29810346.60449 -23210365.58449  13359947.4024   13359955.3414
  11662452.872   -49547372.75149 -18127520.07849  11662452.5794   11662457.0824
  15080971.137   -48629297.45549    421920.60049  15080969.7084   15080978.5314
  10666194.543   -74094424.43149  -8834434.18849  10666195.8184   10666202.6454
 95 12  4 21 42 29.9680000  0  6 25 22 18 29 15 14
  14611132.819   -48529157.04949   -497166.07049  14611132.1554   14611136.7614
  11696916.583   -37745201.35449  -8935554.87949  11696917.9024   11696923.6284
  13327832.170   -29979107.77949 -23341867.75749  13327832.6534   13327841.1174
  11637417.619   -49678931.01949 -18230032.99749  11637418.1224   11637422.0854
  15082000.238   -48623880.58549    426141.47149  15081998.9734   15082010.0804
  10650398.113   -74177440.32849  -8899121.90949  10650398.6024   10650404.9374
 95 12  4 21 42 59.9680000  0  6 25 22 18 29 15 14
  14610618.106   -48531837.44649   -499254.72949  14610622.1034   14610627.4254
  11679238.924   -37838101.42449  -9007944.52149  11679240.0774   11679245.5764
  13295732.306   -30147799.97949 -23473316.17949  13295733.1834   13295739.0824
  11612415.183   -49810315.97549 -18332410.87849  11612416.6154   11612421.1114
  15083011.876   -48618560.24749    430287.14349  15083014.1514   15083019.9374
  10634709.514   -74259878.50049  -8963359.44449  10634711.1644   10634717.3554
 95 12  4 21 43 29.9680000  0  6 25 22 18 29 15 14
  14610115.450   -48534488.25149   -501320.30849  14610117.3064   14610122.9584
  11661685.088   -37930364.88649  -9079838.11549  11661682.3874   11661688.1124
  13263645.542   -30316415.15849 -23604704.59149  13263645.8964   13263653.1344
  11587442.026   -49941549.10249 -18434670.45249  11587443.2314   11587448.4994
  15084008.877   -48613338.64149    434355.85649  15084007.2894   15084016.5694
  10619128.613   -74341756.71449  -9027160.65849  10619130.1664   10619136.5064
 95 12  4 21 43 59.9680000  0  6 25 22 18 29 15 14
  14609614.712   -48537118.97849   -503370.25449  14609616.8414   14609622.6284
  11644239.941   -38022012.75649  -9151252.01649  11644242.5234   11644248.4484
  13231572.657   -30484945.27649 -23736026.73149  13231575.4024   13231583.3964
  11562493.123   -50072660.82749 -18536835.42449  11562493.8674   11562498.7444
  15084979.692   -48608223.53049    438341.56149  15084980.9574   15084989.4334
  10603650.955   -74423094.62449  -9090540.84949  10603652.0654   10603658.7204
 95 12  4 21 44 29.9680000  0  6 25 22 18 29 15 14
  14609114.098   -48539728.53649   -505403.68749  14609120.0194   14609126.7264
  11626917.419   -38113058.87749  -9222197.01149  11626917.0624   11626923.2024
  13199527.864   -30653379.28049 -23867273.96449  13199524.5044   13199530.7664
  11537565.739   -50203654.75049 -18638908.60049  11537566.5554   11537571.7024
  15085931.507   -48603221.44849    442239.20849  15085932.5104   15085941.3214
  10588274.246   -74503894.51949  -9153501.81049  10588276.1694   10588282.5094
